<?xml version="1.0" encoding="UTF-8" standalone="no" ?>
<gpx xmlns="http://www.topografix.com/GPX/1/1" xmlns:xsi="http://www.w3.org/2001/XMLSchema-instance" xsi:schemaLocation="http://www.topografix.com/GPX/1/1 http://www.topografix.com/GPX/1/1/gpx.xsd" version="1.1" creator="VisuGPX - https://www.visugpx.com">
  <metadata>
    <name>Chalais H&amp;F</name>
  </metadata>
  <trk>
    <name><![CDATA[Chalais H&F - Randonnée]]></name>
    <trkseg>
      <trkpt lat="45.27555" lon="5.64406">
        <ele>203</ele>
        <time>2026-01-18T08:31:15.000Z</time>
      </trkpt>
      <trkpt lat="45.27555" lon="5.64408">
        <ele>203</ele>
        <time>2026-01-18T08:31:16.000Z</time>
      </trkpt>
      <trkpt lat="45.27557" lon="5.64416">
        <ele>203.19999694824</ele>
        <time>2026-01-18T08:31:21.000Z</time>
      </trkpt>
      <trkpt lat="45.27557" lon="5.64421">
        <ele>203.39999389648</ele>
        <time>2026-01-18T08:31:24.000Z</time>
      </trkpt>
      <trkpt lat="45.27561" lon="5.6444">
        <ele>203.60000610352</ele>
        <time>2026-01-18T08:31:37.000Z</time>
      </trkpt>
      <trkpt lat="45.27562" lon="5.64446">
        <ele>203.80000305176</ele>
        <time>2026-01-18T08:31:41.000Z</time>
      </trkpt>
      <trkpt lat="45.27566" lon="5.64462">
        <ele>203.80000305176</ele>
        <time>2026-01-18T08:31:50.000Z</time>
      </trkpt>
      <trkpt lat="45.27568" lon="5.6448">
        <ele>204</ele>
        <time>2026-01-18T08:32:00.000Z</time>
      </trkpt>
      <trkpt lat="45.27568" lon="5.64483">
        <ele>204</ele>
        <time>2026-01-18T08:32:02.000Z</time>
      </trkpt>
      <trkpt lat="45.27567" lon="5.64486">
        <ele>204.19999694824</ele>
        <time>2026-01-18T08:32:04.000Z</time>
      </trkpt>
      <trkpt lat="45.27567" lon="5.64496">
        <ele>204.19999694824</ele>
        <time>2026-01-18T08:32:10.000Z</time>
      </trkpt>
      <trkpt lat="45.27566" lon="5.645">
        <ele>204.19999694824</ele>
        <time>2026-01-18T08:32:12.000Z</time>
      </trkpt>
      <trkpt lat="45.27566" lon="5.64504">
        <ele>204.19999694824</ele>
        <time>2026-01-18T08:32:14.000Z</time>
      </trkpt>
      <trkpt lat="45.27566" lon="5.64508">
        <ele>204.39999389648</ele>
        <time>2026-01-18T08:32:16.000Z</time>
      </trkpt>
      <trkpt lat="45.27565" lon="5.64517">
        <ele>204.60000610352</ele>
        <time>2026-01-18T08:32:21.000Z</time>
      </trkpt>
      <trkpt lat="45.27565" lon="5.64523">
        <ele>204.60000610352</ele>
        <time>2026-01-18T08:32:24.000Z</time>
      </trkpt>
      <trkpt lat="45.27562" lon="5.6454">
        <ele>204.60000610352</ele>
        <time>2026-01-18T08:32:34.000Z</time>
      </trkpt>
      <trkpt lat="45.27556" lon="5.64557">
        <ele>204.60000610352</ele>
        <time>2026-01-18T08:32:44.000Z</time>
      </trkpt>
      <trkpt lat="45.27545" lon="5.64579">
        <ele>204.60000610352</ele>
        <time>2026-01-18T08:32:58.000Z</time>
      </trkpt>
      <trkpt lat="45.27545" lon="5.6458">
        <ele>204.60000610352</ele>
        <time>2026-01-18T08:32:59.000Z</time>
      </trkpt>
      <trkpt lat="45.27538" lon="5.64593">
        <ele>204.60000610352</ele>
        <time>2026-01-18T08:33:07.000Z</time>
      </trkpt>
      <trkpt lat="45.27533" lon="5.64606">
        <ele>204.60000610352</ele>
        <time>2026-01-18T08:33:15.000Z</time>
      </trkpt>
      <trkpt lat="45.27526" lon="5.64624">
        <ele>204.60000610352</ele>
        <time>2026-01-18T08:33:26.000Z</time>
      </trkpt>
      <trkpt lat="45.27521" lon="5.64644">
        <ele>204.80000305176</ele>
        <time>2026-01-18T08:33:37.000Z</time>
      </trkpt>
      <trkpt lat="45.27521" lon="5.64668">
        <ele>205</ele>
        <time>2026-01-18T08:33:50.000Z</time>
      </trkpt>
      <trkpt lat="45.27521" lon="5.64673">
        <ele>205</ele>
        <time>2026-01-18T08:33:53.000Z</time>
      </trkpt>
      <trkpt lat="45.27522" lon="5.64677">
        <ele>205.19999694824</ele>
        <time>2026-01-18T08:33:55.000Z</time>
      </trkpt>
      <trkpt lat="45.27522" lon="5.64678">
        <ele>205.19999694824</ele>
        <time>2026-01-18T08:33:56.000Z</time>
      </trkpt>
      <trkpt lat="45.27522" lon="5.64682">
        <ele>205.19999694824</ele>
        <time>2026-01-18T08:33:58.000Z</time>
      </trkpt>
      <trkpt lat="45.27526" lon="5.64687">
        <ele>205.19999694824</ele>
        <time>2026-01-18T08:34:02.000Z</time>
      </trkpt>
      <trkpt lat="45.27528" lon="5.64695">
        <ele>205.39999389648</ele>
        <time>2026-01-18T08:34:07.000Z</time>
      </trkpt>
      <trkpt lat="45.2753" lon="5.64703">
        <ele>205.60000610352</ele>
        <time>2026-01-18T08:34:11.000Z</time>
      </trkpt>
      <trkpt lat="45.27531" lon="5.64705">
        <ele>205.60000610352</ele>
        <time>2026-01-18T08:34:12.000Z</time>
      </trkpt>
      <trkpt lat="45.27536" lon="5.64719">
        <ele>205.80000305176</ele>
        <time>2026-01-18T08:34:20.000Z</time>
      </trkpt>
      <trkpt lat="45.27541" lon="5.6473">
        <ele>206.19999694824</ele>
        <time>2026-01-18T08:34:27.000Z</time>
      </trkpt>
      <trkpt lat="45.27542" lon="5.64732">
        <ele>206.19999694824</ele>
        <time>2026-01-18T08:34:28.000Z</time>
      </trkpt>
      <trkpt lat="45.27547" lon="5.6474">
        <ele>206.80000305176</ele>
        <time>2026-01-18T08:34:34.000Z</time>
      </trkpt>
      <trkpt lat="45.27552" lon="5.64745">
        <ele>207.19999694824</ele>
        <time>2026-01-18T08:34:39.000Z</time>
      </trkpt>
      <trkpt lat="45.27553" lon="5.64747">
        <ele>207.39999389648</ele>
        <time>2026-01-18T08:34:40.000Z</time>
      </trkpt>
      <trkpt lat="45.27559" lon="5.64753">
        <ele>208.19999694824</ele>
        <time>2026-01-18T08:34:46.000Z</time>
      </trkpt>
      <trkpt lat="45.27561" lon="5.64755">
        <ele>208.39999389648</ele>
        <time>2026-01-18T08:34:48.000Z</time>
      </trkpt>
      <trkpt lat="45.27563" lon="5.64757">
        <ele>208.60000610352</ele>
        <time>2026-01-18T08:34:50.000Z</time>
      </trkpt>
      <trkpt lat="45.27564" lon="5.6476">
        <ele>208.80000305176</ele>
        <time>2026-01-18T08:34:52.000Z</time>
      </trkpt>
      <trkpt lat="45.27566" lon="5.64762">
        <ele>209</ele>
        <time>2026-01-18T08:34:54.000Z</time>
      </trkpt>
      <trkpt lat="45.27568" lon="5.64764">
        <ele>209.19999694824</ele>
        <time>2026-01-18T08:34:56.000Z</time>
      </trkpt>
      <trkpt lat="45.27569" lon="5.64765">
        <ele>209.39999389648</ele>
        <time>2026-01-18T08:34:57.000Z</time>
      </trkpt>
      <trkpt lat="45.27571" lon="5.64769">
        <ele>209.80000305176</ele>
        <time>2026-01-18T08:35:00.000Z</time>
      </trkpt>
      <trkpt lat="45.27576" lon="5.64776">
        <ele>210.39999389648</ele>
        <time>2026-01-18T08:35:06.000Z</time>
      </trkpt>
      <trkpt lat="45.2758" lon="5.64782">
        <ele>211</ele>
        <time>2026-01-18T08:35:11.000Z</time>
      </trkpt>
      <trkpt lat="45.27582" lon="5.64785">
        <ele>211.39999389648</ele>
        <time>2026-01-18T08:35:14.000Z</time>
      </trkpt>
      <trkpt lat="45.27587" lon="5.64791">
        <ele>212.19999694824</ele>
        <time>2026-01-18T08:35:19.000Z</time>
      </trkpt>
      <trkpt lat="45.27589" lon="5.64795">
        <ele>212.60000610352</ele>
        <time>2026-01-18T08:35:22.000Z</time>
      </trkpt>
      <trkpt lat="45.27594" lon="5.64806">
        <ele>213.39999389648</ele>
        <time>2026-01-18T08:35:29.000Z</time>
      </trkpt>
      <trkpt lat="45.27595" lon="5.64808">
        <ele>213.60000610352</ele>
        <time>2026-01-18T08:35:31.000Z</time>
      </trkpt>
      <trkpt lat="45.27603" lon="5.64822">
        <ele>214.60000610352</ele>
        <time>2026-01-18T08:35:41.000Z</time>
      </trkpt>
      <trkpt lat="45.27606" lon="5.64827">
        <ele>215.19999694824</ele>
        <time>2026-01-18T08:35:44.000Z</time>
      </trkpt>
      <trkpt lat="45.27608" lon="5.64833">
        <ele>215.60000610352</ele>
        <time>2026-01-18T08:35:48.000Z</time>
      </trkpt>
      <trkpt lat="45.27612" lon="5.64838">
        <ele>216</ele>
        <time>2026-01-18T08:35:52.000Z</time>
      </trkpt>
      <trkpt lat="45.27612" lon="5.6484">
        <ele>216.19999694824</ele>
        <time>2026-01-18T08:35:53.000Z</time>
      </trkpt>
      <trkpt lat="45.27617" lon="5.64849">
        <ele>216.80000305176</ele>
        <time>2026-01-18T08:35:59.000Z</time>
      </trkpt>
      <trkpt lat="45.27621" lon="5.64854">
        <ele>217</ele>
        <time>2026-01-18T08:36:03.000Z</time>
      </trkpt>
      <trkpt lat="45.27626" lon="5.64865">
        <ele>217.60000610352</ele>
        <time>2026-01-18T08:36:11.000Z</time>
      </trkpt>
      <trkpt lat="45.27628" lon="5.64867">
        <ele>217.80000305176</ele>
        <time>2026-01-18T08:36:13.000Z</time>
      </trkpt>
      <trkpt lat="45.27631" lon="5.64873">
        <ele>218.19999694824</ele>
        <time>2026-01-18T08:36:17.000Z</time>
      </trkpt>
      <trkpt lat="45.27632" lon="5.64875">
        <ele>218.39999389648</ele>
        <time>2026-01-18T08:36:18.000Z</time>
      </trkpt>
      <trkpt lat="45.2764" lon="5.64884">
        <ele>218.80000305176</ele>
        <time>2026-01-18T08:36:26.000Z</time>
      </trkpt>
      <trkpt lat="45.2764" lon="5.64885">
        <ele>219</ele>
        <time>2026-01-18T08:36:27.000Z</time>
      </trkpt>
      <trkpt lat="45.27644" lon="5.64889">
        <ele>219.19999694824</ele>
        <time>2026-01-18T08:36:31.000Z</time>
      </trkpt>
      <trkpt lat="45.27644" lon="5.64889">
        <ele>219.39999389648</ele>
        <time>2026-01-18T08:36:33.000Z</time>
      </trkpt>
      <trkpt lat="45.27646" lon="5.64893">
        <ele>219.39999389648</ele>
        <time>2026-01-18T08:36:37.000Z</time>
      </trkpt>
      <trkpt lat="45.27648" lon="5.64897">
        <ele>219.60000610352</ele>
        <time>2026-01-18T08:36:40.000Z</time>
      </trkpt>
      <trkpt lat="45.27652" lon="5.64905">
        <ele>219.80000305176</ele>
        <time>2026-01-18T08:36:48.000Z</time>
      </trkpt>
      <trkpt lat="45.27653" lon="5.64906">
        <ele>219.80000305176</ele>
        <time>2026-01-18T08:36:49.000Z</time>
      </trkpt>
      <trkpt lat="45.27653" lon="5.64906">
        <ele>220</ele>
        <time>2026-01-18T08:36:50.000Z</time>
      </trkpt>
      <trkpt lat="45.27657" lon="5.6491">
        <ele>221</ele>
        <time>2026-01-18T08:36:57.000Z</time>
      </trkpt>
      <trkpt lat="45.27657" lon="5.6491">
        <ele>221.19999694824</ele>
        <time>2026-01-18T08:36:58.000Z</time>
      </trkpt>
      <trkpt lat="45.2766" lon="5.64913">
        <ele>222.19999694824</ele>
        <time>2026-01-18T08:37:02.000Z</time>
      </trkpt>
      <trkpt lat="45.27663" lon="5.64917">
        <ele>223</ele>
        <time>2026-01-18T08:37:06.000Z</time>
      </trkpt>
      <trkpt lat="45.27664" lon="5.64919">
        <ele>223.39999389648</ele>
        <time>2026-01-18T08:37:08.000Z</time>
      </trkpt>
      <trkpt lat="45.27668" lon="5.64925">
        <ele>224.39999389648</ele>
        <time>2026-01-18T08:37:13.000Z</time>
      </trkpt>
      <trkpt lat="45.2767" lon="5.64929">
        <ele>224.80000305176</ele>
        <time>2026-01-18T08:37:16.000Z</time>
      </trkpt>
      <trkpt lat="45.27676" lon="5.64937">
        <ele>225.60000610352</ele>
        <time>2026-01-18T08:37:23.000Z</time>
      </trkpt>
      <trkpt lat="45.27678" lon="5.64941">
        <ele>226.19999694824</ele>
        <time>2026-01-18T08:37:27.000Z</time>
      </trkpt>
      <trkpt lat="45.2768" lon="5.64943">
        <ele>226.60000610352</ele>
        <time>2026-01-18T08:37:29.000Z</time>
      </trkpt>
      <trkpt lat="45.27686" lon="5.64951">
        <ele>227.60000610352</ele>
        <time>2026-01-18T08:37:36.000Z</time>
      </trkpt>
      <trkpt lat="45.27688" lon="5.64953">
        <ele>228</ele>
        <time>2026-01-18T08:37:39.000Z</time>
      </trkpt>
      <trkpt lat="45.27692" lon="5.64959">
        <ele>228.60000610352</ele>
        <time>2026-01-18T08:37:44.000Z</time>
      </trkpt>
      <trkpt lat="45.27693" lon="5.6496">
        <ele>228.80000305176</ele>
        <time>2026-01-18T08:37:45.000Z</time>
      </trkpt>
      <trkpt lat="45.27693" lon="5.64961">
        <ele>229</ele>
        <time>2026-01-18T08:37:46.000Z</time>
      </trkpt>
      <trkpt lat="45.27694" lon="5.64962">
        <ele>229.19999694824</ele>
        <time>2026-01-18T08:37:47.000Z</time>
      </trkpt>
      <trkpt lat="45.27695" lon="5.64963">
        <ele>229.19999694824</ele>
        <time>2026-01-18T08:37:48.000Z</time>
      </trkpt>
      <trkpt lat="45.27697" lon="5.64966">
        <ele>229.80000305176</ele>
        <time>2026-01-18T08:37:51.000Z</time>
      </trkpt>
      <trkpt lat="45.277" lon="5.64969">
        <ele>230.19999694824</ele>
        <time>2026-01-18T08:37:54.000Z</time>
      </trkpt>
      <trkpt lat="45.27704" lon="5.64975">
        <ele>230.80000305176</ele>
        <time>2026-01-18T08:37:59.000Z</time>
      </trkpt>
      <trkpt lat="45.27707" lon="5.64979">
        <ele>231.60000610352</ele>
        <time>2026-01-18T08:38:03.000Z</time>
      </trkpt>
      <trkpt lat="45.27709" lon="5.64981">
        <ele>232</ele>
        <time>2026-01-18T08:38:05.000Z</time>
      </trkpt>
      <trkpt lat="45.27713" lon="5.64987">
        <ele>233</ele>
        <time>2026-01-18T08:38:11.000Z</time>
      </trkpt>
      <trkpt lat="45.27714" lon="5.64988">
        <ele>233.19999694824</ele>
        <time>2026-01-18T08:38:12.000Z</time>
      </trkpt>
      <trkpt lat="45.27719" lon="5.64993">
        <ele>234</ele>
        <time>2026-01-18T08:38:17.000Z</time>
      </trkpt>
      <trkpt lat="45.27722" lon="5.64998">
        <ele>234.60000610352</ele>
        <time>2026-01-18T08:38:21.000Z</time>
      </trkpt>
      <trkpt lat="45.27725" lon="5.65001">
        <ele>234.80000305176</ele>
        <time>2026-01-18T08:38:24.000Z</time>
      </trkpt>
      <trkpt lat="45.27726" lon="5.65002">
        <ele>235</ele>
        <time>2026-01-18T08:38:25.000Z</time>
      </trkpt>
      <trkpt lat="45.27732" lon="5.65009">
        <ele>236.19999694824</ele>
        <time>2026-01-18T08:38:32.000Z</time>
      </trkpt>
      <trkpt lat="45.27734" lon="5.65012">
        <ele>236.60000610352</ele>
        <time>2026-01-18T08:38:35.000Z</time>
      </trkpt>
      <trkpt lat="45.27736" lon="5.65014">
        <ele>237.19999694824</ele>
        <time>2026-01-18T08:38:38.000Z</time>
      </trkpt>
      <trkpt lat="45.27739" lon="5.65018">
        <ele>237.80000305176</ele>
        <time>2026-01-18T08:38:42.000Z</time>
      </trkpt>
      <trkpt lat="45.27742" lon="5.6502">
        <ele>238.19999694824</ele>
        <time>2026-01-18T08:38:45.000Z</time>
      </trkpt>
      <trkpt lat="45.27746" lon="5.65026">
        <ele>239.19999694824</ele>
        <time>2026-01-18T08:38:51.000Z</time>
      </trkpt>
      <trkpt lat="45.27748" lon="5.65029">
        <ele>240</ele>
        <time>2026-01-18T08:38:55.000Z</time>
      </trkpt>
      <trkpt lat="45.27749" lon="5.6503">
        <ele>240.19999694824</ele>
        <time>2026-01-18T08:38:56.000Z</time>
      </trkpt>
      <trkpt lat="45.27749" lon="5.65031">
        <ele>240.19999694824</ele>
        <time>2026-01-18T08:38:57.000Z</time>
      </trkpt>
      <trkpt lat="45.27752" lon="5.65036">
        <ele>241.19999694824</ele>
        <time>2026-01-18T08:39:02.000Z</time>
      </trkpt>
      <trkpt lat="45.27753" lon="5.65037">
        <ele>241.39999389648</ele>
        <time>2026-01-18T08:39:03.000Z</time>
      </trkpt>
      <trkpt lat="45.27756" lon="5.65043">
        <ele>242.19999694824</ele>
        <time>2026-01-18T08:39:09.000Z</time>
      </trkpt>
      <trkpt lat="45.27757" lon="5.65045">
        <ele>242.39999389648</ele>
        <time>2026-01-18T08:39:10.000Z</time>
      </trkpt>
      <trkpt lat="45.27763" lon="5.65053">
        <ele>243.39999389648</ele>
        <time>2026-01-18T08:39:17.000Z</time>
      </trkpt>
      <trkpt lat="45.27764" lon="5.65056">
        <ele>243.80000305176</ele>
        <time>2026-01-18T08:39:19.000Z</time>
      </trkpt>
      <trkpt lat="45.27765" lon="5.65057">
        <ele>244</ele>
        <time>2026-01-18T08:39:20.000Z</time>
      </trkpt>
      <trkpt lat="45.27767" lon="5.6506">
        <ele>244.60000610352</ele>
        <time>2026-01-18T08:39:23.000Z</time>
      </trkpt>
      <trkpt lat="45.2777" lon="5.65067">
        <ele>245.60000610352</ele>
        <time>2026-01-18T08:39:29.000Z</time>
      </trkpt>
      <trkpt lat="45.27771" lon="5.65068">
        <ele>245.60000610352</ele>
        <time>2026-01-18T08:39:30.000Z</time>
      </trkpt>
      <trkpt lat="45.27772" lon="5.65072">
        <ele>246</ele>
        <time>2026-01-18T08:39:33.000Z</time>
      </trkpt>
      <trkpt lat="45.27777" lon="5.65079">
        <ele>246.80000305176</ele>
        <time>2026-01-18T08:39:39.000Z</time>
      </trkpt>
      <trkpt lat="45.27778" lon="5.65082">
        <ele>247</ele>
        <time>2026-01-18T08:39:42.000Z</time>
      </trkpt>
      <trkpt lat="45.2778" lon="5.65085">
        <ele>247.60000610352</ele>
        <time>2026-01-18T08:39:45.000Z</time>
      </trkpt>
      <trkpt lat="45.27781" lon="5.65088">
        <ele>247.80000305176</ele>
        <time>2026-01-18T08:39:47.000Z</time>
      </trkpt>
      <trkpt lat="45.27786" lon="5.65098">
        <ele>248.80000305176</ele>
        <time>2026-01-18T08:39:55.000Z</time>
      </trkpt>
      <trkpt lat="45.27786" lon="5.65098">
        <ele>249</ele>
        <time>2026-01-18T08:39:56.000Z</time>
      </trkpt>
      <trkpt lat="45.27792" lon="5.65108">
        <ele>250</ele>
        <time>2026-01-18T08:40:04.000Z</time>
      </trkpt>
      <trkpt lat="45.27796" lon="5.65115">
        <ele>250.80000305176</ele>
        <time>2026-01-18T08:40:10.000Z</time>
      </trkpt>
      <trkpt lat="45.27798" lon="5.65117">
        <ele>251</ele>
        <time>2026-01-18T08:40:12.000Z</time>
      </trkpt>
      <trkpt lat="45.27801" lon="5.65122">
        <ele>251.80000305176</ele>
        <time>2026-01-18T08:40:17.000Z</time>
      </trkpt>
      <trkpt lat="45.27803" lon="5.65126">
        <ele>252.19999694824</ele>
        <time>2026-01-18T08:40:20.000Z</time>
      </trkpt>
      <trkpt lat="45.27806" lon="5.65136">
        <ele>253.19999694824</ele>
        <time>2026-01-18T08:40:28.000Z</time>
      </trkpt>
      <trkpt lat="45.27806" lon="5.65138">
        <ele>253.39999389648</ele>
        <time>2026-01-18T08:40:29.000Z</time>
      </trkpt>
      <trkpt lat="45.27807" lon="5.65144">
        <ele>253.80000305176</ele>
        <time>2026-01-18T08:40:33.000Z</time>
      </trkpt>
      <trkpt lat="45.27807" lon="5.65148">
        <ele>254.39999389648</ele>
        <time>2026-01-18T08:40:36.000Z</time>
      </trkpt>
      <trkpt lat="45.27806" lon="5.65156">
        <ele>255</ele>
        <time>2026-01-18T08:40:41.000Z</time>
      </trkpt>
      <trkpt lat="45.27805" lon="5.65159">
        <ele>255.39999389648</ele>
        <time>2026-01-18T08:40:44.000Z</time>
      </trkpt>
      <trkpt lat="45.27803" lon="5.65163">
        <ele>256</ele>
        <time>2026-01-18T08:40:48.000Z</time>
      </trkpt>
      <trkpt lat="45.27802" lon="5.65166">
        <ele>256.39999389648</ele>
        <time>2026-01-18T08:40:50.000Z</time>
      </trkpt>
      <trkpt lat="45.27801" lon="5.65168">
        <ele>256.60000610352</ele>
        <time>2026-01-18T08:40:52.000Z</time>
      </trkpt>
      <trkpt lat="45.27799" lon="5.65174">
        <ele>257.39999389648</ele>
        <time>2026-01-18T08:40:58.000Z</time>
      </trkpt>
      <trkpt lat="45.27797" lon="5.65177">
        <ele>257.60000610352</ele>
        <time>2026-01-18T08:41:00.000Z</time>
      </trkpt>
      <trkpt lat="45.27796" lon="5.65184">
        <ele>258.39999389648</ele>
        <time>2026-01-18T08:41:05.000Z</time>
      </trkpt>
      <trkpt lat="45.27795" lon="5.65186">
        <ele>258.60000610352</ele>
        <time>2026-01-18T08:41:07.000Z</time>
      </trkpt>
      <trkpt lat="45.27793" lon="5.65193">
        <ele>259.20001220703</ele>
        <time>2026-01-18T08:41:12.000Z</time>
      </trkpt>
      <trkpt lat="45.27793" lon="5.65198">
        <ele>259.79998779297</ele>
        <time>2026-01-18T08:41:15.000Z</time>
      </trkpt>
      <trkpt lat="45.27794" lon="5.652">
        <ele>259.79998779297</ele>
        <time>2026-01-18T08:41:16.000Z</time>
      </trkpt>
      <trkpt lat="45.27794" lon="5.6521">
        <ele>260.79998779297</ele>
        <time>2026-01-18T08:41:23.000Z</time>
      </trkpt>
      <trkpt lat="45.27794" lon="5.65216">
        <ele>261.39999389648</ele>
        <time>2026-01-18T08:41:27.000Z</time>
      </trkpt>
      <trkpt lat="45.27794" lon="5.65218">
        <ele>261.39999389648</ele>
        <time>2026-01-18T08:41:28.000Z</time>
      </trkpt>
      <trkpt lat="45.27794" lon="5.65221">
        <ele>261.79998779297</ele>
        <time>2026-01-18T08:41:30.000Z</time>
      </trkpt>
      <trkpt lat="45.27794" lon="5.65228">
        <ele>263</ele>
        <time>2026-01-18T08:41:36.000Z</time>
      </trkpt>
      <trkpt lat="45.27795" lon="5.65232">
        <ele>263.39999389648</ele>
        <time>2026-01-18T08:41:39.000Z</time>
      </trkpt>
      <trkpt lat="45.27794" lon="5.65235">
        <ele>263.79998779297</ele>
        <time>2026-01-18T08:41:44.000Z</time>
      </trkpt>
      <trkpt lat="45.27794" lon="5.65236">
        <ele>263.79998779297</ele>
        <time>2026-01-18T08:41:53.000Z</time>
      </trkpt>
      <trkpt lat="45.27794" lon="5.65236">
        <ele>263.79998779297</ele>
        <time>2026-01-18T08:41:55.000Z</time>
      </trkpt>
      <trkpt lat="45.27794" lon="5.65236">
        <ele>264</ele>
        <time>2026-01-18T08:42:09.000Z</time>
      </trkpt>
      <trkpt lat="45.27795" lon="5.65236">
        <ele>264</ele>
        <time>2026-01-18T08:42:14.000Z</time>
      </trkpt>
      <trkpt lat="45.27795" lon="5.65238">
        <ele>264</ele>
        <time>2026-01-18T08:42:28.000Z</time>
      </trkpt>
      <trkpt lat="45.27795" lon="5.65238">
        <ele>264.20001220703</ele>
        <time>2026-01-18T08:42:35.000Z</time>
      </trkpt>
      <trkpt lat="45.27795" lon="5.65238">
        <ele>264.39999389648</ele>
        <time>2026-01-18T08:42:50.000Z</time>
      </trkpt>
      <trkpt lat="45.27795" lon="5.65238">
        <ele>264.60000610352</ele>
        <time>2026-01-18T08:43:02.000Z</time>
      </trkpt>
      <trkpt lat="45.27795" lon="5.65239">
        <ele>264.60000610352</ele>
        <time>2026-01-18T08:43:13.000Z</time>
      </trkpt>
      <trkpt lat="45.27795" lon="5.65239">
        <ele>264.60000610352</ele>
        <time>2026-01-18T08:43:15.000Z</time>
      </trkpt>
      <trkpt lat="45.27795" lon="5.6524">
        <ele>264.60000610352</ele>
        <time>2026-01-18T08:43:16.000Z</time>
      </trkpt>
      <trkpt lat="45.27795" lon="5.6524">
        <ele>264.60000610352</ele>
        <time>2026-01-18T08:43:17.000Z</time>
      </trkpt>
      <trkpt lat="45.27795" lon="5.65241">
        <ele>264.60000610352</ele>
        <time>2026-01-18T08:43:26.000Z</time>
      </trkpt>
      <trkpt lat="45.27795" lon="5.65242">
        <ele>265</ele>
        <time>2026-01-18T08:43:34.000Z</time>
      </trkpt>
      <trkpt lat="45.27794" lon="5.65248">
        <ele>265.79998779297</ele>
        <time>2026-01-18T08:43:38.000Z</time>
      </trkpt>
      <trkpt lat="45.27793" lon="5.6525">
        <ele>266</ele>
        <time>2026-01-18T08:43:40.000Z</time>
      </trkpt>
      <trkpt lat="45.27792" lon="5.65255">
        <ele>266.60000610352</ele>
        <time>2026-01-18T08:43:44.000Z</time>
      </trkpt>
      <trkpt lat="45.27792" lon="5.65258">
        <ele>267.20001220703</ele>
        <time>2026-01-18T08:43:46.000Z</time>
      </trkpt>
      <trkpt lat="45.2779" lon="5.65263">
        <ele>268.39999389648</ele>
        <time>2026-01-18T08:43:51.000Z</time>
      </trkpt>
      <trkpt lat="45.27788" lon="5.65269">
        <ele>269.39999389648</ele>
        <time>2026-01-18T08:43:56.000Z</time>
      </trkpt>
      <trkpt lat="45.27787" lon="5.65271">
        <ele>269.79998779297</ele>
        <time>2026-01-18T08:43:58.000Z</time>
      </trkpt>
      <trkpt lat="45.27786" lon="5.65272">
        <ele>270</ele>
        <time>2026-01-18T08:43:59.000Z</time>
      </trkpt>
      <trkpt lat="45.27784" lon="5.65275">
        <ele>270.39999389648</ele>
        <time>2026-01-18T08:44:02.000Z</time>
      </trkpt>
      <trkpt lat="45.27782" lon="5.65277">
        <ele>270.79998779297</ele>
        <time>2026-01-18T08:44:04.000Z</time>
      </trkpt>
      <trkpt lat="45.27781" lon="5.65278">
        <ele>270.79998779297</ele>
        <time>2026-01-18T08:44:05.000Z</time>
      </trkpt>
      <trkpt lat="45.27775" lon="5.65285">
        <ele>271.20001220703</ele>
        <time>2026-01-18T08:44:11.000Z</time>
      </trkpt>
      <trkpt lat="45.27774" lon="5.65286">
        <ele>271.20001220703</ele>
        <time>2026-01-18T08:44:12.000Z</time>
      </trkpt>
      <trkpt lat="45.27773" lon="5.65287">
        <ele>271.20001220703</ele>
        <time>2026-01-18T08:44:13.000Z</time>
      </trkpt>
      <trkpt lat="45.27772" lon="5.65289">
        <ele>271.39999389648</ele>
        <time>2026-01-18T08:44:15.000Z</time>
      </trkpt>
      <trkpt lat="45.2777" lon="5.65291">
        <ele>271.39999389648</ele>
        <time>2026-01-18T08:44:17.000Z</time>
      </trkpt>
      <trkpt lat="45.27769" lon="5.65293">
        <ele>271.39999389648</ele>
        <time>2026-01-18T08:44:19.000Z</time>
      </trkpt>
      <trkpt lat="45.27767" lon="5.65295">
        <ele>271.39999389648</ele>
        <time>2026-01-18T08:44:21.000Z</time>
      </trkpt>
      <trkpt lat="45.27766" lon="5.65295">
        <ele>271.39999389648</ele>
        <time>2026-01-18T08:44:22.000Z</time>
      </trkpt>
      <trkpt lat="45.27761" lon="5.65303">
        <ele>271.39999389648</ele>
        <time>2026-01-18T08:44:29.000Z</time>
      </trkpt>
      <trkpt lat="45.2776" lon="5.65303">
        <ele>271.60000610352</ele>
        <time>2026-01-18T08:44:32.000Z</time>
      </trkpt>
      <trkpt lat="45.27759" lon="5.65303">
        <ele>271.60000610352</ele>
        <time>2026-01-18T08:44:34.000Z</time>
      </trkpt>
      <trkpt lat="45.27757" lon="5.65302">
        <ele>271.60000610352</ele>
        <time>2026-01-18T08:44:37.000Z</time>
      </trkpt>
      <trkpt lat="45.27754" lon="5.65305">
        <ele>271.60000610352</ele>
        <time>2026-01-18T08:44:40.000Z</time>
      </trkpt>
      <trkpt lat="45.2775" lon="5.65308">
        <ele>271.60000610352</ele>
        <time>2026-01-18T08:44:44.000Z</time>
      </trkpt>
      <trkpt lat="45.27747" lon="5.65312">
        <ele>271.60000610352</ele>
        <time>2026-01-18T08:44:46.000Z</time>
      </trkpt>
      <trkpt lat="45.27746" lon="5.65312">
        <ele>271.60000610352</ele>
        <time>2026-01-18T08:44:47.000Z</time>
      </trkpt>
      <trkpt lat="45.27744" lon="5.65314">
        <ele>271.79998779297</ele>
        <time>2026-01-18T08:44:50.000Z</time>
      </trkpt>
      <trkpt lat="45.27742" lon="5.65315">
        <ele>271.79998779297</ele>
        <time>2026-01-18T08:44:52.000Z</time>
      </trkpt>
      <trkpt lat="45.27738" lon="5.65316">
        <ele>271.79998779297</ele>
        <time>2026-01-18T08:44:54.000Z</time>
      </trkpt>
      <trkpt lat="45.27733" lon="5.65314">
        <ele>271.60000610352</ele>
        <time>2026-01-18T08:44:58.000Z</time>
      </trkpt>
      <trkpt lat="45.2773" lon="5.65314">
        <ele>271</ele>
        <time>2026-01-18T08:45:01.000Z</time>
      </trkpt>
      <trkpt lat="45.27728" lon="5.65315">
        <ele>270.60000610352</ele>
        <time>2026-01-18T08:45:04.000Z</time>
      </trkpt>
      <trkpt lat="45.27727" lon="5.65315">
        <ele>270.39999389648</ele>
        <time>2026-01-18T08:45:05.000Z</time>
      </trkpt>
      <trkpt lat="45.27727" lon="5.65314">
        <ele>270.39999389648</ele>
        <time>2026-01-18T08:45:06.000Z</time>
      </trkpt>
      <trkpt lat="45.27725" lon="5.65316">
        <ele>270.39999389648</ele>
        <time>2026-01-18T08:45:08.000Z</time>
      </trkpt>
      <trkpt lat="45.27723" lon="5.65317">
        <ele>270.39999389648</ele>
        <time>2026-01-18T08:45:10.000Z</time>
      </trkpt>
      <trkpt lat="45.27722" lon="5.65317">
        <ele>270.39999389648</ele>
        <time>2026-01-18T08:45:11.000Z</time>
      </trkpt>
      <trkpt lat="45.27722" lon="5.65318">
        <ele>270.39999389648</ele>
        <time>2026-01-18T08:45:12.000Z</time>
      </trkpt>
      <trkpt lat="45.27717" lon="5.65318">
        <ele>270.60000610352</ele>
        <time>2026-01-18T08:45:17.000Z</time>
      </trkpt>
      <trkpt lat="45.27714" lon="5.65316">
        <ele>270.60000610352</ele>
        <time>2026-01-18T08:45:19.000Z</time>
      </trkpt>
      <trkpt lat="45.27708" lon="5.65317">
        <ele>270.79998779297</ele>
        <time>2026-01-18T08:45:26.000Z</time>
      </trkpt>
      <trkpt lat="45.277" lon="5.65319">
        <ele>271.20001220703</ele>
        <time>2026-01-18T08:45:33.000Z</time>
      </trkpt>
      <trkpt lat="45.27692" lon="5.65324">
        <ele>271.60000610352</ele>
        <time>2026-01-18T08:45:39.000Z</time>
      </trkpt>
      <trkpt lat="45.27686" lon="5.65328">
        <ele>271.79998779297</ele>
        <time>2026-01-18T08:45:44.000Z</time>
      </trkpt>
      <trkpt lat="45.27678" lon="5.65329">
        <ele>272.60000610352</ele>
        <time>2026-01-18T08:45:52.000Z</time>
      </trkpt>
      <trkpt lat="45.27677" lon="5.6533">
        <ele>272.60000610352</ele>
        <time>2026-01-18T08:45:53.000Z</time>
      </trkpt>
      <trkpt lat="45.27672" lon="5.65335">
        <ele>273.60000610352</ele>
        <time>2026-01-18T08:46:00.000Z</time>
      </trkpt>
      <trkpt lat="45.27672" lon="5.65335">
        <ele>273.60000610352</ele>
        <time>2026-01-18T08:46:01.000Z</time>
      </trkpt>
      <trkpt lat="45.2767" lon="5.65341">
        <ele>274.39999389648</ele>
        <time>2026-01-18T08:46:06.000Z</time>
      </trkpt>
      <trkpt lat="45.27668" lon="5.65344">
        <ele>274.79998779297</ele>
        <time>2026-01-18T08:46:08.000Z</time>
      </trkpt>
      <trkpt lat="45.27667" lon="5.65348">
        <ele>275.39999389648</ele>
        <time>2026-01-18T08:46:12.000Z</time>
      </trkpt>
      <trkpt lat="45.27667" lon="5.6535">
        <ele>276</ele>
        <time>2026-01-18T08:46:15.000Z</time>
      </trkpt>
      <trkpt lat="45.27668" lon="5.65355">
        <ele>276.79998779297</ele>
        <time>2026-01-18T08:46:19.000Z</time>
      </trkpt>
      <trkpt lat="45.27667" lon="5.65357">
        <ele>277.39999389648</ele>
        <time>2026-01-18T08:46:21.000Z</time>
      </trkpt>
      <trkpt lat="45.27666" lon="5.6536">
        <ele>278.39999389648</ele>
        <time>2026-01-18T08:46:26.000Z</time>
      </trkpt>
      <trkpt lat="45.27666" lon="5.65366">
        <ele>279.39999389648</ele>
        <time>2026-01-18T08:46:31.000Z</time>
      </trkpt>
      <trkpt lat="45.27665" lon="5.65367">
        <ele>279.39999389648</ele>
        <time>2026-01-18T08:46:32.000Z</time>
      </trkpt>
      <trkpt lat="45.27665" lon="5.65371">
        <ele>280</ele>
        <time>2026-01-18T08:46:35.000Z</time>
      </trkpt>
      <trkpt lat="45.27665" lon="5.65374">
        <ele>280.20001220703</ele>
        <time>2026-01-18T08:46:37.000Z</time>
      </trkpt>
      <trkpt lat="45.27664" lon="5.65385">
        <ele>280.60000610352</ele>
        <time>2026-01-18T08:46:43.000Z</time>
      </trkpt>
      <trkpt lat="45.27662" lon="5.65391">
        <ele>281</ele>
        <time>2026-01-18T08:46:48.000Z</time>
      </trkpt>
      <trkpt lat="45.27662" lon="5.65393">
        <ele>281.20001220703</ele>
        <time>2026-01-18T08:46:50.000Z</time>
      </trkpt>
      <trkpt lat="45.27663" lon="5.65398">
        <ele>281.60000610352</ele>
        <time>2026-01-18T08:46:53.000Z</time>
      </trkpt>
      <trkpt lat="45.27662" lon="5.65403">
        <ele>282.20001220703</ele>
        <time>2026-01-18T08:46:57.000Z</time>
      </trkpt>
      <trkpt lat="45.27663" lon="5.6541">
        <ele>282.60000610352</ele>
        <time>2026-01-18T08:47:02.000Z</time>
      </trkpt>
      <trkpt lat="45.27662" lon="5.65416">
        <ele>283</ele>
        <time>2026-01-18T08:47:05.000Z</time>
      </trkpt>
      <trkpt lat="45.27663" lon="5.65418">
        <ele>283.39999389648</ele>
        <time>2026-01-18T08:47:07.000Z</time>
      </trkpt>
      <trkpt lat="45.27663" lon="5.6542">
        <ele>283.79998779297</ele>
        <time>2026-01-18T08:47:10.000Z</time>
      </trkpt>
      <trkpt lat="45.27663" lon="5.65423">
        <ele>284.20001220703</ele>
        <time>2026-01-18T08:47:12.000Z</time>
      </trkpt>
      <trkpt lat="45.27664" lon="5.65424">
        <ele>284.39999389648</ele>
        <time>2026-01-18T08:47:14.000Z</time>
      </trkpt>
      <trkpt lat="45.27665" lon="5.65425">
        <ele>284.79998779297</ele>
        <time>2026-01-18T08:47:16.000Z</time>
      </trkpt>
      <trkpt lat="45.27666" lon="5.65425">
        <ele>285.60000610352</ele>
        <time>2026-01-18T08:47:20.000Z</time>
      </trkpt>
      <trkpt lat="45.27667" lon="5.65425">
        <ele>285.60000610352</ele>
        <time>2026-01-18T08:47:21.000Z</time>
      </trkpt>
      <trkpt lat="45.27667" lon="5.65425">
        <ele>285.79998779297</ele>
        <time>2026-01-18T08:47:22.000Z</time>
      </trkpt>
      <trkpt lat="45.27667" lon="5.65425">
        <ele>285.79998779297</ele>
        <time>2026-01-18T08:47:23.000Z</time>
      </trkpt>
      <trkpt lat="45.27668" lon="5.65425">
        <ele>285.79998779297</ele>
        <time>2026-01-18T08:47:24.000Z</time>
      </trkpt>
      <trkpt lat="45.2767" lon="5.65423">
        <ele>286.20001220703</ele>
        <time>2026-01-18T08:47:31.000Z</time>
      </trkpt>
      <trkpt lat="45.27672" lon="5.65419">
        <ele>287</ele>
        <time>2026-01-18T08:47:37.000Z</time>
      </trkpt>
      <trkpt lat="45.27675" lon="5.65417">
        <ele>288</ele>
        <time>2026-01-18T08:47:43.000Z</time>
      </trkpt>
      <trkpt lat="45.27676" lon="5.65417">
        <ele>288.39999389648</ele>
        <time>2026-01-18T08:47:45.000Z</time>
      </trkpt>
      <trkpt lat="45.27677" lon="5.65415">
        <ele>289.20001220703</ele>
        <time>2026-01-18T08:47:49.000Z</time>
      </trkpt>
      <trkpt lat="45.27677" lon="5.65414">
        <ele>289.39999389648</ele>
        <time>2026-01-18T08:47:50.000Z</time>
      </trkpt>
      <trkpt lat="45.27679" lon="5.65411">
        <ele>290</ele>
        <time>2026-01-18T08:47:54.000Z</time>
      </trkpt>
      <trkpt lat="45.2768" lon="5.65411">
        <ele>290.20001220703</ele>
        <time>2026-01-18T08:47:55.000Z</time>
      </trkpt>
      <trkpt lat="45.2768" lon="5.65411">
        <ele>290.39999389648</ele>
        <time>2026-01-18T08:47:56.000Z</time>
      </trkpt>
      <trkpt lat="45.27682" lon="5.65409">
        <ele>291.20001220703</ele>
        <time>2026-01-18T08:48:00.000Z</time>
      </trkpt>
      <trkpt lat="45.27683" lon="5.65409">
        <ele>291.39999389648</ele>
        <time>2026-01-18T08:48:01.000Z</time>
      </trkpt>
      <trkpt lat="45.27686" lon="5.65408">
        <ele>292.39999389648</ele>
        <time>2026-01-18T08:48:06.000Z</time>
      </trkpt>
      <trkpt lat="45.2769" lon="5.65406">
        <ele>293.39999389648</ele>
        <time>2026-01-18T08:48:12.000Z</time>
      </trkpt>
      <trkpt lat="45.27692" lon="5.65405">
        <ele>294</ele>
        <time>2026-01-18T08:48:15.000Z</time>
      </trkpt>
      <trkpt lat="45.27694" lon="5.65405">
        <ele>294.60000610352</ele>
        <time>2026-01-18T08:48:19.000Z</time>
      </trkpt>
      <trkpt lat="45.27697" lon="5.65404">
        <ele>295</ele>
        <time>2026-01-18T08:48:23.000Z</time>
      </trkpt>
      <trkpt lat="45.27699" lon="5.65402">
        <ele>295.60000610352</ele>
        <time>2026-01-18T08:48:29.000Z</time>
      </trkpt>
      <trkpt lat="45.27702" lon="5.654">
        <ele>296.20001220703</ele>
        <time>2026-01-18T08:48:32.000Z</time>
      </trkpt>
      <trkpt lat="45.27704" lon="5.654">
        <ele>296.79998779297</ele>
        <time>2026-01-18T08:48:35.000Z</time>
      </trkpt>
      <trkpt lat="45.27711" lon="5.65398">
        <ele>298</ele>
        <time>2026-01-18T08:48:41.000Z</time>
      </trkpt>
      <trkpt lat="45.27714" lon="5.65396">
        <ele>299</ele>
        <time>2026-01-18T08:48:46.000Z</time>
      </trkpt>
      <trkpt lat="45.27714" lon="5.65395">
        <ele>299.20001220703</ele>
        <time>2026-01-18T08:48:47.000Z</time>
      </trkpt>
      <trkpt lat="45.27718" lon="5.65392">
        <ele>300.20001220703</ele>
        <time>2026-01-18T08:48:53.000Z</time>
      </trkpt>
      <trkpt lat="45.27723" lon="5.65386">
        <ele>301.39999389648</ele>
        <time>2026-01-18T08:49:00.000Z</time>
      </trkpt>
      <trkpt lat="45.27729" lon="5.65383">
        <ele>302.39999389648</ele>
        <time>2026-01-18T08:49:07.000Z</time>
      </trkpt>
      <trkpt lat="45.27734" lon="5.65378">
        <ele>303</ele>
        <time>2026-01-18T08:49:13.000Z</time>
      </trkpt>
      <trkpt lat="45.27735" lon="5.65377">
        <ele>303</ele>
        <time>2026-01-18T08:49:14.000Z</time>
      </trkpt>
      <trkpt lat="45.27738" lon="5.65376">
        <ele>303.39999389648</ele>
        <time>2026-01-18T08:49:17.000Z</time>
      </trkpt>
      <trkpt lat="45.27741" lon="5.65373">
        <ele>303.79998779297</ele>
        <time>2026-01-18T08:49:20.000Z</time>
      </trkpt>
      <trkpt lat="45.27741" lon="5.65373">
        <ele>303.79998779297</ele>
        <time>2026-01-18T08:49:21.000Z</time>
      </trkpt>
      <trkpt lat="45.27744" lon="5.65369">
        <ele>304.20001220703</ele>
        <time>2026-01-18T08:49:27.000Z</time>
      </trkpt>
      <trkpt lat="45.27745" lon="5.65368">
        <ele>304.20001220703</ele>
        <time>2026-01-18T08:49:28.000Z</time>
      </trkpt>
      <trkpt lat="45.2775" lon="5.65364">
        <ele>304.20001220703</ele>
        <time>2026-01-18T08:49:33.000Z</time>
      </trkpt>
      <trkpt lat="45.27752" lon="5.65362">
        <ele>304.39999389648</ele>
        <time>2026-01-18T08:49:36.000Z</time>
      </trkpt>
      <trkpt lat="45.27757" lon="5.6536">
        <ele>304.79998779297</ele>
        <time>2026-01-18T08:49:41.000Z</time>
      </trkpt>
      <trkpt lat="45.27763" lon="5.65355">
        <ele>305.20001220703</ele>
        <time>2026-01-18T08:49:47.000Z</time>
      </trkpt>
      <trkpt lat="45.27767" lon="5.65353">
        <ele>305.60000610352</ele>
        <time>2026-01-18T08:49:52.000Z</time>
      </trkpt>
      <trkpt lat="45.27768" lon="5.65352">
        <ele>306.20001220703</ele>
        <time>2026-01-18T08:49:54.000Z</time>
      </trkpt>
      <trkpt lat="45.27771" lon="5.65351">
        <ele>306.60000610352</ele>
        <time>2026-01-18T08:49:57.000Z</time>
      </trkpt>
      <trkpt lat="45.27774" lon="5.65349">
        <ele>307.60000610352</ele>
        <time>2026-01-18T08:50:01.000Z</time>
      </trkpt>
      <trkpt lat="45.27775" lon="5.65349">
        <ele>307.79998779297</ele>
        <time>2026-01-18T08:50:02.000Z</time>
      </trkpt>
      <trkpt lat="45.27777" lon="5.65349">
        <ele>307.79998779297</ele>
        <time>2026-01-18T08:50:03.000Z</time>
      </trkpt>
      <trkpt lat="45.27781" lon="5.65348">
        <ele>308.39999389648</ele>
        <time>2026-01-18T08:50:07.000Z</time>
      </trkpt>
      <trkpt lat="45.27782" lon="5.65348">
        <ele>308.60000610352</ele>
        <time>2026-01-18T08:50:08.000Z</time>
      </trkpt>
      <trkpt lat="45.27783" lon="5.65348">
        <ele>308.79998779297</ele>
        <time>2026-01-18T08:50:09.000Z</time>
      </trkpt>
      <trkpt lat="45.27789" lon="5.65348">
        <ele>309.60000610352</ele>
        <time>2026-01-18T08:50:15.000Z</time>
      </trkpt>
      <trkpt lat="45.27789" lon="5.65348">
        <ele>309.79998779297</ele>
        <time>2026-01-18T08:50:16.000Z</time>
      </trkpt>
      <trkpt lat="45.27794" lon="5.65346">
        <ele>310.79998779297</ele>
        <time>2026-01-18T08:50:22.000Z</time>
      </trkpt>
      <trkpt lat="45.27795" lon="5.65346">
        <ele>311</ele>
        <time>2026-01-18T08:50:23.000Z</time>
      </trkpt>
      <trkpt lat="45.27798" lon="5.65351">
        <ele>311.79998779297</ele>
        <time>2026-01-18T08:50:28.000Z</time>
      </trkpt>
      <trkpt lat="45.278" lon="5.65355">
        <ele>312.20001220703</ele>
        <time>2026-01-18T08:50:31.000Z</time>
      </trkpt>
      <trkpt lat="45.27799" lon="5.65358">
        <ele>312.79998779297</ele>
        <time>2026-01-18T08:50:34.000Z</time>
      </trkpt>
      <trkpt lat="45.27798" lon="5.6536">
        <ele>313.20001220703</ele>
        <time>2026-01-18T08:50:36.000Z</time>
      </trkpt>
      <trkpt lat="45.27796" lon="5.65362">
        <ele>314.39999389648</ele>
        <time>2026-01-18T08:50:41.000Z</time>
      </trkpt>
      <trkpt lat="45.27794" lon="5.65364">
        <ele>315.60000610352</ele>
        <time>2026-01-18T08:50:46.000Z</time>
      </trkpt>
      <trkpt lat="45.27793" lon="5.65365">
        <ele>316</ele>
        <time>2026-01-18T08:50:48.000Z</time>
      </trkpt>
      <trkpt lat="45.27793" lon="5.65368">
        <ele>316.60000610352</ele>
        <time>2026-01-18T08:50:51.000Z</time>
      </trkpt>
      <trkpt lat="45.27792" lon="5.6537">
        <ele>317.20001220703</ele>
        <time>2026-01-18T08:50:53.000Z</time>
      </trkpt>
      <trkpt lat="45.27792" lon="5.65373">
        <ele>317.79998779297</ele>
        <time>2026-01-18T08:50:56.000Z</time>
      </trkpt>
      <trkpt lat="45.27791" lon="5.65375">
        <ele>318.39999389648</ele>
        <time>2026-01-18T08:50:59.000Z</time>
      </trkpt>
      <trkpt lat="45.27791" lon="5.65376">
        <ele>318.79998779297</ele>
        <time>2026-01-18T08:51:00.000Z</time>
      </trkpt>
      <trkpt lat="45.2779" lon="5.65377">
        <ele>318.79998779297</ele>
        <time>2026-01-18T08:51:01.000Z</time>
      </trkpt>
      <trkpt lat="45.27789" lon="5.6538">
        <ele>319.79998779297</ele>
        <time>2026-01-18T08:51:05.000Z</time>
      </trkpt>
      <trkpt lat="45.27789" lon="5.6538">
        <ele>320</ele>
        <time>2026-01-18T08:51:06.000Z</time>
      </trkpt>
      <trkpt lat="45.27789" lon="5.65386">
        <ele>321</ele>
        <time>2026-01-18T08:51:11.000Z</time>
      </trkpt>
      <trkpt lat="45.27789" lon="5.65386">
        <ele>321.20001220703</ele>
        <time>2026-01-18T08:51:12.000Z</time>
      </trkpt>
      <trkpt lat="45.27789" lon="5.65391">
        <ele>322.20001220703</ele>
        <time>2026-01-18T08:51:16.000Z</time>
      </trkpt>
      <trkpt lat="45.27789" lon="5.65395">
        <ele>322.79998779297</ele>
        <time>2026-01-18T08:51:19.000Z</time>
      </trkpt>
      <trkpt lat="45.27788" lon="5.65396">
        <ele>323.20001220703</ele>
        <time>2026-01-18T08:51:21.000Z</time>
      </trkpt>
      <trkpt lat="45.27788" lon="5.65396">
        <ele>323.39999389648</ele>
        <time>2026-01-18T08:51:22.000Z</time>
      </trkpt>
      <trkpt lat="45.27787" lon="5.65399">
        <ele>323.60000610352</ele>
        <time>2026-01-18T08:51:25.000Z</time>
      </trkpt>
      <trkpt lat="45.27789" lon="5.654">
        <ele>324.39999389648</ele>
        <time>2026-01-18T08:51:30.000Z</time>
      </trkpt>
      <trkpt lat="45.2779" lon="5.654">
        <ele>324.60000610352</ele>
        <time>2026-01-18T08:51:31.000Z</time>
      </trkpt>
      <trkpt lat="45.27794" lon="5.65399">
        <ele>325.39999389648</ele>
        <time>2026-01-18T08:51:37.000Z</time>
      </trkpt>
      <trkpt lat="45.27795" lon="5.65399">
        <ele>325.60000610352</ele>
        <time>2026-01-18T08:51:39.000Z</time>
      </trkpt>
      <trkpt lat="45.27801" lon="5.65399">
        <ele>326.20001220703</ele>
        <time>2026-01-18T08:51:46.000Z</time>
      </trkpt>
      <trkpt lat="45.27802" lon="5.65399">
        <ele>326.39999389648</ele>
        <time>2026-01-18T08:51:48.000Z</time>
      </trkpt>
      <trkpt lat="45.27807" lon="5.65401">
        <ele>327.20001220703</ele>
        <time>2026-01-18T08:51:54.000Z</time>
      </trkpt>
      <trkpt lat="45.27808" lon="5.65401">
        <ele>327.39999389648</ele>
        <time>2026-01-18T08:51:55.000Z</time>
      </trkpt>
      <trkpt lat="45.27814" lon="5.65402">
        <ele>328.39999389648</ele>
        <time>2026-01-18T08:52:02.000Z</time>
      </trkpt>
      <trkpt lat="45.27815" lon="5.65401">
        <ele>328.60000610352</ele>
        <time>2026-01-18T08:52:03.000Z</time>
      </trkpt>
      <trkpt lat="45.27822" lon="5.65404">
        <ele>329.39999389648</ele>
        <time>2026-01-18T08:52:11.000Z</time>
      </trkpt>
      <trkpt lat="45.27823" lon="5.65404">
        <ele>329.79998779297</ele>
        <time>2026-01-18T08:52:13.000Z</time>
      </trkpt>
      <trkpt lat="45.27826" lon="5.65406">
        <ele>330.60000610352</ele>
        <time>2026-01-18T08:52:18.000Z</time>
      </trkpt>
      <trkpt lat="45.27828" lon="5.65406">
        <ele>330.79998779297</ele>
        <time>2026-01-18T08:52:20.000Z</time>
      </trkpt>
      <trkpt lat="45.27831" lon="5.65403">
        <ele>331.20001220703</ele>
        <time>2026-01-18T08:52:24.000Z</time>
      </trkpt>
      <trkpt lat="45.27836" lon="5.65403">
        <ele>331.79998779297</ele>
        <time>2026-01-18T08:52:29.000Z</time>
      </trkpt>
      <trkpt lat="45.27839" lon="5.65403">
        <ele>332.39999389648</ele>
        <time>2026-01-18T08:52:32.000Z</time>
      </trkpt>
      <trkpt lat="45.27842" lon="5.65403">
        <ele>333</ele>
        <time>2026-01-18T08:52:37.000Z</time>
      </trkpt>
      <trkpt lat="45.27844" lon="5.65402">
        <ele>333.39999389648</ele>
        <time>2026-01-18T08:52:39.000Z</time>
      </trkpt>
      <trkpt lat="45.27849" lon="5.65401">
        <ele>334.20001220703</ele>
        <time>2026-01-18T08:52:44.000Z</time>
      </trkpt>
      <trkpt lat="45.2785" lon="5.654">
        <ele>334.20001220703</ele>
        <time>2026-01-18T08:52:45.000Z</time>
      </trkpt>
      <trkpt lat="45.27854" lon="5.65397">
        <ele>335.20001220703</ele>
        <time>2026-01-18T08:52:51.000Z</time>
      </trkpt>
      <trkpt lat="45.27855" lon="5.65396">
        <ele>335.39999389648</ele>
        <time>2026-01-18T08:52:52.000Z</time>
      </trkpt>
      <trkpt lat="45.27858" lon="5.65392">
        <ele>336.39999389648</ele>
        <time>2026-01-18T08:52:58.000Z</time>
      </trkpt>
      <trkpt lat="45.27864" lon="5.6539">
        <ele>337.60000610352</ele>
        <time>2026-01-18T08:53:04.000Z</time>
      </trkpt>
      <trkpt lat="45.27866" lon="5.65389">
        <ele>338</ele>
        <time>2026-01-18T08:53:06.000Z</time>
      </trkpt>
      <trkpt lat="45.27868" lon="5.65388">
        <ele>338</ele>
        <time>2026-01-18T08:53:07.000Z</time>
      </trkpt>
      <trkpt lat="45.27873" lon="5.65387">
        <ele>338</ele>
        <time>2026-01-18T08:53:11.000Z</time>
      </trkpt>
      <trkpt lat="45.27873" lon="5.65387">
        <ele>338</ele>
        <time>2026-01-18T08:53:14.000Z</time>
      </trkpt>
      <trkpt lat="45.27875" lon="5.65391">
        <ele>338.20001220703</ele>
        <time>2026-01-18T08:53:22.000Z</time>
      </trkpt>
      <trkpt lat="45.27876" lon="5.65399">
        <ele>338.39999389648</ele>
        <time>2026-01-18T08:53:28.000Z</time>
      </trkpt>
      <trkpt lat="45.27878" lon="5.65404">
        <ele>338.79998779297</ele>
        <time>2026-01-18T08:53:31.000Z</time>
      </trkpt>
      <trkpt lat="45.27879" lon="5.65411">
        <ele>339.20001220703</ele>
        <time>2026-01-18T08:53:35.000Z</time>
      </trkpt>
      <trkpt lat="45.27881" lon="5.65417">
        <ele>339.79998779297</ele>
        <time>2026-01-18T08:53:38.000Z</time>
      </trkpt>
      <trkpt lat="45.27883" lon="5.65422">
        <ele>340.39999389648</ele>
        <time>2026-01-18T08:53:43.000Z</time>
      </trkpt>
      <trkpt lat="45.27884" lon="5.65423">
        <ele>340.79998779297</ele>
        <time>2026-01-18T08:53:48.000Z</time>
      </trkpt>
      <trkpt lat="45.27884" lon="5.65423">
        <ele>340.79998779297</ele>
        <time>2026-01-18T08:53:50.000Z</time>
      </trkpt>
      <trkpt lat="45.27884" lon="5.65423">
        <ele>340.79998779297</ele>
        <time>2026-01-18T08:53:59.000Z</time>
      </trkpt>
      <trkpt lat="45.27884" lon="5.65424">
        <ele>340.79998779297</ele>
        <time>2026-01-18T08:54:08.000Z</time>
      </trkpt>
      <trkpt lat="45.27884" lon="5.65424">
        <ele>340.79998779297</ele>
        <time>2026-01-18T08:54:09.000Z</time>
      </trkpt>
      <trkpt lat="45.27885" lon="5.65425">
        <ele>341</ele>
        <time>2026-01-18T08:54:17.000Z</time>
      </trkpt>
      <trkpt lat="45.27885" lon="5.65425">
        <ele>341</ele>
        <time>2026-01-18T08:54:23.000Z</time>
      </trkpt>
      <trkpt lat="45.27885" lon="5.65425">
        <ele>340.79998779297</ele>
        <time>2026-01-18T08:54:29.000Z</time>
      </trkpt>
      <trkpt lat="45.27885" lon="5.65425">
        <ele>341.39999389648</ele>
        <time>2026-01-18T08:54:36.000Z</time>
      </trkpt>
      <trkpt lat="45.27887" lon="5.65425">
        <ele>341.60000610352</ele>
        <time>2026-01-18T08:54:51.000Z</time>
      </trkpt>
      <trkpt lat="45.27887" lon="5.65426">
        <ele>341.79998779297</ele>
        <time>2026-01-18T08:54:56.000Z</time>
      </trkpt>
      <trkpt lat="45.27887" lon="5.65426">
        <ele>342</ele>
        <time>2026-01-18T08:55:10.000Z</time>
      </trkpt>
      <trkpt lat="45.27887" lon="5.65426">
        <ele>342</ele>
        <time>2026-01-18T08:55:13.000Z</time>
      </trkpt>
      <trkpt lat="45.27886" lon="5.65427">
        <ele>342.20001220703</ele>
        <time>2026-01-18T08:55:16.000Z</time>
      </trkpt>
      <trkpt lat="45.27886" lon="5.65427">
        <ele>342.20001220703</ele>
        <time>2026-01-18T08:55:17.000Z</time>
      </trkpt>
      <trkpt lat="45.27886" lon="5.65427">
        <ele>342.39999389648</ele>
        <time>2026-01-18T08:55:23.000Z</time>
      </trkpt>
      <trkpt lat="45.27886" lon="5.65427">
        <ele>342.60000610352</ele>
        <time>2026-01-18T08:55:36.000Z</time>
      </trkpt>
      <trkpt lat="45.27886" lon="5.65428">
        <ele>342.60000610352</ele>
        <time>2026-01-18T08:55:38.000Z</time>
      </trkpt>
      <trkpt lat="45.27886" lon="5.65428">
        <ele>342.60000610352</ele>
        <time>2026-01-18T08:55:39.000Z</time>
      </trkpt>
      <trkpt lat="45.27886" lon="5.65428">
        <ele>342.79998779297</ele>
        <time>2026-01-18T08:55:42.000Z</time>
      </trkpt>
      <trkpt lat="45.27886" lon="5.65428">
        <ele>342.79998779297</ele>
        <time>2026-01-18T08:55:44.000Z</time>
      </trkpt>
      <trkpt lat="45.27886" lon="5.65428">
        <ele>342.79998779297</ele>
        <time>2026-01-18T08:55:49.000Z</time>
      </trkpt>
      <trkpt lat="45.27886" lon="5.65435">
        <ele>343.20001220703</ele>
        <time>2026-01-18T08:56:06.000Z</time>
      </trkpt>
      <trkpt lat="45.27883" lon="5.65446">
        <ele>343.60000610352</ele>
        <time>2026-01-18T08:56:12.000Z</time>
      </trkpt>
      <trkpt lat="45.27881" lon="5.65449">
        <ele>343.79998779297</ele>
        <time>2026-01-18T08:56:15.000Z</time>
      </trkpt>
      <trkpt lat="45.2788" lon="5.6545">
        <ele>344</ele>
        <time>2026-01-18T08:56:16.000Z</time>
      </trkpt>
      <trkpt lat="45.27876" lon="5.65454">
        <ele>344.20001220703</ele>
        <time>2026-01-18T08:56:20.000Z</time>
      </trkpt>
      <trkpt lat="45.27874" lon="5.65456">
        <ele>344.60000610352</ele>
        <time>2026-01-18T08:56:22.000Z</time>
      </trkpt>
      <trkpt lat="45.2787" lon="5.65459">
        <ele>345</ele>
        <time>2026-01-18T08:56:26.000Z</time>
      </trkpt>
      <trkpt lat="45.27869" lon="5.65459">
        <ele>345</ele>
        <time>2026-01-18T08:56:27.000Z</time>
      </trkpt>
      <trkpt lat="45.27863" lon="5.65464">
        <ele>346</ele>
        <time>2026-01-18T08:56:34.000Z</time>
      </trkpt>
      <trkpt lat="45.27859" lon="5.65466">
        <ele>347</ele>
        <time>2026-01-18T08:56:40.000Z</time>
      </trkpt>
      <trkpt lat="45.27859" lon="5.65466">
        <ele>347.20001220703</ele>
        <time>2026-01-18T08:56:41.000Z</time>
      </trkpt>
      <trkpt lat="45.27857" lon="5.65468">
        <ele>347.39999389648</ele>
        <time>2026-01-18T08:56:44.000Z</time>
      </trkpt>
      <trkpt lat="45.27856" lon="5.65469">
        <ele>347.60000610352</ele>
        <time>2026-01-18T08:56:46.000Z</time>
      </trkpt>
      <trkpt lat="45.27856" lon="5.65469">
        <ele>347.79998779297</ele>
        <time>2026-01-18T08:56:47.000Z</time>
      </trkpt>
      <trkpt lat="45.27858" lon="5.65467">
        <ele>347.79998779297</ele>
        <time>2026-01-18T08:56:52.000Z</time>
      </trkpt>
      <trkpt lat="45.27863" lon="5.65465">
        <ele>347.20001220703</ele>
        <time>2026-01-18T08:56:58.000Z</time>
      </trkpt>
      <trkpt lat="45.27869" lon="5.65467">
        <ele>347.79998779297</ele>
        <time>2026-01-18T08:57:06.000Z</time>
      </trkpt>
      <trkpt lat="45.27872" lon="5.65467">
        <ele>348</ele>
        <time>2026-01-18T08:57:10.000Z</time>
      </trkpt>
      <trkpt lat="45.27873" lon="5.65467">
        <ele>348</ele>
        <time>2026-01-18T08:57:12.000Z</time>
      </trkpt>
      <trkpt lat="45.27874" lon="5.65466">
        <ele>348.39999389648</ele>
        <time>2026-01-18T08:57:13.000Z</time>
      </trkpt>
      <trkpt lat="45.27875" lon="5.65466">
        <ele>349</ele>
        <time>2026-01-18T08:57:17.000Z</time>
      </trkpt>
      <trkpt lat="45.27876" lon="5.65468">
        <ele>349.39999389648</ele>
        <time>2026-01-18T08:57:19.000Z</time>
      </trkpt>
      <trkpt lat="45.27878" lon="5.65467">
        <ele>350</ele>
        <time>2026-01-18T08:57:22.000Z</time>
      </trkpt>
      <trkpt lat="45.27879" lon="5.65466">
        <ele>350.39999389648</ele>
        <time>2026-01-18T08:57:23.000Z</time>
      </trkpt>
      <trkpt lat="45.2788" lon="5.65465">
        <ele>350.60000610352</ele>
        <time>2026-01-18T08:57:24.000Z</time>
      </trkpt>
      <trkpt lat="45.27883" lon="5.65468">
        <ele>351.39999389648</ele>
        <time>2026-01-18T08:57:30.000Z</time>
      </trkpt>
      <trkpt lat="45.27883" lon="5.65468">
        <ele>351.60000610352</ele>
        <time>2026-01-18T08:57:31.000Z</time>
      </trkpt>
      <trkpt lat="45.27886" lon="5.65471">
        <ele>352.39999389648</ele>
        <time>2026-01-18T08:57:34.000Z</time>
      </trkpt>
      <trkpt lat="45.27889" lon="5.65473">
        <ele>353.39999389648</ele>
        <time>2026-01-18T08:57:39.000Z</time>
      </trkpt>
      <trkpt lat="45.27889" lon="5.65474">
        <ele>353.60000610352</ele>
        <time>2026-01-18T08:57:40.000Z</time>
      </trkpt>
      <trkpt lat="45.2789" lon="5.65475">
        <ele>353.60000610352</ele>
        <time>2026-01-18T08:57:41.000Z</time>
      </trkpt>
      <trkpt lat="45.2789" lon="5.65476">
        <ele>353.79998779297</ele>
        <time>2026-01-18T08:57:42.000Z</time>
      </trkpt>
      <trkpt lat="45.27891" lon="5.65478">
        <ele>354</ele>
        <time>2026-01-18T08:57:43.000Z</time>
      </trkpt>
      <trkpt lat="45.27893" lon="5.65479">
        <ele>354.60000610352</ele>
        <time>2026-01-18T08:57:46.000Z</time>
      </trkpt>
      <trkpt lat="45.27894" lon="5.65479">
        <ele>355</ele>
        <time>2026-01-18T08:57:48.000Z</time>
      </trkpt>
      <trkpt lat="45.27898" lon="5.65477">
        <ele>355.79998779297</ele>
        <time>2026-01-18T08:57:55.000Z</time>
      </trkpt>
      <trkpt lat="45.279" lon="5.65478">
        <ele>356.60000610352</ele>
        <time>2026-01-18T08:58:00.000Z</time>
      </trkpt>
      <trkpt lat="45.27902" lon="5.65479">
        <ele>356.79998779297</ele>
        <time>2026-01-18T08:58:03.000Z</time>
      </trkpt>
      <trkpt lat="45.27903" lon="5.6548">
        <ele>357.39999389648</ele>
        <time>2026-01-18T08:58:07.000Z</time>
      </trkpt>
      <trkpt lat="45.27905" lon="5.65481">
        <ele>358</ele>
        <time>2026-01-18T08:58:10.000Z</time>
      </trkpt>
      <trkpt lat="45.27908" lon="5.65482">
        <ele>358.60000610352</ele>
        <time>2026-01-18T08:58:13.000Z</time>
      </trkpt>
      <trkpt lat="45.27909" lon="5.65483">
        <ele>359</ele>
        <time>2026-01-18T08:58:15.000Z</time>
      </trkpt>
      <trkpt lat="45.2791" lon="5.65489">
        <ele>359.60000610352</ele>
        <time>2026-01-18T08:58:19.000Z</time>
      </trkpt>
      <trkpt lat="45.2791" lon="5.6549">
        <ele>360.20001220703</ele>
        <time>2026-01-18T08:58:22.000Z</time>
      </trkpt>
      <trkpt lat="45.27912" lon="5.6549">
        <ele>360.60000610352</ele>
        <time>2026-01-18T08:58:24.000Z</time>
      </trkpt>
      <trkpt lat="45.27914" lon="5.65492">
        <ele>361.20001220703</ele>
        <time>2026-01-18T08:58:27.000Z</time>
      </trkpt>
      <trkpt lat="45.27912" lon="5.65494">
        <ele>361.79998779297</ele>
        <time>2026-01-18T08:58:30.000Z</time>
      </trkpt>
      <trkpt lat="45.27912" lon="5.65496">
        <ele>362</ele>
        <time>2026-01-18T08:58:32.000Z</time>
      </trkpt>
      <trkpt lat="45.27912" lon="5.65496">
        <ele>362.20001220703</ele>
        <time>2026-01-18T08:58:33.000Z</time>
      </trkpt>
      <trkpt lat="45.27913" lon="5.65497">
        <ele>362.60000610352</ele>
        <time>2026-01-18T08:58:36.000Z</time>
      </trkpt>
      <trkpt lat="45.27915" lon="5.65497">
        <ele>363.20001220703</ele>
        <time>2026-01-18T08:58:39.000Z</time>
      </trkpt>
      <trkpt lat="45.27917" lon="5.65496">
        <ele>363.39999389648</ele>
        <time>2026-01-18T08:58:42.000Z</time>
      </trkpt>
      <trkpt lat="45.2792" lon="5.65497">
        <ele>364</ele>
        <time>2026-01-18T08:58:47.000Z</time>
      </trkpt>
      <trkpt lat="45.27922" lon="5.65497">
        <ele>364.39999389648</ele>
        <time>2026-01-18T08:58:49.000Z</time>
      </trkpt>
      <trkpt lat="45.27922" lon="5.65498">
        <ele>364.79998779297</ele>
        <time>2026-01-18T08:58:51.000Z</time>
      </trkpt>
      <trkpt lat="45.27923" lon="5.65499">
        <ele>365.39999389648</ele>
        <time>2026-01-18T08:58:54.000Z</time>
      </trkpt>
      <trkpt lat="45.27924" lon="5.65501">
        <ele>366</ele>
        <time>2026-01-18T08:58:57.000Z</time>
      </trkpt>
      <trkpt lat="45.27924" lon="5.65501">
        <ele>366.39999389648</ele>
        <time>2026-01-18T08:58:59.000Z</time>
      </trkpt>
      <trkpt lat="45.27925" lon="5.65502">
        <ele>367</ele>
        <time>2026-01-18T08:59:02.000Z</time>
      </trkpt>
      <trkpt lat="45.27925" lon="5.65503">
        <ele>367.60000610352</ele>
        <time>2026-01-18T08:59:05.000Z</time>
      </trkpt>
      <trkpt lat="45.27926" lon="5.65503">
        <ele>367.79998779297</ele>
        <time>2026-01-18T08:59:06.000Z</time>
      </trkpt>
      <trkpt lat="45.27926" lon="5.65503">
        <ele>368</ele>
        <time>2026-01-18T08:59:07.000Z</time>
      </trkpt>
      <trkpt lat="45.27927" lon="5.65503">
        <ele>368.60000610352</ele>
        <time>2026-01-18T08:59:10.000Z</time>
      </trkpt>
      <trkpt lat="45.27928" lon="5.65503">
        <ele>369</ele>
        <time>2026-01-18T08:59:12.000Z</time>
      </trkpt>
      <trkpt lat="45.27932" lon="5.65506">
        <ele>369.79998779297</ele>
        <time>2026-01-18T08:59:18.000Z</time>
      </trkpt>
      <trkpt lat="45.27935" lon="5.65507">
        <ele>370.20001220703</ele>
        <time>2026-01-18T08:59:21.000Z</time>
      </trkpt>
      <trkpt lat="45.27938" lon="5.65505">
        <ele>370.20001220703</ele>
        <time>2026-01-18T08:59:26.000Z</time>
      </trkpt>
      <trkpt lat="45.27941" lon="5.65505">
        <ele>370</ele>
        <time>2026-01-18T08:59:32.000Z</time>
      </trkpt>
      <trkpt lat="45.27944" lon="5.65507">
        <ele>370.79998779297</ele>
        <time>2026-01-18T08:59:37.000Z</time>
      </trkpt>
      <trkpt lat="45.27944" lon="5.65507">
        <ele>371</ele>
        <time>2026-01-18T08:59:38.000Z</time>
      </trkpt>
      <trkpt lat="45.27946" lon="5.65509">
        <ele>371.79998779297</ele>
        <time>2026-01-18T08:59:42.000Z</time>
      </trkpt>
      <trkpt lat="45.27947" lon="5.65509">
        <ele>372.20001220703</ele>
        <time>2026-01-18T08:59:44.000Z</time>
      </trkpt>
      <trkpt lat="45.27949" lon="5.65511">
        <ele>373</ele>
        <time>2026-01-18T08:59:49.000Z</time>
      </trkpt>
      <trkpt lat="45.27949" lon="5.65513">
        <ele>373.20001220703</ele>
        <time>2026-01-18T08:59:51.000Z</time>
      </trkpt>
      <trkpt lat="45.2795" lon="5.65517">
        <ele>374</ele>
        <time>2026-01-18T08:59:55.000Z</time>
      </trkpt>
      <trkpt lat="45.27951" lon="5.65518">
        <ele>374.39999389648</ele>
        <time>2026-01-18T08:59:57.000Z</time>
      </trkpt>
      <trkpt lat="45.27951" lon="5.65518">
        <ele>374.60000610352</ele>
        <time>2026-01-18T08:59:58.000Z</time>
      </trkpt>
      <trkpt lat="45.27951" lon="5.65519">
        <ele>375</ele>
        <time>2026-01-18T09:00:00.000Z</time>
      </trkpt>
      <trkpt lat="45.27952" lon="5.65523">
        <ele>376.20001220703</ele>
        <time>2026-01-18T09:00:05.000Z</time>
      </trkpt>
      <trkpt lat="45.27955" lon="5.65525">
        <ele>377</ele>
        <time>2026-01-18T09:00:09.000Z</time>
      </trkpt>
      <trkpt lat="45.27956" lon="5.65525">
        <ele>377.20001220703</ele>
        <time>2026-01-18T09:00:11.000Z</time>
      </trkpt>
      <trkpt lat="45.27957" lon="5.65526">
        <ele>377.39999389648</ele>
        <time>2026-01-18T09:00:13.000Z</time>
      </trkpt>
      <trkpt lat="45.2796" lon="5.65527">
        <ele>378.20001220703</ele>
        <time>2026-01-18T09:00:19.000Z</time>
      </trkpt>
      <trkpt lat="45.27961" lon="5.65528">
        <ele>378.39999389648</ele>
        <time>2026-01-18T09:00:20.000Z</time>
      </trkpt>
      <trkpt lat="45.27966" lon="5.65531">
        <ele>379.39999389648</ele>
        <time>2026-01-18T09:00:27.000Z</time>
      </trkpt>
      <trkpt lat="45.27966" lon="5.65532">
        <ele>379.39999389648</ele>
        <time>2026-01-18T09:00:28.000Z</time>
      </trkpt>
      <trkpt lat="45.27968" lon="5.65534">
        <ele>380</ele>
        <time>2026-01-18T09:00:31.000Z</time>
      </trkpt>
      <trkpt lat="45.2797" lon="5.65535">
        <ele>380.39999389648</ele>
        <time>2026-01-18T09:00:34.000Z</time>
      </trkpt>
      <trkpt lat="45.27974" lon="5.6554">
        <ele>381</ele>
        <time>2026-01-18T09:00:40.000Z</time>
      </trkpt>
      <trkpt lat="45.27975" lon="5.65541">
        <ele>381.39999389648</ele>
        <time>2026-01-18T09:00:43.000Z</time>
      </trkpt>
      <trkpt lat="45.27975" lon="5.65541">
        <ele>381.79998779297</ele>
        <time>2026-01-18T09:00:46.000Z</time>
      </trkpt>
      <trkpt lat="45.27975" lon="5.65541">
        <ele>382</ele>
        <time>2026-01-18T09:00:47.000Z</time>
      </trkpt>
      <trkpt lat="45.27976" lon="5.6554">
        <ele>382.60000610352</ele>
        <time>2026-01-18T09:00:50.000Z</time>
      </trkpt>
      <trkpt lat="45.27976" lon="5.6554">
        <ele>383.60000610352</ele>
        <time>2026-01-18T09:00:55.000Z</time>
      </trkpt>
      <trkpt lat="45.27976" lon="5.6554">
        <ele>384.79998779297</ele>
        <time>2026-01-18T09:01:02.000Z</time>
      </trkpt>
      <trkpt lat="45.27977" lon="5.65539">
        <ele>386</ele>
        <time>2026-01-18T09:01:11.000Z</time>
      </trkpt>
      <trkpt lat="45.27979" lon="5.65538">
        <ele>387</ele>
        <time>2026-01-18T09:01:18.000Z</time>
      </trkpt>
      <trkpt lat="45.27979" lon="5.65538">
        <ele>387.20001220703</ele>
        <time>2026-01-18T09:01:20.000Z</time>
      </trkpt>
      <trkpt lat="45.27982" lon="5.65538">
        <ele>388.20001220703</ele>
        <time>2026-01-18T09:01:26.000Z</time>
      </trkpt>
      <trkpt lat="45.27983" lon="5.65538">
        <ele>388.79998779297</ele>
        <time>2026-01-18T09:01:30.000Z</time>
      </trkpt>
      <trkpt lat="45.27985" lon="5.65538">
        <ele>389.20001220703</ele>
        <time>2026-01-18T09:01:32.000Z</time>
      </trkpt>
      <trkpt lat="45.27988" lon="5.65539">
        <ele>390.20001220703</ele>
        <time>2026-01-18T09:01:38.000Z</time>
      </trkpt>
      <trkpt lat="45.2799" lon="5.65543">
        <ele>391</ele>
        <time>2026-01-18T09:01:45.000Z</time>
      </trkpt>
      <trkpt lat="45.27993" lon="5.65546">
        <ele>391.20001220703</ele>
        <time>2026-01-18T09:01:49.000Z</time>
      </trkpt>
      <trkpt lat="45.27996" lon="5.65546">
        <ele>392.39999389648</ele>
        <time>2026-01-18T09:01:54.000Z</time>
      </trkpt>
      <trkpt lat="45.27999" lon="5.65546">
        <ele>393.39999389648</ele>
        <time>2026-01-18T09:02:03.000Z</time>
      </trkpt>
      <trkpt lat="45.28" lon="5.65546">
        <ele>393.60000610352</ele>
        <time>2026-01-18T09:02:04.000Z</time>
      </trkpt>
      <trkpt lat="45.28002" lon="5.65546">
        <ele>394.20001220703</ele>
        <time>2026-01-18T09:02:07.000Z</time>
      </trkpt>
      <trkpt lat="45.28004" lon="5.65546">
        <ele>394.39999389648</ele>
        <time>2026-01-18T09:02:09.000Z</time>
      </trkpt>
      <trkpt lat="45.28007" lon="5.65547">
        <ele>395.39999389648</ele>
        <time>2026-01-18T09:02:14.000Z</time>
      </trkpt>
      <trkpt lat="45.28007" lon="5.65547">
        <ele>395.60000610352</ele>
        <time>2026-01-18T09:02:15.000Z</time>
      </trkpt>
      <trkpt lat="45.28007" lon="5.65548">
        <ele>396.39999389648</ele>
        <time>2026-01-18T09:02:20.000Z</time>
      </trkpt>
      <trkpt lat="45.28008" lon="5.65548">
        <ele>396.79998779297</ele>
        <time>2026-01-18T09:02:22.000Z</time>
      </trkpt>
      <trkpt lat="45.28008" lon="5.65548">
        <ele>396.79998779297</ele>
        <time>2026-01-18T09:02:23.000Z</time>
      </trkpt>
      <trkpt lat="45.28008" lon="5.65547">
        <ele>397</ele>
        <time>2026-01-18T09:02:24.000Z</time>
      </trkpt>
      <trkpt lat="45.28009" lon="5.65547">
        <ele>397.60000610352</ele>
        <time>2026-01-18T09:02:27.000Z</time>
      </trkpt>
      <trkpt lat="45.2801" lon="5.65546">
        <ele>397.79998779297</ele>
        <time>2026-01-18T09:02:28.000Z</time>
      </trkpt>
      <trkpt lat="45.28011" lon="5.65547">
        <ele>398.20001220703</ele>
        <time>2026-01-18T09:02:30.000Z</time>
      </trkpt>
      <trkpt lat="45.28013" lon="5.65548">
        <ele>398.60000610352</ele>
        <time>2026-01-18T09:02:33.000Z</time>
      </trkpt>
      <trkpt lat="45.28014" lon="5.6555">
        <ele>399</ele>
        <time>2026-01-18T09:02:35.000Z</time>
      </trkpt>
      <trkpt lat="45.28014" lon="5.65551">
        <ele>399.79998779297</ele>
        <time>2026-01-18T09:02:40.000Z</time>
      </trkpt>
      <trkpt lat="45.28015" lon="5.65552">
        <ele>400</ele>
        <time>2026-01-18T09:02:41.000Z</time>
      </trkpt>
      <trkpt lat="45.28018" lon="5.65553">
        <ele>401</ele>
        <time>2026-01-18T09:02:45.000Z</time>
      </trkpt>
      <trkpt lat="45.28021" lon="5.65555">
        <ele>401.79998779297</ele>
        <time>2026-01-18T09:02:50.000Z</time>
      </trkpt>
      <trkpt lat="45.28022" lon="5.65556">
        <ele>402</ele>
        <time>2026-01-18T09:02:51.000Z</time>
      </trkpt>
      <trkpt lat="45.2803" lon="5.65566">
        <ele>402.79998779297</ele>
        <time>2026-01-18T09:02:59.000Z</time>
      </trkpt>
      <trkpt lat="45.28033" lon="5.65572">
        <ele>403.20001220703</ele>
        <time>2026-01-18T09:03:04.000Z</time>
      </trkpt>
      <trkpt lat="45.28035" lon="5.65576">
        <ele>403.39999389648</ele>
        <time>2026-01-18T09:03:07.000Z</time>
      </trkpt>
      <trkpt lat="45.28037" lon="5.65579">
        <ele>403.60000610352</ele>
        <time>2026-01-18T09:03:10.000Z</time>
      </trkpt>
      <trkpt lat="45.28041" lon="5.65581">
        <ele>404.20001220703</ele>
        <time>2026-01-18T09:03:15.000Z</time>
      </trkpt>
      <trkpt lat="45.28047" lon="5.65584">
        <ele>404.79998779297</ele>
        <time>2026-01-18T09:03:22.000Z</time>
      </trkpt>
      <trkpt lat="45.28048" lon="5.65585">
        <ele>404.79998779297</ele>
        <time>2026-01-18T09:03:23.000Z</time>
      </trkpt>
      <trkpt lat="45.28051" lon="5.65586">
        <ele>405.39999389648</ele>
        <time>2026-01-18T09:03:26.000Z</time>
      </trkpt>
      <trkpt lat="45.28052" lon="5.65587">
        <ele>405.39999389648</ele>
        <time>2026-01-18T09:03:27.000Z</time>
      </trkpt>
      <trkpt lat="45.28057" lon="5.65588">
        <ele>406.20001220703</ele>
        <time>2026-01-18T09:03:33.000Z</time>
      </trkpt>
      <trkpt lat="45.28057" lon="5.65589">
        <ele>406.39999389648</ele>
        <time>2026-01-18T09:03:34.000Z</time>
      </trkpt>
      <trkpt lat="45.28063" lon="5.65593">
        <ele>407.20001220703</ele>
        <time>2026-01-18T09:03:40.000Z</time>
      </trkpt>
      <trkpt lat="45.28065" lon="5.65595">
        <ele>407.39999389648</ele>
        <time>2026-01-18T09:03:43.000Z</time>
      </trkpt>
      <trkpt lat="45.28067" lon="5.65598">
        <ele>407.79998779297</ele>
        <time>2026-01-18T09:03:46.000Z</time>
      </trkpt>
      <trkpt lat="45.28068" lon="5.65599">
        <ele>408</ele>
        <time>2026-01-18T09:03:47.000Z</time>
      </trkpt>
      <trkpt lat="45.28069" lon="5.65602">
        <ele>408.39999389648</ele>
        <time>2026-01-18T09:03:50.000Z</time>
      </trkpt>
      <trkpt lat="45.28074" lon="5.65607">
        <ele>409.20001220703</ele>
        <time>2026-01-18T09:03:56.000Z</time>
      </trkpt>
      <trkpt lat="45.28075" lon="5.6561">
        <ele>409.39999389648</ele>
        <time>2026-01-18T09:03:59.000Z</time>
      </trkpt>
      <trkpt lat="45.28078" lon="5.65614">
        <ele>410</ele>
        <time>2026-01-18T09:04:03.000Z</time>
      </trkpt>
      <trkpt lat="45.28079" lon="5.65615">
        <ele>410</ele>
        <time>2026-01-18T09:04:04.000Z</time>
      </trkpt>
      <trkpt lat="45.28079" lon="5.65616">
        <ele>410.39999389648</ele>
        <time>2026-01-18T09:04:05.000Z</time>
      </trkpt>
      <trkpt lat="45.28081" lon="5.65618">
        <ele>410.60000610352</ele>
        <time>2026-01-18T09:04:07.000Z</time>
      </trkpt>
      <trkpt lat="45.28084" lon="5.65622">
        <ele>411</ele>
        <time>2026-01-18T09:04:12.000Z</time>
      </trkpt>
      <trkpt lat="45.28087" lon="5.65625">
        <ele>411.60000610352</ele>
        <time>2026-01-18T09:04:16.000Z</time>
      </trkpt>
      <trkpt lat="45.28089" lon="5.65629">
        <ele>412.20001220703</ele>
        <time>2026-01-18T09:04:20.000Z</time>
      </trkpt>
      <trkpt lat="45.28089" lon="5.65631">
        <ele>412.20001220703</ele>
        <time>2026-01-18T09:04:21.000Z</time>
      </trkpt>
      <trkpt lat="45.2809" lon="5.65632">
        <ele>412.39999389648</ele>
        <time>2026-01-18T09:04:22.000Z</time>
      </trkpt>
      <trkpt lat="45.28091" lon="5.65633">
        <ele>412.60000610352</ele>
        <time>2026-01-18T09:04:23.000Z</time>
      </trkpt>
      <trkpt lat="45.28091" lon="5.65633">
        <ele>412.60000610352</ele>
        <time>2026-01-18T09:04:24.000Z</time>
      </trkpt>
      <trkpt lat="45.28092" lon="5.65635">
        <ele>413</ele>
        <time>2026-01-18T09:04:26.000Z</time>
      </trkpt>
      <trkpt lat="45.28093" lon="5.65636">
        <ele>413</ele>
        <time>2026-01-18T09:04:27.000Z</time>
      </trkpt>
      <trkpt lat="45.28094" lon="5.65639">
        <ele>413.20001220703</ele>
        <time>2026-01-18T09:04:29.000Z</time>
      </trkpt>
      <trkpt lat="45.28095" lon="5.65642">
        <ele>413.60000610352</ele>
        <time>2026-01-18T09:04:32.000Z</time>
      </trkpt>
      <trkpt lat="45.28096" lon="5.65645">
        <ele>413.79998779297</ele>
        <time>2026-01-18T09:04:34.000Z</time>
      </trkpt>
      <trkpt lat="45.281" lon="5.6565">
        <ele>414.39999389648</ele>
        <time>2026-01-18T09:04:39.000Z</time>
      </trkpt>
      <trkpt lat="45.28101" lon="5.65651">
        <ele>414.60000610352</ele>
        <time>2026-01-18T09:04:41.000Z</time>
      </trkpt>
      <trkpt lat="45.28103" lon="5.65653">
        <ele>415</ele>
        <time>2026-01-18T09:04:43.000Z</time>
      </trkpt>
      <trkpt lat="45.28106" lon="5.65658">
        <ele>415.60000610352</ele>
        <time>2026-01-18T09:04:49.000Z</time>
      </trkpt>
      <trkpt lat="45.28108" lon="5.65661">
        <ele>416</ele>
        <time>2026-01-18T09:04:52.000Z</time>
      </trkpt>
      <trkpt lat="45.28115" lon="5.65669">
        <ele>416.79998779297</ele>
        <time>2026-01-18T09:05:00.000Z</time>
      </trkpt>
      <trkpt lat="45.28116" lon="5.65671">
        <ele>416.79998779297</ele>
        <time>2026-01-18T09:05:02.000Z</time>
      </trkpt>
      <trkpt lat="45.28122" lon="5.65675">
        <ele>417.79998779297</ele>
        <time>2026-01-18T09:05:08.000Z</time>
      </trkpt>
      <trkpt lat="45.28124" lon="5.65677">
        <ele>418.20001220703</ele>
        <time>2026-01-18T09:05:10.000Z</time>
      </trkpt>
      <trkpt lat="45.28127" lon="5.65683">
        <ele>419</ele>
        <time>2026-01-18T09:05:16.000Z</time>
      </trkpt>
      <trkpt lat="45.28128" lon="5.65687">
        <ele>419.20001220703</ele>
        <time>2026-01-18T09:05:19.000Z</time>
      </trkpt>
      <trkpt lat="45.28132" lon="5.65694">
        <ele>420.20001220703</ele>
        <time>2026-01-18T09:05:25.000Z</time>
      </trkpt>
      <trkpt lat="45.28133" lon="5.65697">
        <ele>420.39999389648</ele>
        <time>2026-01-18T09:05:28.000Z</time>
      </trkpt>
      <trkpt lat="45.28136" lon="5.65704">
        <ele>421.20001220703</ele>
        <time>2026-01-18T09:05:33.000Z</time>
      </trkpt>
      <trkpt lat="45.28136" lon="5.6571">
        <ele>421.79998779297</ele>
        <time>2026-01-18T09:05:38.000Z</time>
      </trkpt>
      <trkpt lat="45.28138" lon="5.65717">
        <ele>422.39999389648</ele>
        <time>2026-01-18T09:05:43.000Z</time>
      </trkpt>
      <trkpt lat="45.28138" lon="5.65725">
        <ele>423</ele>
        <time>2026-01-18T09:05:49.000Z</time>
      </trkpt>
      <trkpt lat="45.28138" lon="5.65731">
        <ele>423.39999389648</ele>
        <time>2026-01-18T09:05:53.000Z</time>
      </trkpt>
      <trkpt lat="45.28138" lon="5.65734">
        <ele>423.60000610352</ele>
        <time>2026-01-18T09:05:55.000Z</time>
      </trkpt>
      <trkpt lat="45.28139" lon="5.65738">
        <ele>424</ele>
        <time>2026-01-18T09:05:58.000Z</time>
      </trkpt>
      <trkpt lat="45.28142" lon="5.65746">
        <ele>424.60000610352</ele>
        <time>2026-01-18T09:06:04.000Z</time>
      </trkpt>
      <trkpt lat="45.28143" lon="5.65752">
        <ele>425</ele>
        <time>2026-01-18T09:06:08.000Z</time>
      </trkpt>
      <trkpt lat="45.28143" lon="5.65753">
        <ele>425.20001220703</ele>
        <time>2026-01-18T09:06:09.000Z</time>
      </trkpt>
      <trkpt lat="45.28145" lon="5.65758">
        <ele>425.60000610352</ele>
        <time>2026-01-18T09:06:13.000Z</time>
      </trkpt>
      <trkpt lat="45.28146" lon="5.6576">
        <ele>425.79998779297</ele>
        <time>2026-01-18T09:06:15.000Z</time>
      </trkpt>
      <trkpt lat="45.28147" lon="5.65763">
        <ele>426</ele>
        <time>2026-01-18T09:06:17.000Z</time>
      </trkpt>
      <trkpt lat="45.28147" lon="5.65764">
        <ele>426</ele>
        <time>2026-01-18T09:06:18.000Z</time>
      </trkpt>
      <trkpt lat="45.28153" lon="5.6577">
        <ele>426.20001220703</ele>
        <time>2026-01-18T09:06:24.000Z</time>
      </trkpt>
      <trkpt lat="45.28154" lon="5.65772">
        <ele>426.20001220703</ele>
        <time>2026-01-18T09:06:26.000Z</time>
      </trkpt>
      <trkpt lat="45.28163" lon="5.65781">
        <ele>426.60000610352</ele>
        <time>2026-01-18T09:06:35.000Z</time>
      </trkpt>
      <trkpt lat="45.2817" lon="5.65791">
        <ele>427</ele>
        <time>2026-01-18T09:06:44.000Z</time>
      </trkpt>
      <trkpt lat="45.28178" lon="5.65797">
        <ele>427.60000610352</ele>
        <time>2026-01-18T09:06:52.000Z</time>
      </trkpt>
      <trkpt lat="45.28184" lon="5.65806">
        <ele>428</ele>
        <time>2026-01-18T09:07:00.000Z</time>
      </trkpt>
      <trkpt lat="45.28193" lon="5.65818">
        <ele>428.39999389648</ele>
        <time>2026-01-18T09:07:10.000Z</time>
      </trkpt>
      <trkpt lat="45.282" lon="5.65825">
        <ele>428.79998779297</ele>
        <time>2026-01-18T09:07:16.000Z</time>
      </trkpt>
      <trkpt lat="45.282" lon="5.65826">
        <ele>428.79998779297</ele>
        <time>2026-01-18T09:07:17.000Z</time>
      </trkpt>
      <trkpt lat="45.28207" lon="5.65837">
        <ele>429</ele>
        <time>2026-01-18T09:07:26.000Z</time>
      </trkpt>
      <trkpt lat="45.28208" lon="5.65838">
        <ele>429</ele>
        <time>2026-01-18T09:07:27.000Z</time>
      </trkpt>
      <trkpt lat="45.28212" lon="5.65844">
        <ele>429.20001220703</ele>
        <time>2026-01-18T09:07:32.000Z</time>
      </trkpt>
      <trkpt lat="45.28216" lon="5.65855">
        <ele>429.79998779297</ele>
        <time>2026-01-18T09:07:39.000Z</time>
      </trkpt>
      <trkpt lat="45.28222" lon="5.65866">
        <ele>430</ele>
        <time>2026-01-18T09:07:47.000Z</time>
      </trkpt>
      <trkpt lat="45.28228" lon="5.65878">
        <ele>430.79998779297</ele>
        <time>2026-01-18T09:07:56.000Z</time>
      </trkpt>
      <trkpt lat="45.28228" lon="5.6588">
        <ele>430.79998779297</ele>
        <time>2026-01-18T09:07:57.000Z</time>
      </trkpt>
      <trkpt lat="45.28229" lon="5.65881">
        <ele>430.79998779297</ele>
        <time>2026-01-18T09:07:58.000Z</time>
      </trkpt>
      <trkpt lat="45.28232" lon="5.65888">
        <ele>431</ele>
        <time>2026-01-18T09:08:03.000Z</time>
      </trkpt>
      <trkpt lat="45.28239" lon="5.65897">
        <ele>431.39999389648</ele>
        <time>2026-01-18T09:08:10.000Z</time>
      </trkpt>
      <trkpt lat="45.28244" lon="5.65906">
        <ele>431.79998779297</ele>
        <time>2026-01-18T09:08:17.000Z</time>
      </trkpt>
      <trkpt lat="45.28245" lon="5.65907">
        <ele>431.79998779297</ele>
        <time>2026-01-18T09:08:18.000Z</time>
      </trkpt>
      <trkpt lat="45.28245" lon="5.65909">
        <ele>431.79998779297</ele>
        <time>2026-01-18T09:08:19.000Z</time>
      </trkpt>
      <trkpt lat="45.28247" lon="5.65913">
        <ele>432.20001220703</ele>
        <time>2026-01-18T09:08:22.000Z</time>
      </trkpt>
      <trkpt lat="45.28249" lon="5.65915">
        <ele>432.39999389648</ele>
        <time>2026-01-18T09:08:24.000Z</time>
      </trkpt>
      <trkpt lat="45.28254" lon="5.65922">
        <ele>432.79998779297</ele>
        <time>2026-01-18T09:08:30.000Z</time>
      </trkpt>
      <trkpt lat="45.28256" lon="5.65923">
        <ele>433</ele>
        <time>2026-01-18T09:08:32.000Z</time>
      </trkpt>
      <trkpt lat="45.28262" lon="5.65928">
        <ele>433.79998779297</ele>
        <time>2026-01-18T09:08:38.000Z</time>
      </trkpt>
      <trkpt lat="45.28263" lon="5.65929">
        <ele>434</ele>
        <time>2026-01-18T09:08:39.000Z</time>
      </trkpt>
      <trkpt lat="45.28263" lon="5.6593">
        <ele>434</ele>
        <time>2026-01-18T09:08:40.000Z</time>
      </trkpt>
      <trkpt lat="45.28266" lon="5.65935">
        <ele>434.60000610352</ele>
        <time>2026-01-18T09:08:44.000Z</time>
      </trkpt>
      <trkpt lat="45.28268" lon="5.65936">
        <ele>434.79998779297</ele>
        <time>2026-01-18T09:08:46.000Z</time>
      </trkpt>
      <trkpt lat="45.28269" lon="5.65937">
        <ele>435</ele>
        <time>2026-01-18T09:08:47.000Z</time>
      </trkpt>
      <trkpt lat="45.28272" lon="5.65942">
        <ele>435.60000610352</ele>
        <time>2026-01-18T09:08:52.000Z</time>
      </trkpt>
      <trkpt lat="45.28272" lon="5.65944">
        <ele>435.60000610352</ele>
        <time>2026-01-18T09:08:53.000Z</time>
      </trkpt>
      <trkpt lat="45.28273" lon="5.65948">
        <ele>436</ele>
        <time>2026-01-18T09:08:56.000Z</time>
      </trkpt>
      <trkpt lat="45.28275" lon="5.65951">
        <ele>436.20001220703</ele>
        <time>2026-01-18T09:08:59.000Z</time>
      </trkpt>
      <trkpt lat="45.28276" lon="5.65952">
        <ele>436.39999389648</ele>
        <time>2026-01-18T09:09:00.000Z</time>
      </trkpt>
      <trkpt lat="45.28277" lon="5.65954">
        <ele>436.79998779297</ele>
        <time>2026-01-18T09:09:02.000Z</time>
      </trkpt>
      <trkpt lat="45.28279" lon="5.65957">
        <ele>437.20001220703</ele>
        <time>2026-01-18T09:09:05.000Z</time>
      </trkpt>
      <trkpt lat="45.28279" lon="5.65959">
        <ele>437.20001220703</ele>
        <time>2026-01-18T09:09:06.000Z</time>
      </trkpt>
      <trkpt lat="45.2828" lon="5.65963">
        <ele>437.79998779297</ele>
        <time>2026-01-18T09:09:09.000Z</time>
      </trkpt>
      <trkpt lat="45.28281" lon="5.65964">
        <ele>438</ele>
        <time>2026-01-18T09:09:11.000Z</time>
      </trkpt>
      <trkpt lat="45.28282" lon="5.65966">
        <ele>438.20001220703</ele>
        <time>2026-01-18T09:09:12.000Z</time>
      </trkpt>
      <trkpt lat="45.28283" lon="5.65967">
        <ele>438.20001220703</ele>
        <time>2026-01-18T09:09:13.000Z</time>
      </trkpt>
      <trkpt lat="45.28286" lon="5.65969">
        <ele>438.60000610352</ele>
        <time>2026-01-18T09:09:16.000Z</time>
      </trkpt>
      <trkpt lat="45.28288" lon="5.6597">
        <ele>438.60000610352</ele>
        <time>2026-01-18T09:09:18.000Z</time>
      </trkpt>
      <trkpt lat="45.28292" lon="5.65967">
        <ele>439.20001220703</ele>
        <time>2026-01-18T09:09:23.000Z</time>
      </trkpt>
      <trkpt lat="45.28294" lon="5.65958">
        <ele>439.60000610352</ele>
        <time>2026-01-18T09:09:29.000Z</time>
      </trkpt>
      <trkpt lat="45.28296" lon="5.65953">
        <ele>440.20001220703</ele>
        <time>2026-01-18T09:09:35.000Z</time>
      </trkpt>
      <trkpt lat="45.28297" lon="5.65952">
        <ele>440.39999389648</ele>
        <time>2026-01-18T09:09:36.000Z</time>
      </trkpt>
      <trkpt lat="45.28296" lon="5.65948">
        <ele>440.60000610352</ele>
        <time>2026-01-18T09:09:38.000Z</time>
      </trkpt>
      <trkpt lat="45.28296" lon="5.65944">
        <ele>440.79998779297</ele>
        <time>2026-01-18T09:09:41.000Z</time>
      </trkpt>
      <trkpt lat="45.28295" lon="5.65937">
        <ele>441.39999389648</ele>
        <time>2026-01-18T09:09:46.000Z</time>
      </trkpt>
      <trkpt lat="45.28295" lon="5.65937">
        <ele>441.39999389648</ele>
        <time>2026-01-18T09:09:47.000Z</time>
      </trkpt>
      <trkpt lat="45.28295" lon="5.65935">
        <ele>441.60000610352</ele>
        <time>2026-01-18T09:09:49.000Z</time>
      </trkpt>
      <trkpt lat="45.28294" lon="5.65927">
        <ele>442.20001220703</ele>
        <time>2026-01-18T09:09:55.000Z</time>
      </trkpt>
      <trkpt lat="45.28294" lon="5.65925">
        <ele>442.39999389648</ele>
        <time>2026-01-18T09:09:57.000Z</time>
      </trkpt>
      <trkpt lat="45.28294" lon="5.65922">
        <ele>442.60000610352</ele>
        <time>2026-01-18T09:09:59.000Z</time>
      </trkpt>
      <trkpt lat="45.28292" lon="5.65914">
        <ele>443.39999389648</ele>
        <time>2026-01-18T09:10:05.000Z</time>
      </trkpt>
      <trkpt lat="45.28292" lon="5.6591">
        <ele>444</ele>
        <time>2026-01-18T09:10:09.000Z</time>
      </trkpt>
      <trkpt lat="45.28292" lon="5.65904">
        <ele>444.39999389648</ele>
        <time>2026-01-18T09:10:14.000Z</time>
      </trkpt>
      <trkpt lat="45.28293" lon="5.659">
        <ele>444.79998779297</ele>
        <time>2026-01-18T09:10:17.000Z</time>
      </trkpt>
      <trkpt lat="45.28297" lon="5.65892">
        <ele>445.39999389648</ele>
        <time>2026-01-18T09:10:26.000Z</time>
      </trkpt>
      <trkpt lat="45.28297" lon="5.65891">
        <ele>445.60000610352</ele>
        <time>2026-01-18T09:10:27.000Z</time>
      </trkpt>
      <trkpt lat="45.28299" lon="5.65888">
        <ele>446</ele>
        <time>2026-01-18T09:10:32.000Z</time>
      </trkpt>
      <trkpt lat="45.28301" lon="5.65886">
        <ele>446.20001220703</ele>
        <time>2026-01-18T09:10:42.000Z</time>
      </trkpt>
      <trkpt lat="45.28304" lon="5.65883">
        <ele>446.60000610352</ele>
        <time>2026-01-18T09:10:46.000Z</time>
      </trkpt>
      <trkpt lat="45.28305" lon="5.65882">
        <ele>446.60000610352</ele>
        <time>2026-01-18T09:10:47.000Z</time>
      </trkpt>
      <trkpt lat="45.28306" lon="5.65881">
        <ele>446.79998779297</ele>
        <time>2026-01-18T09:10:48.000Z</time>
      </trkpt>
      <trkpt lat="45.28309" lon="5.65879">
        <ele>447.20001220703</ele>
        <time>2026-01-18T09:10:52.000Z</time>
      </trkpt>
      <trkpt lat="45.28311" lon="5.65876">
        <ele>447.79998779297</ele>
        <time>2026-01-18T09:10:55.000Z</time>
      </trkpt>
      <trkpt lat="45.28318" lon="5.65873">
        <ele>448.79998779297</ele>
        <time>2026-01-18T09:11:03.000Z</time>
      </trkpt>
      <trkpt lat="45.28326" lon="5.65869">
        <ele>450</ele>
        <time>2026-01-18T09:11:11.000Z</time>
      </trkpt>
      <trkpt lat="45.2833" lon="5.65866">
        <ele>450.79998779297</ele>
        <time>2026-01-18T09:11:17.000Z</time>
      </trkpt>
      <trkpt lat="45.28331" lon="5.65866">
        <ele>451</ele>
        <time>2026-01-18T09:11:18.000Z</time>
      </trkpt>
      <trkpt lat="45.28335" lon="5.65863">
        <ele>452</ele>
        <time>2026-01-18T09:11:25.000Z</time>
      </trkpt>
      <trkpt lat="45.28337" lon="5.65862">
        <ele>452.20001220703</ele>
        <time>2026-01-18T09:11:26.000Z</time>
      </trkpt>
      <trkpt lat="45.28342" lon="5.6586">
        <ele>452.79998779297</ele>
        <time>2026-01-18T09:11:30.000Z</time>
      </trkpt>
      <trkpt lat="45.28343" lon="5.65865">
        <ele>453.20001220703</ele>
        <time>2026-01-18T09:11:34.000Z</time>
      </trkpt>
      <trkpt lat="45.28345" lon="5.6587">
        <ele>454</ele>
        <time>2026-01-18T09:11:39.000Z</time>
      </trkpt>
      <trkpt lat="45.28345" lon="5.65872">
        <ele>454.39999389648</ele>
        <time>2026-01-18T09:11:41.000Z</time>
      </trkpt>
      <trkpt lat="45.28345" lon="5.65874">
        <ele>455</ele>
        <time>2026-01-18T09:11:45.000Z</time>
      </trkpt>
      <trkpt lat="45.28344" lon="5.65877">
        <ele>455.60000610352</ele>
        <time>2026-01-18T09:11:48.000Z</time>
      </trkpt>
      <trkpt lat="45.28345" lon="5.65879">
        <ele>456</ele>
        <time>2026-01-18T09:11:51.000Z</time>
      </trkpt>
      <trkpt lat="45.28345" lon="5.65881">
        <ele>456.60000610352</ele>
        <time>2026-01-18T09:11:54.000Z</time>
      </trkpt>
      <trkpt lat="45.28346" lon="5.65882">
        <ele>457.39999389648</ele>
        <time>2026-01-18T09:11:58.000Z</time>
      </trkpt>
      <trkpt lat="45.28347" lon="5.65882">
        <ele>457.60000610352</ele>
        <time>2026-01-18T09:12:00.000Z</time>
      </trkpt>
      <trkpt lat="45.28346" lon="5.65886">
        <ele>458.60000610352</ele>
        <time>2026-01-18T09:12:05.000Z</time>
      </trkpt>
      <trkpt lat="45.28345" lon="5.6589">
        <ele>459.79998779297</ele>
        <time>2026-01-18T09:12:11.000Z</time>
      </trkpt>
      <trkpt lat="45.28345" lon="5.65892">
        <ele>460.20001220703</ele>
        <time>2026-01-18T09:12:14.000Z</time>
      </trkpt>
      <trkpt lat="45.28344" lon="5.65895">
        <ele>461</ele>
        <time>2026-01-18T09:12:17.000Z</time>
      </trkpt>
      <trkpt lat="45.28342" lon="5.65902">
        <ele>462</ele>
        <time>2026-01-18T09:12:23.000Z</time>
      </trkpt>
      <trkpt lat="45.28343" lon="5.65906">
        <ele>463</ele>
        <time>2026-01-18T09:12:29.000Z</time>
      </trkpt>
      <trkpt lat="45.28343" lon="5.65909">
        <ele>464</ele>
        <time>2026-01-18T09:12:35.000Z</time>
      </trkpt>
      <trkpt lat="45.28343" lon="5.6591">
        <ele>464.20001220703</ele>
        <time>2026-01-18T09:12:36.000Z</time>
      </trkpt>
      <trkpt lat="45.28344" lon="5.65914">
        <ele>464.79998779297</ele>
        <time>2026-01-18T09:12:41.000Z</time>
      </trkpt>
      <trkpt lat="45.28344" lon="5.65915">
        <ele>465.39999389648</ele>
        <time>2026-01-18T09:12:44.000Z</time>
      </trkpt>
      <trkpt lat="45.28344" lon="5.65918">
        <ele>465.79998779297</ele>
        <time>2026-01-18T09:12:48.000Z</time>
      </trkpt>
      <trkpt lat="45.28345" lon="5.6592">
        <ele>466.39999389648</ele>
        <time>2026-01-18T09:12:52.000Z</time>
      </trkpt>
      <trkpt lat="45.28345" lon="5.65921">
        <ele>466.39999389648</ele>
        <time>2026-01-18T09:12:54.000Z</time>
      </trkpt>
      <trkpt lat="45.28346" lon="5.65923">
        <ele>467.20001220703</ele>
        <time>2026-01-18T09:12:59.000Z</time>
      </trkpt>
      <trkpt lat="45.28347" lon="5.65924">
        <ele>467.39999389648</ele>
        <time>2026-01-18T09:13:01.000Z</time>
      </trkpt>
      <trkpt lat="45.28346" lon="5.65928">
        <ele>468</ele>
        <time>2026-01-18T09:13:06.000Z</time>
      </trkpt>
      <trkpt lat="45.28347" lon="5.65928">
        <ele>468</ele>
        <time>2026-01-18T09:13:07.000Z</time>
      </trkpt>
      <trkpt lat="45.28348" lon="5.65931">
        <ele>468.39999389648</ele>
        <time>2026-01-18T09:13:11.000Z</time>
      </trkpt>
      <trkpt lat="45.28349" lon="5.65933">
        <ele>468.79998779297</ele>
        <time>2026-01-18T09:13:15.000Z</time>
      </trkpt>
      <trkpt lat="45.28349" lon="5.65933">
        <ele>469</ele>
        <time>2026-01-18T09:13:16.000Z</time>
      </trkpt>
      <trkpt lat="45.28351" lon="5.65936">
        <ele>469.60000610352</ele>
        <time>2026-01-18T09:13:22.000Z</time>
      </trkpt>
      <trkpt lat="45.28352" lon="5.65937">
        <ele>469.79998779297</ele>
        <time>2026-01-18T09:13:25.000Z</time>
      </trkpt>
      <trkpt lat="45.28356" lon="5.6594">
        <ele>470.60000610352</ele>
        <time>2026-01-18T09:13:32.000Z</time>
      </trkpt>
      <trkpt lat="45.28356" lon="5.6594">
        <ele>470.60000610352</ele>
        <time>2026-01-18T09:13:33.000Z</time>
      </trkpt>
      <trkpt lat="45.28361" lon="5.65947">
        <ele>471.60000610352</ele>
        <time>2026-01-18T09:13:40.000Z</time>
      </trkpt>
      <trkpt lat="45.28361" lon="5.65948">
        <ele>471.60000610352</ele>
        <time>2026-01-18T09:13:41.000Z</time>
      </trkpt>
      <trkpt lat="45.28363" lon="5.6595">
        <ele>472.39999389648</ele>
        <time>2026-01-18T09:13:47.000Z</time>
      </trkpt>
      <trkpt lat="45.28365" lon="5.65952">
        <ele>472.60000610352</ele>
        <time>2026-01-18T09:13:50.000Z</time>
      </trkpt>
      <trkpt lat="45.28368" lon="5.65954">
        <ele>473</ele>
        <time>2026-01-18T09:13:53.000Z</time>
      </trkpt>
      <trkpt lat="45.28372" lon="5.65955">
        <ele>473.79998779297</ele>
        <time>2026-01-18T09:14:00.000Z</time>
      </trkpt>
      <trkpt lat="45.28377" lon="5.65959">
        <ele>474.60000610352</ele>
        <time>2026-01-18T09:14:08.000Z</time>
      </trkpt>
      <trkpt lat="45.28379" lon="5.6596">
        <ele>475</ele>
        <time>2026-01-18T09:14:10.000Z</time>
      </trkpt>
      <trkpt lat="45.28381" lon="5.65963">
        <ele>475.39999389648</ele>
        <time>2026-01-18T09:14:14.000Z</time>
      </trkpt>
      <trkpt lat="45.28383" lon="5.65965">
        <ele>476</ele>
        <time>2026-01-18T09:14:19.000Z</time>
      </trkpt>
      <trkpt lat="45.28384" lon="5.65966">
        <ele>476.20001220703</ele>
        <time>2026-01-18T09:14:20.000Z</time>
      </trkpt>
      <trkpt lat="45.28389" lon="5.65968">
        <ele>477.20001220703</ele>
        <time>2026-01-18T09:14:26.000Z</time>
      </trkpt>
      <trkpt lat="45.28391" lon="5.65968">
        <ele>477.39999389648</ele>
        <time>2026-01-18T09:14:28.000Z</time>
      </trkpt>
      <trkpt lat="45.28393" lon="5.65969">
        <ele>478.39999389648</ele>
        <time>2026-01-18T09:14:33.000Z</time>
      </trkpt>
      <trkpt lat="45.28398" lon="5.65972">
        <ele>479.20001220703</ele>
        <time>2026-01-18T09:14:39.000Z</time>
      </trkpt>
      <trkpt lat="45.28398" lon="5.65972">
        <ele>479.39999389648</ele>
        <time>2026-01-18T09:14:40.000Z</time>
      </trkpt>
      <trkpt lat="45.28401" lon="5.65976">
        <ele>480.60000610352</ele>
        <time>2026-01-18T09:14:46.000Z</time>
      </trkpt>
      <trkpt lat="45.28404" lon="5.65981">
        <ele>481.60000610352</ele>
        <time>2026-01-18T09:14:52.000Z</time>
      </trkpt>
      <trkpt lat="45.28406" lon="5.65983">
        <ele>481.79998779297</ele>
        <time>2026-01-18T09:14:54.000Z</time>
      </trkpt>
      <trkpt lat="45.28409" lon="5.65986">
        <ele>482.79998779297</ele>
        <time>2026-01-18T09:15:00.000Z</time>
      </trkpt>
      <trkpt lat="45.28414" lon="5.6599">
        <ele>483.20001220703</ele>
        <time>2026-01-18T09:15:04.000Z</time>
      </trkpt>
      <trkpt lat="45.28415" lon="5.65991">
        <ele>483.60000610352</ele>
        <time>2026-01-18T09:15:06.000Z</time>
      </trkpt>
      <trkpt lat="45.28415" lon="5.65993">
        <ele>483.79998779297</ele>
        <time>2026-01-18T09:15:08.000Z</time>
      </trkpt>
      <trkpt lat="45.28415" lon="5.65993">
        <ele>484.20001220703</ele>
        <time>2026-01-18T09:15:11.000Z</time>
      </trkpt>
      <trkpt lat="45.28418" lon="5.65999">
        <ele>485</ele>
        <time>2026-01-18T09:15:18.000Z</time>
      </trkpt>
      <trkpt lat="45.28421" lon="5.66002">
        <ele>485.79998779297</ele>
        <time>2026-01-18T09:15:23.000Z</time>
      </trkpt>
      <trkpt lat="45.28422" lon="5.66003">
        <ele>486.20001220703</ele>
        <time>2026-01-18T09:15:25.000Z</time>
      </trkpt>
      <trkpt lat="45.28425" lon="5.66006">
        <ele>487</ele>
        <time>2026-01-18T09:15:30.000Z</time>
      </trkpt>
      <trkpt lat="45.28426" lon="5.66007">
        <ele>487.20001220703</ele>
        <time>2026-01-18T09:15:32.000Z</time>
      </trkpt>
      <trkpt lat="45.28428" lon="5.66011">
        <ele>488.20001220703</ele>
        <time>2026-01-18T09:15:37.000Z</time>
      </trkpt>
      <trkpt lat="45.28429" lon="5.66012">
        <ele>488.20001220703</ele>
        <time>2026-01-18T09:15:38.000Z</time>
      </trkpt>
      <trkpt lat="45.28432" lon="5.66016">
        <ele>489.20001220703</ele>
        <time>2026-01-18T09:15:43.000Z</time>
      </trkpt>
      <trkpt lat="45.28432" lon="5.66016">
        <ele>489.39999389648</ele>
        <time>2026-01-18T09:15:44.000Z</time>
      </trkpt>
      <trkpt lat="45.28436" lon="5.66021">
        <ele>490.20001220703</ele>
        <time>2026-01-18T09:15:49.000Z</time>
      </trkpt>
      <trkpt lat="45.28436" lon="5.66022">
        <ele>490.39999389648</ele>
        <time>2026-01-18T09:15:50.000Z</time>
      </trkpt>
      <trkpt lat="45.28439" lon="5.66025">
        <ele>491.20001220703</ele>
        <time>2026-01-18T09:15:55.000Z</time>
      </trkpt>
      <trkpt lat="45.28439" lon="5.66026">
        <ele>491.60000610352</ele>
        <time>2026-01-18T09:15:58.000Z</time>
      </trkpt>
      <trkpt lat="45.2844" lon="5.66028">
        <ele>492</ele>
        <time>2026-01-18T09:16:02.000Z</time>
      </trkpt>
      <trkpt lat="45.28441" lon="5.66029">
        <ele>492.60000610352</ele>
        <time>2026-01-18T09:16:06.000Z</time>
      </trkpt>
      <trkpt lat="45.28443" lon="5.66032">
        <ele>493</ele>
        <time>2026-01-18T09:16:10.000Z</time>
      </trkpt>
      <trkpt lat="45.28444" lon="5.66033">
        <ele>493.60000610352</ele>
        <time>2026-01-18T09:16:13.000Z</time>
      </trkpt>
      <trkpt lat="45.28447" lon="5.66034">
        <ele>494.39999389648</ele>
        <time>2026-01-18T09:16:18.000Z</time>
      </trkpt>
      <trkpt lat="45.28448" lon="5.66036">
        <ele>494.79998779297</ele>
        <time>2026-01-18T09:16:21.000Z</time>
      </trkpt>
      <trkpt lat="45.28449" lon="5.66041">
        <ele>495.60000610352</ele>
        <time>2026-01-18T09:16:26.000Z</time>
      </trkpt>
      <trkpt lat="45.28449" lon="5.66043">
        <ele>495.79998779297</ele>
        <time>2026-01-18T09:16:28.000Z</time>
      </trkpt>
      <trkpt lat="45.28451" lon="5.66046">
        <ele>496.39999389648</ele>
        <time>2026-01-18T09:16:32.000Z</time>
      </trkpt>
      <trkpt lat="45.28454" lon="5.66048">
        <ele>496.79998779297</ele>
        <time>2026-01-18T09:16:35.000Z</time>
      </trkpt>
      <trkpt lat="45.28456" lon="5.66053">
        <ele>497.39999389648</ele>
        <time>2026-01-18T09:16:39.000Z</time>
      </trkpt>
      <trkpt lat="45.28458" lon="5.66054">
        <ele>497.60000610352</ele>
        <time>2026-01-18T09:16:41.000Z</time>
      </trkpt>
      <trkpt lat="45.28459" lon="5.66055">
        <ele>497.79998779297</ele>
        <time>2026-01-18T09:16:43.000Z</time>
      </trkpt>
      <trkpt lat="45.28461" lon="5.66056">
        <ele>498.39999389648</ele>
        <time>2026-01-18T09:16:48.000Z</time>
      </trkpt>
      <trkpt lat="45.28463" lon="5.66059">
        <ele>499</ele>
        <time>2026-01-18T09:16:52.000Z</time>
      </trkpt>
      <trkpt lat="45.28464" lon="5.66061">
        <ele>499.39999389648</ele>
        <time>2026-01-18T09:16:55.000Z</time>
      </trkpt>
      <trkpt lat="45.28466" lon="5.66064">
        <ele>500</ele>
        <time>2026-01-18T09:17:00.000Z</time>
      </trkpt>
      <trkpt lat="45.28467" lon="5.66065">
        <ele>500.39999389648</ele>
        <time>2026-01-18T09:17:03.000Z</time>
      </trkpt>
      <trkpt lat="45.28469" lon="5.66069">
        <ele>501</ele>
        <time>2026-01-18T09:17:08.000Z</time>
      </trkpt>
      <trkpt lat="45.2847" lon="5.6607">
        <ele>501.39999389648</ele>
        <time>2026-01-18T09:17:10.000Z</time>
      </trkpt>
      <trkpt lat="45.28473" lon="5.66073">
        <ele>502.20001220703</ele>
        <time>2026-01-18T09:17:16.000Z</time>
      </trkpt>
      <trkpt lat="45.28474" lon="5.66074">
        <ele>502.39999389648</ele>
        <time>2026-01-18T09:17:17.000Z</time>
      </trkpt>
      <trkpt lat="45.28477" lon="5.66076">
        <ele>503</ele>
        <time>2026-01-18T09:17:22.000Z</time>
      </trkpt>
      <trkpt lat="45.28477" lon="5.66079">
        <ele>503.20001220703</ele>
        <time>2026-01-18T09:17:24.000Z</time>
      </trkpt>
      <trkpt lat="45.28477" lon="5.66079">
        <ele>503.60000610352</ele>
        <time>2026-01-18T09:17:27.000Z</time>
      </trkpt>
      <trkpt lat="45.2848" lon="5.66083">
        <ele>504.20001220703</ele>
        <time>2026-01-18T09:17:33.000Z</time>
      </trkpt>
      <trkpt lat="45.28484" lon="5.66088">
        <ele>505.20001220703</ele>
        <time>2026-01-18T09:17:40.000Z</time>
      </trkpt>
      <trkpt lat="45.28485" lon="5.6609">
        <ele>505.39999389648</ele>
        <time>2026-01-18T09:17:42.000Z</time>
      </trkpt>
      <trkpt lat="45.28487" lon="5.66091">
        <ele>506</ele>
        <time>2026-01-18T09:17:46.000Z</time>
      </trkpt>
      <trkpt lat="45.2849" lon="5.66095">
        <ele>506.39999389648</ele>
        <time>2026-01-18T09:17:51.000Z</time>
      </trkpt>
      <trkpt lat="45.28493" lon="5.66095">
        <ele>506.79998779297</ele>
        <time>2026-01-18T09:17:53.000Z</time>
      </trkpt>
      <trkpt lat="45.28495" lon="5.66102">
        <ele>507.60000610352</ele>
        <time>2026-01-18T09:18:00.000Z</time>
      </trkpt>
      <trkpt lat="45.28498" lon="5.66105">
        <ele>508.20001220703</ele>
        <time>2026-01-18T09:18:06.000Z</time>
      </trkpt>
      <trkpt lat="45.28498" lon="5.66106">
        <ele>508.60000610352</ele>
        <time>2026-01-18T09:18:09.000Z</time>
      </trkpt>
      <trkpt lat="45.285" lon="5.66111">
        <ele>509.20001220703</ele>
        <time>2026-01-18T09:18:14.000Z</time>
      </trkpt>
      <trkpt lat="45.28501" lon="5.66111">
        <ele>509.60000610352</ele>
        <time>2026-01-18T09:18:16.000Z</time>
      </trkpt>
      <trkpt lat="45.28502" lon="5.66112">
        <ele>510</ele>
        <time>2026-01-18T09:18:19.000Z</time>
      </trkpt>
      <trkpt lat="45.28504" lon="5.66116">
        <ele>510.79998779297</ele>
        <time>2026-01-18T09:18:24.000Z</time>
      </trkpt>
      <trkpt lat="45.28507" lon="5.66121">
        <ele>511.39999389648</ele>
        <time>2026-01-18T09:18:30.000Z</time>
      </trkpt>
      <trkpt lat="45.28509" lon="5.66123">
        <ele>512</ele>
        <time>2026-01-18T09:18:33.000Z</time>
      </trkpt>
      <trkpt lat="45.2851" lon="5.66125">
        <ele>512.40002441406</ele>
        <time>2026-01-18T09:18:37.000Z</time>
      </trkpt>
      <trkpt lat="45.28514" lon="5.66126">
        <ele>513</ele>
        <time>2026-01-18T09:18:42.000Z</time>
      </trkpt>
      <trkpt lat="45.28515" lon="5.66132">
        <ele>513.79998779297</ele>
        <time>2026-01-18T09:18:48.000Z</time>
      </trkpt>
      <trkpt lat="45.28517" lon="5.66133">
        <ele>514</ele>
        <time>2026-01-18T09:18:50.000Z</time>
      </trkpt>
      <trkpt lat="45.28518" lon="5.66137">
        <ele>514.59997558594</ele>
        <time>2026-01-18T09:18:54.000Z</time>
      </trkpt>
      <trkpt lat="45.28519" lon="5.6614">
        <ele>515.20001220703</ele>
        <time>2026-01-18T09:18:58.000Z</time>
      </trkpt>
      <trkpt lat="45.28519" lon="5.66142">
        <ele>515.40002441406</ele>
        <time>2026-01-18T09:19:00.000Z</time>
      </trkpt>
      <trkpt lat="45.28523" lon="5.66146">
        <ele>516.20001220703</ele>
        <time>2026-01-18T09:19:05.000Z</time>
      </trkpt>
      <trkpt lat="45.28524" lon="5.66147">
        <ele>516.40002441406</ele>
        <time>2026-01-18T09:19:07.000Z</time>
      </trkpt>
      <trkpt lat="45.2853" lon="5.66145">
        <ele>517.20001220703</ele>
        <time>2026-01-18T09:19:12.000Z</time>
      </trkpt>
      <trkpt lat="45.2853" lon="5.66145">
        <ele>517.40002441406</ele>
        <time>2026-01-18T09:19:14.000Z</time>
      </trkpt>
      <trkpt lat="45.2853" lon="5.66147">
        <ele>517.79998779297</ele>
        <time>2026-01-18T09:19:16.000Z</time>
      </trkpt>
      <trkpt lat="45.28529" lon="5.6615">
        <ele>518.20001220703</ele>
        <time>2026-01-18T09:19:19.000Z</time>
      </trkpt>
      <trkpt lat="45.28531" lon="5.66151">
        <ele>518.79998779297</ele>
        <time>2026-01-18T09:19:22.000Z</time>
      </trkpt>
      <trkpt lat="45.28534" lon="5.66151">
        <ele>519.20001220703</ele>
        <time>2026-01-18T09:19:25.000Z</time>
      </trkpt>
      <trkpt lat="45.28536" lon="5.66153">
        <ele>520</ele>
        <time>2026-01-18T09:19:30.000Z</time>
      </trkpt>
      <trkpt lat="45.28535" lon="5.66154">
        <ele>520.40002441406</ele>
        <time>2026-01-18T09:19:32.000Z</time>
      </trkpt>
      <trkpt lat="45.28536" lon="5.66155">
        <ele>520.59997558594</ele>
        <time>2026-01-18T09:19:34.000Z</time>
      </trkpt>
      <trkpt lat="45.28537" lon="5.66158">
        <ele>521.40002441406</ele>
        <time>2026-01-18T09:19:39.000Z</time>
      </trkpt>
      <trkpt lat="45.28538" lon="5.6616">
        <ele>521.79998779297</ele>
        <time>2026-01-18T09:19:41.000Z</time>
      </trkpt>
      <trkpt lat="45.28538" lon="5.66162">
        <ele>522.40002441406</ele>
        <time>2026-01-18T09:19:45.000Z</time>
      </trkpt>
      <trkpt lat="45.28539" lon="5.66162">
        <ele>522.79998779297</ele>
        <time>2026-01-18T09:19:47.000Z</time>
      </trkpt>
      <trkpt lat="45.2854" lon="5.66165">
        <ele>523.59997558594</ele>
        <time>2026-01-18T09:19:52.000Z</time>
      </trkpt>
      <trkpt lat="45.28541" lon="5.66166">
        <ele>523.79998779297</ele>
        <time>2026-01-18T09:19:54.000Z</time>
      </trkpt>
      <trkpt lat="45.28543" lon="5.66167">
        <ele>524.59997558594</ele>
        <time>2026-01-18T09:19:59.000Z</time>
      </trkpt>
      <trkpt lat="45.28544" lon="5.66167">
        <ele>525</ele>
        <time>2026-01-18T09:20:01.000Z</time>
      </trkpt>
      <trkpt lat="45.28545" lon="5.66168">
        <ele>525.59997558594</ele>
        <time>2026-01-18T09:20:06.000Z</time>
      </trkpt>
      <trkpt lat="45.28545" lon="5.66171">
        <ele>526.40002441406</ele>
        <time>2026-01-18T09:20:12.000Z</time>
      </trkpt>
      <trkpt lat="45.28546" lon="5.66171">
        <ele>526.79998779297</ele>
        <time>2026-01-18T09:20:14.000Z</time>
      </trkpt>
      <trkpt lat="45.28549" lon="5.66171">
        <ele>527.40002441406</ele>
        <time>2026-01-18T09:20:19.000Z</time>
      </trkpt>
      <trkpt lat="45.28551" lon="5.66172">
        <ele>527.79998779297</ele>
        <time>2026-01-18T09:20:23.000Z</time>
      </trkpt>
      <trkpt lat="45.28552" lon="5.66173">
        <ele>528.40002441406</ele>
        <time>2026-01-18T09:20:26.000Z</time>
      </trkpt>
      <trkpt lat="45.28554" lon="5.66174">
        <ele>528.79998779297</ele>
        <time>2026-01-18T09:20:29.000Z</time>
      </trkpt>
      <trkpt lat="45.28556" lon="5.66176">
        <ele>529.40002441406</ele>
        <time>2026-01-18T09:20:33.000Z</time>
      </trkpt>
      <trkpt lat="45.28556" lon="5.66178">
        <ele>530</ele>
        <time>2026-01-18T09:20:37.000Z</time>
      </trkpt>
      <trkpt lat="45.28556" lon="5.66178">
        <ele>530.20001220703</ele>
        <time>2026-01-18T09:20:39.000Z</time>
      </trkpt>
      <trkpt lat="45.28556" lon="5.66183">
        <ele>531</ele>
        <time>2026-01-18T09:20:44.000Z</time>
      </trkpt>
      <trkpt lat="45.28556" lon="5.66183">
        <ele>531.20001220703</ele>
        <time>2026-01-18T09:20:45.000Z</time>
      </trkpt>
      <trkpt lat="45.28557" lon="5.66186">
        <ele>532</ele>
        <time>2026-01-18T09:20:51.000Z</time>
      </trkpt>
      <trkpt lat="45.28557" lon="5.66187">
        <ele>532.20001220703</ele>
        <time>2026-01-18T09:20:52.000Z</time>
      </trkpt>
      <trkpt lat="45.28559" lon="5.6619">
        <ele>533</ele>
        <time>2026-01-18T09:20:57.000Z</time>
      </trkpt>
      <trkpt lat="45.28561" lon="5.66192">
        <ele>534</ele>
        <time>2026-01-18T09:21:03.000Z</time>
      </trkpt>
      <trkpt lat="45.28562" lon="5.66193">
        <ele>534</ele>
        <time>2026-01-18T09:21:05.000Z</time>
      </trkpt>
      <trkpt lat="45.28565" lon="5.66196">
        <ele>534.40002441406</ele>
        <time>2026-01-18T09:21:09.000Z</time>
      </trkpt>
      <trkpt lat="45.28568" lon="5.66199">
        <ele>535</ele>
        <time>2026-01-18T09:21:15.000Z</time>
      </trkpt>
      <trkpt lat="45.28569" lon="5.662">
        <ele>535.20001220703</ele>
        <time>2026-01-18T09:21:16.000Z</time>
      </trkpt>
      <trkpt lat="45.28571" lon="5.66202">
        <ele>535.79998779297</ele>
        <time>2026-01-18T09:21:22.000Z</time>
      </trkpt>
      <trkpt lat="45.28573" lon="5.66203">
        <ele>536.20001220703</ele>
        <time>2026-01-18T09:21:24.000Z</time>
      </trkpt>
      <trkpt lat="45.28574" lon="5.66204">
        <ele>536.59997558594</ele>
        <time>2026-01-18T09:21:27.000Z</time>
      </trkpt>
      <trkpt lat="45.28577" lon="5.66208">
        <ele>537.20001220703</ele>
        <time>2026-01-18T09:21:32.000Z</time>
      </trkpt>
      <trkpt lat="45.28578" lon="5.66209">
        <ele>537.40002441406</ele>
        <time>2026-01-18T09:21:34.000Z</time>
      </trkpt>
      <trkpt lat="45.2858" lon="5.66214">
        <ele>538.40002441406</ele>
        <time>2026-01-18T09:21:39.000Z</time>
      </trkpt>
      <trkpt lat="45.2858" lon="5.66217">
        <ele>538.59997558594</ele>
        <time>2026-01-18T09:21:41.000Z</time>
      </trkpt>
      <trkpt lat="45.28583" lon="5.66221">
        <ele>539.40002441406</ele>
        <time>2026-01-18T09:21:46.000Z</time>
      </trkpt>
      <trkpt lat="45.28583" lon="5.66221">
        <ele>539.79998779297</ele>
        <time>2026-01-18T09:21:47.000Z</time>
      </trkpt>
      <trkpt lat="45.28583" lon="5.66222">
        <ele>539.79998779297</ele>
        <time>2026-01-18T09:21:48.000Z</time>
      </trkpt>
      <trkpt lat="45.28584" lon="5.66224">
        <ele>540.59997558594</ele>
        <time>2026-01-18T09:21:52.000Z</time>
      </trkpt>
      <trkpt lat="45.28585" lon="5.66225">
        <ele>541</ele>
        <time>2026-01-18T09:21:55.000Z</time>
      </trkpt>
      <trkpt lat="45.28586" lon="5.66228">
        <ele>541.59997558594</ele>
        <time>2026-01-18T09:21:59.000Z</time>
      </trkpt>
      <trkpt lat="45.28586" lon="5.66231">
        <ele>542.20001220703</ele>
        <time>2026-01-18T09:22:03.000Z</time>
      </trkpt>
      <trkpt lat="45.28586" lon="5.66233">
        <ele>542.79998779297</ele>
        <time>2026-01-18T09:22:07.000Z</time>
      </trkpt>
      <trkpt lat="45.28586" lon="5.66236">
        <ele>543</ele>
        <time>2026-01-18T09:22:09.000Z</time>
      </trkpt>
      <trkpt lat="45.28587" lon="5.66236">
        <ele>543.20001220703</ele>
        <time>2026-01-18T09:22:10.000Z</time>
      </trkpt>
      <trkpt lat="45.28588" lon="5.66239">
        <ele>543.79998779297</ele>
        <time>2026-01-18T09:22:14.000Z</time>
      </trkpt>
      <trkpt lat="45.28589" lon="5.6624">
        <ele>544.20001220703</ele>
        <time>2026-01-18T09:22:16.000Z</time>
      </trkpt>
      <trkpt lat="45.28591" lon="5.66243">
        <ele>545</ele>
        <time>2026-01-18T09:22:21.000Z</time>
      </trkpt>
      <trkpt lat="45.28592" lon="5.66243">
        <ele>545.20001220703</ele>
        <time>2026-01-18T09:22:23.000Z</time>
      </trkpt>
      <trkpt lat="45.28591" lon="5.66247">
        <ele>546</ele>
        <time>2026-01-18T09:22:27.000Z</time>
      </trkpt>
      <trkpt lat="45.28592" lon="5.66249">
        <ele>546.59997558594</ele>
        <time>2026-01-18T09:22:30.000Z</time>
      </trkpt>
      <trkpt lat="45.28593" lon="5.66251">
        <ele>547.20001220703</ele>
        <time>2026-01-18T09:22:32.000Z</time>
      </trkpt>
      <trkpt lat="45.28594" lon="5.66253">
        <ele>548</ele>
        <time>2026-01-18T09:22:36.000Z</time>
      </trkpt>
      <trkpt lat="45.28595" lon="5.66253">
        <ele>548.20001220703</ele>
        <time>2026-01-18T09:22:37.000Z</time>
      </trkpt>
      <trkpt lat="45.28597" lon="5.66254">
        <ele>549</ele>
        <time>2026-01-18T09:22:42.000Z</time>
      </trkpt>
      <trkpt lat="45.28597" lon="5.66255">
        <ele>549.40002441406</ele>
        <time>2026-01-18T09:22:44.000Z</time>
      </trkpt>
      <trkpt lat="45.28599" lon="5.66256">
        <ele>550</ele>
        <time>2026-01-18T09:22:49.000Z</time>
      </trkpt>
      <trkpt lat="45.28598" lon="5.66258">
        <ele>550.40002441406</ele>
        <time>2026-01-18T09:22:51.000Z</time>
      </trkpt>
      <trkpt lat="45.286" lon="5.66261">
        <ele>551</ele>
        <time>2026-01-18T09:22:55.000Z</time>
      </trkpt>
      <trkpt lat="45.28601" lon="5.66262">
        <ele>551.40002441406</ele>
        <time>2026-01-18T09:22:57.000Z</time>
      </trkpt>
      <trkpt lat="45.28603" lon="5.66265">
        <ele>552.20001220703</ele>
        <time>2026-01-18T09:23:03.000Z</time>
      </trkpt>
      <trkpt lat="45.28603" lon="5.66266">
        <ele>552.59997558594</ele>
        <time>2026-01-18T09:23:05.000Z</time>
      </trkpt>
      <trkpt lat="45.28606" lon="5.66265">
        <ele>552.79998779297</ele>
        <time>2026-01-18T09:23:08.000Z</time>
      </trkpt>
      <trkpt lat="45.28607" lon="5.66266">
        <ele>553.20001220703</ele>
        <time>2026-01-18T09:23:11.000Z</time>
      </trkpt>
      <trkpt lat="45.28608" lon="5.66267">
        <ele>553.59997558594</ele>
        <time>2026-01-18T09:23:13.000Z</time>
      </trkpt>
      <trkpt lat="45.28609" lon="5.66268">
        <ele>554.20001220703</ele>
        <time>2026-01-18T09:23:17.000Z</time>
      </trkpt>
      <trkpt lat="45.2861" lon="5.66268">
        <ele>554.59997558594</ele>
        <time>2026-01-18T09:23:20.000Z</time>
      </trkpt>
      <trkpt lat="45.28612" lon="5.66269">
        <ele>555.40002441406</ele>
        <time>2026-01-18T09:23:25.000Z</time>
      </trkpt>
      <trkpt lat="45.28612" lon="5.6627">
        <ele>555.59997558594</ele>
        <time>2026-01-18T09:23:26.000Z</time>
      </trkpt>
      <trkpt lat="45.28612" lon="5.6627">
        <ele>555.59997558594</ele>
        <time>2026-01-18T09:23:27.000Z</time>
      </trkpt>
      <trkpt lat="45.28613" lon="5.66271">
        <ele>555.79998779297</ele>
        <time>2026-01-18T09:23:28.000Z</time>
      </trkpt>
      <trkpt lat="45.28614" lon="5.66272">
        <ele>556</ele>
        <time>2026-01-18T09:23:30.000Z</time>
      </trkpt>
      <trkpt lat="45.28614" lon="5.66272">
        <ele>556.20001220703</ele>
        <time>2026-01-18T09:23:31.000Z</time>
      </trkpt>
      <trkpt lat="45.28615" lon="5.66271">
        <ele>556.79998779297</ele>
        <time>2026-01-18T09:23:35.000Z</time>
      </trkpt>
      <trkpt lat="45.28616" lon="5.66273">
        <ele>557</ele>
        <time>2026-01-18T09:23:37.000Z</time>
      </trkpt>
      <trkpt lat="45.28617" lon="5.66275">
        <ele>557.79998779297</ele>
        <time>2026-01-18T09:23:42.000Z</time>
      </trkpt>
      <trkpt lat="45.28617" lon="5.66276">
        <ele>558.20001220703</ele>
        <time>2026-01-18T09:23:44.000Z</time>
      </trkpt>
      <trkpt lat="45.2862" lon="5.66279">
        <ele>558.79998779297</ele>
        <time>2026-01-18T09:23:50.000Z</time>
      </trkpt>
      <trkpt lat="45.2862" lon="5.66279">
        <ele>559</ele>
        <time>2026-01-18T09:23:51.000Z</time>
      </trkpt>
      <trkpt lat="45.28621" lon="5.66281">
        <ele>559.59997558594</ele>
        <time>2026-01-18T09:23:55.000Z</time>
      </trkpt>
      <trkpt lat="45.28622" lon="5.66281">
        <ele>560</ele>
        <time>2026-01-18T09:23:57.000Z</time>
      </trkpt>
      <trkpt lat="45.28622" lon="5.66281">
        <ele>560.20001220703</ele>
        <time>2026-01-18T09:23:58.000Z</time>
      </trkpt>
      <trkpt lat="45.28625" lon="5.66282">
        <ele>561</ele>
        <time>2026-01-18T09:24:04.000Z</time>
      </trkpt>
      <trkpt lat="45.28626" lon="5.66282">
        <ele>561.40002441406</ele>
        <time>2026-01-18T09:24:06.000Z</time>
      </trkpt>
      <trkpt lat="45.28626" lon="5.66282">
        <ele>562.20001220703</ele>
        <time>2026-01-18T09:24:10.000Z</time>
      </trkpt>
      <trkpt lat="45.28628" lon="5.66285">
        <ele>562.79998779297</ele>
        <time>2026-01-18T09:24:16.000Z</time>
      </trkpt>
      <trkpt lat="45.28629" lon="5.66285">
        <ele>563.20001220703</ele>
        <time>2026-01-18T09:24:18.000Z</time>
      </trkpt>
      <trkpt lat="45.28631" lon="5.66285">
        <ele>563.59997558594</ele>
        <time>2026-01-18T09:24:20.000Z</time>
      </trkpt>
      <trkpt lat="45.28633" lon="5.66287">
        <ele>564.20001220703</ele>
        <time>2026-01-18T09:24:25.000Z</time>
      </trkpt>
      <trkpt lat="45.28634" lon="5.66287">
        <ele>564.40002441406</ele>
        <time>2026-01-18T09:24:26.000Z</time>
      </trkpt>
      <trkpt lat="45.28636" lon="5.66288">
        <ele>564.79998779297</ele>
        <time>2026-01-18T09:24:29.000Z</time>
      </trkpt>
      <trkpt lat="45.28637" lon="5.66292">
        <ele>565.59997558594</ele>
        <time>2026-01-18T09:24:34.000Z</time>
      </trkpt>
      <trkpt lat="45.28637" lon="5.66293">
        <ele>565.79998779297</ele>
        <time>2026-01-18T09:24:35.000Z</time>
      </trkpt>
      <trkpt lat="45.2864" lon="5.66296">
        <ele>566.59997558594</ele>
        <time>2026-01-18T09:24:41.000Z</time>
      </trkpt>
      <trkpt lat="45.28642" lon="5.66298">
        <ele>567</ele>
        <time>2026-01-18T09:24:44.000Z</time>
      </trkpt>
      <trkpt lat="45.28643" lon="5.66301">
        <ele>567.40002441406</ele>
        <time>2026-01-18T09:24:47.000Z</time>
      </trkpt>
      <trkpt lat="45.28643" lon="5.66301">
        <ele>567.59997558594</ele>
        <time>2026-01-18T09:24:48.000Z</time>
      </trkpt>
      <trkpt lat="45.28643" lon="5.66302">
        <ele>567.59997558594</ele>
        <time>2026-01-18T09:24:49.000Z</time>
      </trkpt>
      <trkpt lat="45.28646" lon="5.66303">
        <ele>568.79998779297</ele>
        <time>2026-01-18T09:24:55.000Z</time>
      </trkpt>
      <trkpt lat="45.28647" lon="5.66306">
        <ele>569.79998779297</ele>
        <time>2026-01-18T09:25:02.000Z</time>
      </trkpt>
      <trkpt lat="45.28647" lon="5.66307">
        <ele>569.79998779297</ele>
        <time>2026-01-18T09:25:03.000Z</time>
      </trkpt>
      <trkpt lat="45.2865" lon="5.66309">
        <ele>570.79998779297</ele>
        <time>2026-01-18T09:25:09.000Z</time>
      </trkpt>
      <trkpt lat="45.28652" lon="5.6631">
        <ele>571.59997558594</ele>
        <time>2026-01-18T09:25:14.000Z</time>
      </trkpt>
      <trkpt lat="45.2865" lon="5.66313">
        <ele>572</ele>
        <time>2026-01-18T09:25:16.000Z</time>
      </trkpt>
      <trkpt lat="45.28652" lon="5.66316">
        <ele>572.59997558594</ele>
        <time>2026-01-18T09:25:19.000Z</time>
      </trkpt>
      <trkpt lat="45.28653" lon="5.66316">
        <ele>573.20001220703</ele>
        <time>2026-01-18T09:25:22.000Z</time>
      </trkpt>
      <trkpt lat="45.28652" lon="5.6632">
        <ele>573.79998779297</ele>
        <time>2026-01-18T09:25:26.000Z</time>
      </trkpt>
      <trkpt lat="45.28651" lon="5.66322">
        <ele>574.20001220703</ele>
        <time>2026-01-18T09:25:28.000Z</time>
      </trkpt>
      <trkpt lat="45.28651" lon="5.66326">
        <ele>575.40002441406</ele>
        <time>2026-01-18T09:25:35.000Z</time>
      </trkpt>
      <trkpt lat="45.2865" lon="5.66329">
        <ele>576</ele>
        <time>2026-01-18T09:25:41.000Z</time>
      </trkpt>
      <trkpt lat="45.2865" lon="5.66331">
        <ele>576.40002441406</ele>
        <time>2026-01-18T09:25:43.000Z</time>
      </trkpt>
      <trkpt lat="45.28649" lon="5.66335">
        <ele>577.40002441406</ele>
        <time>2026-01-18T09:25:49.000Z</time>
      </trkpt>
      <trkpt lat="45.28648" lon="5.66336">
        <ele>577.40002441406</ele>
        <time>2026-01-18T09:25:50.000Z</time>
      </trkpt>
      <trkpt lat="45.28649" lon="5.66336">
        <ele>578</ele>
        <time>2026-01-18T09:25:54.000Z</time>
      </trkpt>
      <trkpt lat="45.28647" lon="5.66339">
        <ele>578.40002441406</ele>
        <time>2026-01-18T09:26:00.000Z</time>
      </trkpt>
      <trkpt lat="45.28647" lon="5.6634">
        <ele>578.59997558594</ele>
        <time>2026-01-18T09:26:01.000Z</time>
      </trkpt>
      <trkpt lat="45.28646" lon="5.66343">
        <ele>579</ele>
        <time>2026-01-18T09:26:05.000Z</time>
      </trkpt>
      <trkpt lat="45.28647" lon="5.66345">
        <ele>579.40002441406</ele>
        <time>2026-01-18T09:26:09.000Z</time>
      </trkpt>
      <trkpt lat="45.28647" lon="5.66346">
        <ele>579.59997558594</ele>
        <time>2026-01-18T09:26:11.000Z</time>
      </trkpt>
      <trkpt lat="45.28648" lon="5.66347">
        <ele>579.79998779297</ele>
        <time>2026-01-18T09:26:13.000Z</time>
      </trkpt>
      <trkpt lat="45.28649" lon="5.66348">
        <ele>580</ele>
        <time>2026-01-18T09:26:14.000Z</time>
      </trkpt>
      <trkpt lat="45.28648" lon="5.66352">
        <ele>580.40002441406</ele>
        <time>2026-01-18T09:26:19.000Z</time>
      </trkpt>
      <trkpt lat="45.28648" lon="5.66353">
        <ele>580.59997558594</ele>
        <time>2026-01-18T09:26:20.000Z</time>
      </trkpt>
      <trkpt lat="45.28649" lon="5.66356">
        <ele>581</ele>
        <time>2026-01-18T09:26:24.000Z</time>
      </trkpt>
      <trkpt lat="45.28649" lon="5.66359">
        <ele>581.40002441406</ele>
        <time>2026-01-18T09:26:27.000Z</time>
      </trkpt>
      <trkpt lat="45.28649" lon="5.66361">
        <ele>581.59997558594</ele>
        <time>2026-01-18T09:26:29.000Z</time>
      </trkpt>
      <trkpt lat="45.28649" lon="5.66361">
        <ele>581.79998779297</ele>
        <time>2026-01-18T09:26:30.000Z</time>
      </trkpt>
      <trkpt lat="45.28651" lon="5.66362">
        <ele>582.20001220703</ele>
        <time>2026-01-18T09:26:32.000Z</time>
      </trkpt>
      <trkpt lat="45.28652" lon="5.66364">
        <ele>582.59997558594</ele>
        <time>2026-01-18T09:26:36.000Z</time>
      </trkpt>
      <trkpt lat="45.28652" lon="5.66365">
        <ele>582.79998779297</ele>
        <time>2026-01-18T09:26:38.000Z</time>
      </trkpt>
      <trkpt lat="45.28654" lon="5.66368">
        <ele>583.40002441406</ele>
        <time>2026-01-18T09:26:42.000Z</time>
      </trkpt>
      <trkpt lat="45.28655" lon="5.66371">
        <ele>583.79998779297</ele>
        <time>2026-01-18T09:26:46.000Z</time>
      </trkpt>
      <trkpt lat="45.28655" lon="5.66372">
        <ele>584</ele>
        <time>2026-01-18T09:26:47.000Z</time>
      </trkpt>
      <trkpt lat="45.28655" lon="5.66375">
        <ele>584.59997558594</ele>
        <time>2026-01-18T09:26:51.000Z</time>
      </trkpt>
      <trkpt lat="45.28655" lon="5.66375">
        <ele>584.79998779297</ele>
        <time>2026-01-18T09:26:52.000Z</time>
      </trkpt>
      <trkpt lat="45.28657" lon="5.66376">
        <ele>585.59997558594</ele>
        <time>2026-01-18T09:26:57.000Z</time>
      </trkpt>
      <trkpt lat="45.28658" lon="5.66377">
        <ele>586</ele>
        <time>2026-01-18T09:27:00.000Z</time>
      </trkpt>
      <trkpt lat="45.28658" lon="5.66378">
        <ele>586.20001220703</ele>
        <time>2026-01-18T09:27:01.000Z</time>
      </trkpt>
      <trkpt lat="45.28663" lon="5.6638">
        <ele>587</ele>
        <time>2026-01-18T09:27:06.000Z</time>
      </trkpt>
      <trkpt lat="45.28664" lon="5.66381">
        <ele>587.20001220703</ele>
        <time>2026-01-18T09:27:07.000Z</time>
      </trkpt>
      <trkpt lat="45.28666" lon="5.66382">
        <ele>587.59997558594</ele>
        <time>2026-01-18T09:27:11.000Z</time>
      </trkpt>
      <trkpt lat="45.28667" lon="5.66384">
        <ele>588.20001220703</ele>
        <time>2026-01-18T09:27:14.000Z</time>
      </trkpt>
      <trkpt lat="45.28667" lon="5.66386">
        <ele>588.20001220703</ele>
        <time>2026-01-18T09:27:15.000Z</time>
      </trkpt>
      <trkpt lat="45.28669" lon="5.66389">
        <ele>589.20001220703</ele>
        <time>2026-01-18T09:27:21.000Z</time>
      </trkpt>
      <trkpt lat="45.2867" lon="5.66392">
        <ele>590</ele>
        <time>2026-01-18T09:27:27.000Z</time>
      </trkpt>
      <trkpt lat="45.2867" lon="5.66393">
        <ele>590.20001220703</ele>
        <time>2026-01-18T09:27:29.000Z</time>
      </trkpt>
      <trkpt lat="45.2867" lon="5.66393">
        <ele>590.40002441406</ele>
        <time>2026-01-18T09:27:30.000Z</time>
      </trkpt>
      <trkpt lat="45.28671" lon="5.66393">
        <ele>590.79998779297</ele>
        <time>2026-01-18T09:27:34.000Z</time>
      </trkpt>
      <trkpt lat="45.28671" lon="5.66395">
        <ele>591.40002441406</ele>
        <time>2026-01-18T09:27:39.000Z</time>
      </trkpt>
      <trkpt lat="45.28671" lon="5.66395">
        <ele>591.59997558594</ele>
        <time>2026-01-18T09:27:42.000Z</time>
      </trkpt>
      <trkpt lat="45.28671" lon="5.66395">
        <ele>591.59997558594</ele>
        <time>2026-01-18T09:27:50.000Z</time>
      </trkpt>
      <trkpt lat="45.28671" lon="5.66395">
        <ele>591.79998779297</ele>
        <time>2026-01-18T09:27:53.000Z</time>
      </trkpt>
      <trkpt lat="45.28671" lon="5.66395">
        <ele>591.79998779297</ele>
        <time>2026-01-18T09:27:55.000Z</time>
      </trkpt>
      <trkpt lat="45.28672" lon="5.66395">
        <ele>591.40002441406</ele>
        <time>2026-01-18T09:28:07.000Z</time>
      </trkpt>
      <trkpt lat="45.28671" lon="5.66395">
        <ele>591.20001220703</ele>
        <time>2026-01-18T09:28:22.000Z</time>
      </trkpt>
      <trkpt lat="45.28671" lon="5.66396">
        <ele>591</ele>
        <time>2026-01-18T09:28:25.000Z</time>
      </trkpt>
      <trkpt lat="45.28671" lon="5.66396">
        <ele>591</ele>
        <time>2026-01-18T09:28:27.000Z</time>
      </trkpt>
      <trkpt lat="45.28671" lon="5.66396">
        <ele>591</ele>
        <time>2026-01-18T09:28:28.000Z</time>
      </trkpt>
      <trkpt lat="45.28671" lon="5.66396">
        <ele>591</ele>
        <time>2026-01-18T09:28:29.000Z</time>
      </trkpt>
      <trkpt lat="45.28671" lon="5.66396">
        <ele>591</ele>
        <time>2026-01-18T09:28:30.000Z</time>
      </trkpt>
      <trkpt lat="45.28671" lon="5.66396">
        <ele>591</ele>
        <time>2026-01-18T09:28:35.000Z</time>
      </trkpt>
      <trkpt lat="45.28671" lon="5.66396">
        <ele>590.79998779297</ele>
        <time>2026-01-18T09:28:38.000Z</time>
      </trkpt>
      <trkpt lat="45.28671" lon="5.66396">
        <ele>590.59997558594</ele>
        <time>2026-01-18T09:29:08.000Z</time>
      </trkpt>
      <trkpt lat="45.28671" lon="5.66396">
        <ele>591.20001220703</ele>
        <time>2026-01-18T09:29:18.000Z</time>
      </trkpt>
      <trkpt lat="45.28671" lon="5.66397">
        <ele>592.40002441406</ele>
        <time>2026-01-18T09:29:25.000Z</time>
      </trkpt>
      <trkpt lat="45.28671" lon="5.66397">
        <ele>592.79998779297</ele>
        <time>2026-01-18T09:29:29.000Z</time>
      </trkpt>
      <trkpt lat="45.28671" lon="5.66398">
        <ele>593.20001220703</ele>
        <time>2026-01-18T09:29:31.000Z</time>
      </trkpt>
      <trkpt lat="45.28672" lon="5.66401">
        <ele>593.59997558594</ele>
        <time>2026-01-18T09:29:35.000Z</time>
      </trkpt>
      <trkpt lat="45.28673" lon="5.66407">
        <ele>594.40002441406</ele>
        <time>2026-01-18T09:29:42.000Z</time>
      </trkpt>
      <trkpt lat="45.28674" lon="5.66408">
        <ele>594.59997558594</ele>
        <time>2026-01-18T09:29:44.000Z</time>
      </trkpt>
      <trkpt lat="45.28674" lon="5.66413">
        <ele>595.79998779297</ele>
        <time>2026-01-18T09:29:51.000Z</time>
      </trkpt>
      <trkpt lat="45.28675" lon="5.66416">
        <ele>596.79998779297</ele>
        <time>2026-01-18T09:29:57.000Z</time>
      </trkpt>
      <trkpt lat="45.28675" lon="5.66421">
        <ele>597.79998779297</ele>
        <time>2026-01-18T09:30:05.000Z</time>
      </trkpt>
      <trkpt lat="45.28675" lon="5.66424">
        <ele>598.59997558594</ele>
        <time>2026-01-18T09:30:09.000Z</time>
      </trkpt>
      <trkpt lat="45.28676" lon="5.66424">
        <ele>599</ele>
        <time>2026-01-18T09:30:12.000Z</time>
      </trkpt>
      <trkpt lat="45.28676" lon="5.66425">
        <ele>599.40002441406</ele>
        <time>2026-01-18T09:30:14.000Z</time>
      </trkpt>
      <trkpt lat="45.28677" lon="5.66426">
        <ele>600</ele>
        <time>2026-01-18T09:30:21.000Z</time>
      </trkpt>
      <trkpt lat="45.28677" lon="5.66428">
        <ele>601</ele>
        <time>2026-01-18T09:30:27.000Z</time>
      </trkpt>
      <trkpt lat="45.28677" lon="5.66429">
        <ele>601.20001220703</ele>
        <time>2026-01-18T09:30:29.000Z</time>
      </trkpt>
      <trkpt lat="45.28677" lon="5.6643">
        <ele>602.20001220703</ele>
        <time>2026-01-18T09:30:38.000Z</time>
      </trkpt>
      <trkpt lat="45.28677" lon="5.66432">
        <ele>603.20001220703</ele>
        <time>2026-01-18T09:30:45.000Z</time>
      </trkpt>
      <trkpt lat="45.28678" lon="5.66434">
        <ele>604.20001220703</ele>
        <time>2026-01-18T09:30:51.000Z</time>
      </trkpt>
      <trkpt lat="45.2868" lon="5.66449">
        <ele>605.40002441406</ele>
        <time>2026-01-18T09:31:01.000Z</time>
      </trkpt>
      <trkpt lat="45.28682" lon="5.66462">
        <ele>605.79998779297</ele>
        <time>2026-01-18T09:31:05.000Z</time>
      </trkpt>
      <trkpt lat="45.28682" lon="5.66469">
        <ele>606.40002441406</ele>
        <time>2026-01-18T09:31:09.000Z</time>
      </trkpt>
      <trkpt lat="45.28682" lon="5.66469">
        <ele>606.40002441406</ele>
        <time>2026-01-18T09:31:10.000Z</time>
      </trkpt>
      <trkpt lat="45.28682" lon="5.66471">
        <ele>607</ele>
        <time>2026-01-18T09:31:15.000Z</time>
      </trkpt>
      <trkpt lat="45.28682" lon="5.66472">
        <ele>607.40002441406</ele>
        <time>2026-01-18T09:31:18.000Z</time>
      </trkpt>
      <trkpt lat="45.2868" lon="5.66474">
        <ele>607.59997558594</ele>
        <time>2026-01-18T09:31:20.000Z</time>
      </trkpt>
      <trkpt lat="45.28681" lon="5.66474">
        <ele>607.79998779297</ele>
        <time>2026-01-18T09:31:22.000Z</time>
      </trkpt>
      <trkpt lat="45.28679" lon="5.66477">
        <ele>608.40002441406</ele>
        <time>2026-01-18T09:31:26.000Z</time>
      </trkpt>
      <trkpt lat="45.28678" lon="5.66478">
        <ele>608.40002441406</ele>
        <time>2026-01-18T09:31:27.000Z</time>
      </trkpt>
      <trkpt lat="45.28675" lon="5.66481">
        <ele>609.20001220703</ele>
        <time>2026-01-18T09:31:33.000Z</time>
      </trkpt>
      <trkpt lat="45.28675" lon="5.66483">
        <ele>609.59997558594</ele>
        <time>2026-01-18T09:31:36.000Z</time>
      </trkpt>
      <trkpt lat="45.28674" lon="5.66484">
        <ele>610</ele>
        <time>2026-01-18T09:31:39.000Z</time>
      </trkpt>
      <trkpt lat="45.28672" lon="5.66488">
        <ele>610.59997558594</ele>
        <time>2026-01-18T09:31:45.000Z</time>
      </trkpt>
      <trkpt lat="45.28672" lon="5.6649">
        <ele>611.59997558594</ele>
        <time>2026-01-18T09:31:53.000Z</time>
      </trkpt>
      <trkpt lat="45.28672" lon="5.66491">
        <ele>611.79998779297</ele>
        <time>2026-01-18T09:31:54.000Z</time>
      </trkpt>
      <trkpt lat="45.28669" lon="5.66493">
        <ele>612.40002441406</ele>
        <time>2026-01-18T09:32:00.000Z</time>
      </trkpt>
      <trkpt lat="45.28669" lon="5.66493">
        <ele>612.79998779297</ele>
        <time>2026-01-18T09:32:04.000Z</time>
      </trkpt>
      <trkpt lat="45.28669" lon="5.66493">
        <ele>614</ele>
        <time>2026-01-18T09:32:11.000Z</time>
      </trkpt>
      <trkpt lat="45.28669" lon="5.66496">
        <ele>614.79998779297</ele>
        <time>2026-01-18T09:32:18.000Z</time>
      </trkpt>
      <trkpt lat="45.28669" lon="5.66496">
        <ele>615</ele>
        <time>2026-01-18T09:32:19.000Z</time>
      </trkpt>
      <trkpt lat="45.28665" lon="5.66505">
        <ele>616</ele>
        <time>2026-01-18T09:32:25.000Z</time>
      </trkpt>
      <trkpt lat="45.2866" lon="5.66516">
        <ele>617.20001220703</ele>
        <time>2026-01-18T09:32:32.000Z</time>
      </trkpt>
      <trkpt lat="45.28659" lon="5.6652">
        <ele>618</ele>
        <time>2026-01-18T09:32:40.000Z</time>
      </trkpt>
      <trkpt lat="45.28658" lon="5.66523">
        <ele>618.20001220703</ele>
        <time>2026-01-18T09:32:42.000Z</time>
      </trkpt>
      <trkpt lat="45.28657" lon="5.66528">
        <ele>619.40002441406</ele>
        <time>2026-01-18T09:32:49.000Z</time>
      </trkpt>
      <trkpt lat="45.28657" lon="5.66528">
        <ele>619.59997558594</ele>
        <time>2026-01-18T09:32:50.000Z</time>
      </trkpt>
      <trkpt lat="45.28657" lon="5.66534">
        <ele>620.40002441406</ele>
        <time>2026-01-18T09:32:55.000Z</time>
      </trkpt>
      <trkpt lat="45.28657" lon="5.66535">
        <ele>620.59997558594</ele>
        <time>2026-01-18T09:32:56.000Z</time>
      </trkpt>
      <trkpt lat="45.28655" lon="5.66538">
        <ele>621.40002441406</ele>
        <time>2026-01-18T09:33:01.000Z</time>
      </trkpt>
      <trkpt lat="45.28655" lon="5.66539">
        <ele>621.79998779297</ele>
        <time>2026-01-18T09:33:03.000Z</time>
      </trkpt>
      <trkpt lat="45.28655" lon="5.6654">
        <ele>622.59997558594</ele>
        <time>2026-01-18T09:33:07.000Z</time>
      </trkpt>
      <trkpt lat="45.28655" lon="5.6654">
        <ele>623</ele>
        <time>2026-01-18T09:33:09.000Z</time>
      </trkpt>
      <trkpt lat="45.28654" lon="5.66544">
        <ele>623.79998779297</ele>
        <time>2026-01-18T09:33:14.000Z</time>
      </trkpt>
      <trkpt lat="45.2865" lon="5.66548">
        <ele>624.79998779297</ele>
        <time>2026-01-18T09:33:21.000Z</time>
      </trkpt>
      <trkpt lat="45.2865" lon="5.66548">
        <ele>625</ele>
        <time>2026-01-18T09:33:22.000Z</time>
      </trkpt>
      <trkpt lat="45.28648" lon="5.66552">
        <ele>625.79998779297</ele>
        <time>2026-01-18T09:33:27.000Z</time>
      </trkpt>
      <trkpt lat="45.28648" lon="5.66553">
        <ele>626</ele>
        <time>2026-01-18T09:33:28.000Z</time>
      </trkpt>
      <trkpt lat="45.28646" lon="5.66557">
        <ele>626.79998779297</ele>
        <time>2026-01-18T09:33:33.000Z</time>
      </trkpt>
      <trkpt lat="45.28646" lon="5.66557">
        <ele>626.79998779297</ele>
        <time>2026-01-18T09:33:34.000Z</time>
      </trkpt>
      <trkpt lat="45.28646" lon="5.66559">
        <ele>627.40002441406</ele>
        <time>2026-01-18T09:33:39.000Z</time>
      </trkpt>
      <trkpt lat="45.28645" lon="5.66561">
        <ele>628</ele>
        <time>2026-01-18T09:33:43.000Z</time>
      </trkpt>
      <trkpt lat="45.28645" lon="5.66563">
        <ele>628.40002441406</ele>
        <time>2026-01-18T09:33:46.000Z</time>
      </trkpt>
      <trkpt lat="45.28644" lon="5.66564">
        <ele>629</ele>
        <time>2026-01-18T09:33:50.000Z</time>
      </trkpt>
      <trkpt lat="45.28644" lon="5.66564">
        <ele>629.79998779297</ele>
        <time>2026-01-18T09:33:54.000Z</time>
      </trkpt>
      <trkpt lat="45.28644" lon="5.66564">
        <ele>630</ele>
        <time>2026-01-18T09:33:56.000Z</time>
      </trkpt>
      <trkpt lat="45.28644" lon="5.66564">
        <ele>631.20001220703</ele>
        <time>2026-01-18T09:34:03.000Z</time>
      </trkpt>
      <trkpt lat="45.28644" lon="5.66566">
        <ele>632.20001220703</ele>
        <time>2026-01-18T09:34:09.000Z</time>
      </trkpt>
      <trkpt lat="45.28643" lon="5.66569">
        <ele>633.20001220703</ele>
        <time>2026-01-18T09:34:16.000Z</time>
      </trkpt>
      <trkpt lat="45.28641" lon="5.66573">
        <ele>634.40002441406</ele>
        <time>2026-01-18T09:34:24.000Z</time>
      </trkpt>
      <trkpt lat="45.2864" lon="5.66575">
        <ele>634.59997558594</ele>
        <time>2026-01-18T09:34:26.000Z</time>
      </trkpt>
      <trkpt lat="45.2864" lon="5.66578">
        <ele>635.40002441406</ele>
        <time>2026-01-18T09:34:32.000Z</time>
      </trkpt>
      <trkpt lat="45.28641" lon="5.66587">
        <ele>636.59997558594</ele>
        <time>2026-01-18T09:34:38.000Z</time>
      </trkpt>
      <trkpt lat="45.28642" lon="5.6659">
        <ele>636.79998779297</ele>
        <time>2026-01-18T09:34:40.000Z</time>
      </trkpt>
      <trkpt lat="45.28642" lon="5.66593">
        <ele>637.20001220703</ele>
        <time>2026-01-18T09:34:42.000Z</time>
      </trkpt>
      <trkpt lat="45.28643" lon="5.66597">
        <ele>637.59997558594</ele>
        <time>2026-01-18T09:34:45.000Z</time>
      </trkpt>
      <trkpt lat="45.28643" lon="5.66599">
        <ele>638.59997558594</ele>
        <time>2026-01-18T09:34:51.000Z</time>
      </trkpt>
      <trkpt lat="45.28643" lon="5.666">
        <ele>638.59997558594</ele>
        <time>2026-01-18T09:34:52.000Z</time>
      </trkpt>
      <trkpt lat="45.28643" lon="5.666">
        <ele>638.79998779297</ele>
        <time>2026-01-18T09:34:53.000Z</time>
      </trkpt>
      <trkpt lat="45.28645" lon="5.66603">
        <ele>639.59997558594</ele>
        <time>2026-01-18T09:34:59.000Z</time>
      </trkpt>
      <trkpt lat="45.28645" lon="5.66604">
        <ele>639.79998779297</ele>
        <time>2026-01-18T09:35:00.000Z</time>
      </trkpt>
      <trkpt lat="45.28647" lon="5.66609">
        <ele>640.79998779297</ele>
        <time>2026-01-18T09:35:08.000Z</time>
      </trkpt>
      <trkpt lat="45.2865" lon="5.66613">
        <ele>641.79998779297</ele>
        <time>2026-01-18T09:35:16.000Z</time>
      </trkpt>
      <trkpt lat="45.2865" lon="5.66614">
        <ele>642</ele>
        <time>2026-01-18T09:35:17.000Z</time>
      </trkpt>
      <trkpt lat="45.28651" lon="5.66617">
        <ele>642.40002441406</ele>
        <time>2026-01-18T09:35:22.000Z</time>
      </trkpt>
      <trkpt lat="45.28651" lon="5.66621">
        <ele>643</ele>
        <time>2026-01-18T09:35:26.000Z</time>
      </trkpt>
      <trkpt lat="45.28651" lon="5.66622">
        <ele>643.20001220703</ele>
        <time>2026-01-18T09:35:28.000Z</time>
      </trkpt>
      <trkpt lat="45.28651" lon="5.66627">
        <ele>644</ele>
        <time>2026-01-18T09:35:35.000Z</time>
      </trkpt>
      <trkpt lat="45.28651" lon="5.66627">
        <ele>644</ele>
        <time>2026-01-18T09:35:36.000Z</time>
      </trkpt>
      <trkpt lat="45.28652" lon="5.66632">
        <ele>644.79998779297</ele>
        <time>2026-01-18T09:35:42.000Z</time>
      </trkpt>
      <trkpt lat="45.28653" lon="5.66633">
        <ele>645.20001220703</ele>
        <time>2026-01-18T09:35:44.000Z</time>
      </trkpt>
      <trkpt lat="45.28654" lon="5.66636">
        <ele>645.79998779297</ele>
        <time>2026-01-18T09:35:48.000Z</time>
      </trkpt>
      <trkpt lat="45.28655" lon="5.66639">
        <ele>646.20001220703</ele>
        <time>2026-01-18T09:35:52.000Z</time>
      </trkpt>
      <trkpt lat="45.28656" lon="5.66641">
        <ele>646.59997558594</ele>
        <time>2026-01-18T09:35:55.000Z</time>
      </trkpt>
      <trkpt lat="45.28655" lon="5.66644">
        <ele>647</ele>
        <time>2026-01-18T09:35:58.000Z</time>
      </trkpt>
      <trkpt lat="45.28656" lon="5.66645">
        <ele>647.20001220703</ele>
        <time>2026-01-18T09:35:59.000Z</time>
      </trkpt>
      <trkpt lat="45.28657" lon="5.66645">
        <ele>647.40002441406</ele>
        <time>2026-01-18T09:36:00.000Z</time>
      </trkpt>
      <trkpt lat="45.28659" lon="5.6665">
        <ele>648</ele>
        <time>2026-01-18T09:36:05.000Z</time>
      </trkpt>
      <trkpt lat="45.2866" lon="5.66652">
        <ele>648.40002441406</ele>
        <time>2026-01-18T09:36:08.000Z</time>
      </trkpt>
      <trkpt lat="45.28661" lon="5.66653">
        <ele>649.20001220703</ele>
        <time>2026-01-18T09:36:13.000Z</time>
      </trkpt>
      <trkpt lat="45.28662" lon="5.66654">
        <ele>649.59997558594</ele>
        <time>2026-01-18T09:36:16.000Z</time>
      </trkpt>
      <trkpt lat="45.28663" lon="5.66655">
        <ele>650</ele>
        <time>2026-01-18T09:36:19.000Z</time>
      </trkpt>
      <trkpt lat="45.28664" lon="5.66658">
        <ele>650.79998779297</ele>
        <time>2026-01-18T09:36:24.000Z</time>
      </trkpt>
      <trkpt lat="45.28665" lon="5.6666">
        <ele>651</ele>
        <time>2026-01-18T09:36:27.000Z</time>
      </trkpt>
      <trkpt lat="45.28667" lon="5.66659">
        <ele>651.59997558594</ele>
        <time>2026-01-18T09:36:31.000Z</time>
      </trkpt>
      <trkpt lat="45.28668" lon="5.66659">
        <ele>651.79998779297</ele>
        <time>2026-01-18T09:36:32.000Z</time>
      </trkpt>
      <trkpt lat="45.28671" lon="5.66662">
        <ele>652.59997558594</ele>
        <time>2026-01-18T09:36:38.000Z</time>
      </trkpt>
      <trkpt lat="45.28672" lon="5.66663">
        <ele>653</ele>
        <time>2026-01-18T09:36:40.000Z</time>
      </trkpt>
      <trkpt lat="45.28674" lon="5.66665">
        <ele>654</ele>
        <time>2026-01-18T09:36:47.000Z</time>
      </trkpt>
      <trkpt lat="45.28676" lon="5.66665">
        <ele>654.59997558594</ele>
        <time>2026-01-18T09:36:52.000Z</time>
      </trkpt>
      <trkpt lat="45.28676" lon="5.66665">
        <ele>655</ele>
        <time>2026-01-18T09:36:54.000Z</time>
      </trkpt>
      <trkpt lat="45.28677" lon="5.66668">
        <ele>655.59997558594</ele>
        <time>2026-01-18T09:36:58.000Z</time>
      </trkpt>
      <trkpt lat="45.28678" lon="5.66669">
        <ele>656</ele>
        <time>2026-01-18T09:37:01.000Z</time>
      </trkpt>
      <trkpt lat="45.28679" lon="5.66673">
        <ele>656.79998779297</ele>
        <time>2026-01-18T09:37:06.000Z</time>
      </trkpt>
      <trkpt lat="45.28679" lon="5.66675">
        <ele>657.20001220703</ele>
        <time>2026-01-18T09:37:08.000Z</time>
      </trkpt>
      <trkpt lat="45.28681" lon="5.66678">
        <ele>658</ele>
        <time>2026-01-18T09:37:13.000Z</time>
      </trkpt>
      <trkpt lat="45.28682" lon="5.66679">
        <ele>658.20001220703</ele>
        <time>2026-01-18T09:37:15.000Z</time>
      </trkpt>
      <trkpt lat="45.28684" lon="5.66683">
        <ele>659</ele>
        <time>2026-01-18T09:37:20.000Z</time>
      </trkpt>
      <trkpt lat="45.28686" lon="5.66683">
        <ele>659.40002441406</ele>
        <time>2026-01-18T09:37:22.000Z</time>
      </trkpt>
      <trkpt lat="45.28686" lon="5.66685">
        <ele>659.59997558594</ele>
        <time>2026-01-18T09:37:24.000Z</time>
      </trkpt>
      <trkpt lat="45.28687" lon="5.66688">
        <ele>660.40002441406</ele>
        <time>2026-01-18T09:37:28.000Z</time>
      </trkpt>
      <trkpt lat="45.28686" lon="5.66689">
        <ele>660.40002441406</ele>
        <time>2026-01-18T09:37:29.000Z</time>
      </trkpt>
      <trkpt lat="45.28688" lon="5.66692">
        <ele>661</ele>
        <time>2026-01-18T09:37:34.000Z</time>
      </trkpt>
      <trkpt lat="45.28691" lon="5.66696">
        <ele>661.59997558594</ele>
        <time>2026-01-18T09:37:38.000Z</time>
      </trkpt>
      <trkpt lat="45.28693" lon="5.66701">
        <ele>662</ele>
        <time>2026-01-18T09:37:43.000Z</time>
      </trkpt>
      <trkpt lat="45.28694" lon="5.66704">
        <ele>662.40002441406</ele>
        <time>2026-01-18T09:37:47.000Z</time>
      </trkpt>
      <trkpt lat="45.28695" lon="5.66705">
        <ele>662.59997558594</ele>
        <time>2026-01-18T09:37:48.000Z</time>
      </trkpt>
      <trkpt lat="45.28695" lon="5.66705">
        <ele>662.79998779297</ele>
        <time>2026-01-18T09:37:49.000Z</time>
      </trkpt>
      <trkpt lat="45.28697" lon="5.66707">
        <ele>663.20001220703</ele>
        <time>2026-01-18T09:37:53.000Z</time>
      </trkpt>
      <trkpt lat="45.28697" lon="5.66711">
        <ele>663.79998779297</ele>
        <time>2026-01-18T09:37:58.000Z</time>
      </trkpt>
      <trkpt lat="45.28696" lon="5.66711">
        <ele>663.79998779297</ele>
        <time>2026-01-18T09:37:59.000Z</time>
      </trkpt>
      <trkpt lat="45.28697" lon="5.66715">
        <ele>664.40002441406</ele>
        <time>2026-01-18T09:38:05.000Z</time>
      </trkpt>
      <trkpt lat="45.28697" lon="5.66717">
        <ele>664.79998779297</ele>
        <time>2026-01-18T09:38:07.000Z</time>
      </trkpt>
      <trkpt lat="45.28697" lon="5.66719">
        <ele>665</ele>
        <time>2026-01-18T09:38:09.000Z</time>
      </trkpt>
      <trkpt lat="45.28699" lon="5.66726">
        <ele>665.79998779297</ele>
        <time>2026-01-18T09:38:16.000Z</time>
      </trkpt>
      <trkpt lat="45.28699" lon="5.66727">
        <ele>666</ele>
        <time>2026-01-18T09:38:17.000Z</time>
      </trkpt>
      <trkpt lat="45.28701" lon="5.6673">
        <ele>666.40002441406</ele>
        <time>2026-01-18T09:38:21.000Z</time>
      </trkpt>
      <trkpt lat="45.28701" lon="5.66733">
        <ele>666.79998779297</ele>
        <time>2026-01-18T09:38:23.000Z</time>
      </trkpt>
      <trkpt lat="45.28702" lon="5.66735">
        <ele>667.40002441406</ele>
        <time>2026-01-18T09:38:27.000Z</time>
      </trkpt>
      <trkpt lat="45.28702" lon="5.66738">
        <ele>668</ele>
        <time>2026-01-18T09:38:31.000Z</time>
      </trkpt>
      <trkpt lat="45.28703" lon="5.66738">
        <ele>668</ele>
        <time>2026-01-18T09:38:32.000Z</time>
      </trkpt>
      <trkpt lat="45.28704" lon="5.66742">
        <ele>668.59997558594</ele>
        <time>2026-01-18T09:38:37.000Z</time>
      </trkpt>
      <trkpt lat="45.28704" lon="5.66743">
        <ele>669</ele>
        <time>2026-01-18T09:38:39.000Z</time>
      </trkpt>
      <trkpt lat="45.28703" lon="5.66747">
        <ele>669</ele>
        <time>2026-01-18T09:38:41.000Z</time>
      </trkpt>
      <trkpt lat="45.28703" lon="5.66752">
        <ele>669.79998779297</ele>
        <time>2026-01-18T09:38:46.000Z</time>
      </trkpt>
      <trkpt lat="45.28703" lon="5.66754">
        <ele>670</ele>
        <time>2026-01-18T09:38:47.000Z</time>
      </trkpt>
      <trkpt lat="45.28704" lon="5.66758">
        <ele>670.59997558594</ele>
        <time>2026-01-18T09:38:52.000Z</time>
      </trkpt>
      <trkpt lat="45.28703" lon="5.66761">
        <ele>671.20001220703</ele>
        <time>2026-01-18T09:38:57.000Z</time>
      </trkpt>
      <trkpt lat="45.28704" lon="5.66763">
        <ele>671.40002441406</ele>
        <time>2026-01-18T09:38:59.000Z</time>
      </trkpt>
      <trkpt lat="45.28708" lon="5.66764">
        <ele>672.20001220703</ele>
        <time>2026-01-18T09:39:04.000Z</time>
      </trkpt>
      <trkpt lat="45.28707" lon="5.66766">
        <ele>672.40002441406</ele>
        <time>2026-01-18T09:39:06.000Z</time>
      </trkpt>
      <trkpt lat="45.28707" lon="5.66771">
        <ele>673.40002441406</ele>
        <time>2026-01-18T09:39:13.000Z</time>
      </trkpt>
      <trkpt lat="45.28708" lon="5.66776">
        <ele>673.79998779297</ele>
        <time>2026-01-18T09:39:17.000Z</time>
      </trkpt>
      <trkpt lat="45.28707" lon="5.66779">
        <ele>674.20001220703</ele>
        <time>2026-01-18T09:39:20.000Z</time>
      </trkpt>
      <trkpt lat="45.28707" lon="5.6678">
        <ele>674.40002441406</ele>
        <time>2026-01-18T09:39:22.000Z</time>
      </trkpt>
      <trkpt lat="45.28707" lon="5.66783">
        <ele>674.59997558594</ele>
        <time>2026-01-18T09:39:25.000Z</time>
      </trkpt>
      <trkpt lat="45.28707" lon="5.66784">
        <ele>675.20001220703</ele>
        <time>2026-01-18T09:39:29.000Z</time>
      </trkpt>
      <trkpt lat="45.28708" lon="5.66785">
        <ele>675.40002441406</ele>
        <time>2026-01-18T09:39:33.000Z</time>
      </trkpt>
      <trkpt lat="45.28708" lon="5.66786">
        <ele>675.59997558594</ele>
        <time>2026-01-18T09:39:35.000Z</time>
      </trkpt>
      <trkpt lat="45.28708" lon="5.66785">
        <ele>676</ele>
        <time>2026-01-18T09:39:39.000Z</time>
      </trkpt>
      <trkpt lat="45.28708" lon="5.66785">
        <ele>676.20001220703</ele>
        <time>2026-01-18T09:39:44.000Z</time>
      </trkpt>
      <trkpt lat="45.28708" lon="5.66785">
        <ele>676.20001220703</ele>
        <time>2026-01-18T09:39:45.000Z</time>
      </trkpt>
      <trkpt lat="45.28708" lon="5.66785">
        <ele>676.20001220703</ele>
        <time>2026-01-18T09:39:47.000Z</time>
      </trkpt>
      <trkpt lat="45.28708" lon="5.66784">
        <ele>676.40002441406</ele>
        <time>2026-01-18T09:40:01.000Z</time>
      </trkpt>
      <trkpt lat="45.28708" lon="5.66784">
        <ele>676.79998779297</ele>
        <time>2026-01-18T09:40:10.000Z</time>
      </trkpt>
      <trkpt lat="45.28708" lon="5.66782">
        <ele>677.59997558594</ele>
        <time>2026-01-18T09:40:15.000Z</time>
      </trkpt>
      <trkpt lat="45.28708" lon="5.6678">
        <ele>677.79998779297</ele>
        <time>2026-01-18T09:40:17.000Z</time>
      </trkpt>
      <trkpt lat="45.28708" lon="5.66775">
        <ele>678.20001220703</ele>
        <time>2026-01-18T09:40:20.000Z</time>
      </trkpt>
      <trkpt lat="45.28708" lon="5.66771">
        <ele>678.59997558594</ele>
        <time>2026-01-18T09:40:22.000Z</time>
      </trkpt>
      <trkpt lat="45.28709" lon="5.66768">
        <ele>679</ele>
        <time>2026-01-18T09:40:25.000Z</time>
      </trkpt>
      <trkpt lat="45.2871" lon="5.66765">
        <ele>679.79998779297</ele>
        <time>2026-01-18T09:40:29.000Z</time>
      </trkpt>
      <trkpt lat="45.28712" lon="5.66759">
        <ele>680.40002441406</ele>
        <time>2026-01-18T09:40:34.000Z</time>
      </trkpt>
      <trkpt lat="45.28713" lon="5.66757">
        <ele>681</ele>
        <time>2026-01-18T09:40:37.000Z</time>
      </trkpt>
      <trkpt lat="45.28713" lon="5.66755">
        <ele>681.20001220703</ele>
        <time>2026-01-18T09:40:39.000Z</time>
      </trkpt>
      <trkpt lat="45.28714" lon="5.66751">
        <ele>682</ele>
        <time>2026-01-18T09:40:44.000Z</time>
      </trkpt>
      <trkpt lat="45.28713" lon="5.66749">
        <ele>682</ele>
        <time>2026-01-18T09:40:45.000Z</time>
      </trkpt>
      <trkpt lat="45.28714" lon="5.66746">
        <ele>682.79998779297</ele>
        <time>2026-01-18T09:40:49.000Z</time>
      </trkpt>
      <trkpt lat="45.28713" lon="5.66745">
        <ele>683</ele>
        <time>2026-01-18T09:40:51.000Z</time>
      </trkpt>
      <trkpt lat="45.28714" lon="5.66745">
        <ele>683.20001220703</ele>
        <time>2026-01-18T09:40:52.000Z</time>
      </trkpt>
      <trkpt lat="45.28714" lon="5.66743">
        <ele>684</ele>
        <time>2026-01-18T09:40:57.000Z</time>
      </trkpt>
      <trkpt lat="45.28716" lon="5.66743">
        <ele>684.20001220703</ele>
        <time>2026-01-18T09:40:58.000Z</time>
      </trkpt>
      <trkpt lat="45.28716" lon="5.66741">
        <ele>684.79998779297</ele>
        <time>2026-01-18T09:41:02.000Z</time>
      </trkpt>
      <trkpt lat="45.28717" lon="5.66739">
        <ele>685.20001220703</ele>
        <time>2026-01-18T09:41:04.000Z</time>
      </trkpt>
      <trkpt lat="45.28718" lon="5.66733">
        <ele>686.20001220703</ele>
        <time>2026-01-18T09:41:10.000Z</time>
      </trkpt>
      <trkpt lat="45.28719" lon="5.66731">
        <ele>686.20001220703</ele>
        <time>2026-01-18T09:41:11.000Z</time>
      </trkpt>
      <trkpt lat="45.2872" lon="5.66728">
        <ele>686.79998779297</ele>
        <time>2026-01-18T09:41:15.000Z</time>
      </trkpt>
      <trkpt lat="45.2872" lon="5.66727">
        <ele>687</ele>
        <time>2026-01-18T09:41:16.000Z</time>
      </trkpt>
      <trkpt lat="45.28721" lon="5.66725">
        <ele>687.20001220703</ele>
        <time>2026-01-18T09:41:18.000Z</time>
      </trkpt>
      <trkpt lat="45.28723" lon="5.66719">
        <ele>688.40002441406</ele>
        <time>2026-01-18T09:41:25.000Z</time>
      </trkpt>
      <trkpt lat="45.28724" lon="5.66717">
        <ele>689.40002441406</ele>
        <time>2026-01-18T09:41:31.000Z</time>
      </trkpt>
      <trkpt lat="45.28724" lon="5.66716">
        <ele>689.40002441406</ele>
        <time>2026-01-18T09:41:32.000Z</time>
      </trkpt>
      <trkpt lat="45.28726" lon="5.66714">
        <ele>690</ele>
        <time>2026-01-18T09:41:35.000Z</time>
      </trkpt>
      <trkpt lat="45.28727" lon="5.66713">
        <ele>690.59997558594</ele>
        <time>2026-01-18T09:41:38.000Z</time>
      </trkpt>
      <trkpt lat="45.28728" lon="5.66712">
        <ele>691.40002441406</ele>
        <time>2026-01-18T09:41:44.000Z</time>
      </trkpt>
      <trkpt lat="45.28729" lon="5.66712">
        <ele>691.59997558594</ele>
        <time>2026-01-18T09:41:46.000Z</time>
      </trkpt>
      <trkpt lat="45.2873" lon="5.66712">
        <ele>692</ele>
        <time>2026-01-18T09:41:51.000Z</time>
      </trkpt>
      <trkpt lat="45.2873" lon="5.66712">
        <ele>692</ele>
        <time>2026-01-18T09:41:58.000Z</time>
      </trkpt>
      <trkpt lat="45.2873" lon="5.66712">
        <ele>692</ele>
        <time>2026-01-18T09:41:59.000Z</time>
      </trkpt>
      <trkpt lat="45.2873" lon="5.66712">
        <ele>692.59997558594</ele>
        <time>2026-01-18T09:42:07.000Z</time>
      </trkpt>
      <trkpt lat="45.2873" lon="5.66712">
        <ele>693.79998779297</ele>
        <time>2026-01-18T09:42:14.000Z</time>
      </trkpt>
      <trkpt lat="45.28731" lon="5.66712">
        <ele>694.79998779297</ele>
        <time>2026-01-18T09:42:21.000Z</time>
      </trkpt>
      <trkpt lat="45.28736" lon="5.66715">
        <ele>696</ele>
        <time>2026-01-18T09:42:27.000Z</time>
      </trkpt>
      <trkpt lat="45.28737" lon="5.66716">
        <ele>696.20001220703</ele>
        <time>2026-01-18T09:42:28.000Z</time>
      </trkpt>
      <trkpt lat="45.2874" lon="5.66717">
        <ele>696.59997558594</ele>
        <time>2026-01-18T09:42:30.000Z</time>
      </trkpt>
      <trkpt lat="45.28746" lon="5.6672">
        <ele>697.20001220703</ele>
        <time>2026-01-18T09:42:34.000Z</time>
      </trkpt>
      <trkpt lat="45.28746" lon="5.6672">
        <ele>697.20001220703</ele>
        <time>2026-01-18T09:42:35.000Z</time>
      </trkpt>
      <trkpt lat="45.28751" lon="5.66721">
        <ele>698.40002441406</ele>
        <time>2026-01-18T09:42:41.000Z</time>
      </trkpt>
      <trkpt lat="45.28752" lon="5.66721">
        <ele>698.59997558594</ele>
        <time>2026-01-18T09:42:43.000Z</time>
      </trkpt>
      <trkpt lat="45.28754" lon="5.66724">
        <ele>699.59997558594</ele>
        <time>2026-01-18T09:42:48.000Z</time>
      </trkpt>
      <trkpt lat="45.28756" lon="5.66726">
        <ele>700</ele>
        <time>2026-01-18T09:42:51.000Z</time>
      </trkpt>
      <trkpt lat="45.28756" lon="5.66726">
        <ele>700</ele>
        <time>2026-01-18T09:42:52.000Z</time>
      </trkpt>
      <trkpt lat="45.28757" lon="5.66729">
        <ele>700.59997558594</ele>
        <time>2026-01-18T09:42:56.000Z</time>
      </trkpt>
      <trkpt lat="45.28757" lon="5.66731">
        <ele>701</ele>
        <time>2026-01-18T09:42:59.000Z</time>
      </trkpt>
      <trkpt lat="45.28759" lon="5.66735">
        <ele>701.59997558594</ele>
        <time>2026-01-18T09:43:04.000Z</time>
      </trkpt>
      <trkpt lat="45.28761" lon="5.66737">
        <ele>702.79998779297</ele>
        <time>2026-01-18T09:43:09.000Z</time>
      </trkpt>
      <trkpt lat="45.28761" lon="5.66737">
        <ele>702.79998779297</ele>
        <time>2026-01-18T09:43:10.000Z</time>
      </trkpt>
      <trkpt lat="45.2876" lon="5.66739">
        <ele>703.20001220703</ele>
        <time>2026-01-18T09:43:12.000Z</time>
      </trkpt>
      <trkpt lat="45.28761" lon="5.66741">
        <ele>703.79998779297</ele>
        <time>2026-01-18T09:43:15.000Z</time>
      </trkpt>
      <trkpt lat="45.28761" lon="5.66741">
        <ele>704</ele>
        <time>2026-01-18T09:43:16.000Z</time>
      </trkpt>
      <trkpt lat="45.28762" lon="5.66743">
        <ele>704.59997558594</ele>
        <time>2026-01-18T09:43:19.000Z</time>
      </trkpt>
      <trkpt lat="45.28762" lon="5.66744">
        <ele>705</ele>
        <time>2026-01-18T09:43:22.000Z</time>
      </trkpt>
      <trkpt lat="45.28763" lon="5.66745">
        <ele>705</ele>
        <time>2026-01-18T09:43:23.000Z</time>
      </trkpt>
      <trkpt lat="45.28766" lon="5.66747">
        <ele>706</ele>
        <time>2026-01-18T09:43:29.000Z</time>
      </trkpt>
      <trkpt lat="45.28766" lon="5.66746">
        <ele>706.20001220703</ele>
        <time>2026-01-18T09:43:30.000Z</time>
      </trkpt>
      <trkpt lat="45.28767" lon="5.66748">
        <ele>707.20001220703</ele>
        <time>2026-01-18T09:43:36.000Z</time>
      </trkpt>
      <trkpt lat="45.28768" lon="5.66749">
        <ele>707.20001220703</ele>
        <time>2026-01-18T09:43:37.000Z</time>
      </trkpt>
      <trkpt lat="45.28771" lon="5.66751">
        <ele>708.20001220703</ele>
        <time>2026-01-18T09:43:43.000Z</time>
      </trkpt>
      <trkpt lat="45.28773" lon="5.66753">
        <ele>709.20001220703</ele>
        <time>2026-01-18T09:43:48.000Z</time>
      </trkpt>
      <trkpt lat="45.28774" lon="5.66753">
        <ele>709.40002441406</ele>
        <time>2026-01-18T09:43:49.000Z</time>
      </trkpt>
      <trkpt lat="45.28773" lon="5.66754">
        <ele>709.79998779297</ele>
        <time>2026-01-18T09:43:53.000Z</time>
      </trkpt>
      <trkpt lat="45.28772" lon="5.66756">
        <ele>710.40002441406</ele>
        <time>2026-01-18T09:43:56.000Z</time>
      </trkpt>
      <trkpt lat="45.28773" lon="5.66756">
        <ele>710.79998779297</ele>
        <time>2026-01-18T09:43:59.000Z</time>
      </trkpt>
      <trkpt lat="45.28772" lon="5.66757">
        <ele>710.79998779297</ele>
        <time>2026-01-18T09:44:05.000Z</time>
      </trkpt>
      <trkpt lat="45.28772" lon="5.66756">
        <ele>710.59997558594</ele>
        <time>2026-01-18T09:44:10.000Z</time>
      </trkpt>
      <trkpt lat="45.28772" lon="5.66756">
        <ele>710.59997558594</ele>
        <time>2026-01-18T09:44:14.000Z</time>
      </trkpt>
      <trkpt lat="45.28772" lon="5.66756">
        <ele>710.59997558594</ele>
        <time>2026-01-18T09:44:15.000Z</time>
      </trkpt>
      <trkpt lat="45.28773" lon="5.66758">
        <ele>711.40002441406</ele>
        <time>2026-01-18T09:44:32.000Z</time>
      </trkpt>
      <trkpt lat="45.28773" lon="5.66759">
        <ele>711.79998779297</ele>
        <time>2026-01-18T09:44:36.000Z</time>
      </trkpt>
      <trkpt lat="45.28773" lon="5.6676">
        <ele>712.40002441406</ele>
        <time>2026-01-18T09:44:39.000Z</time>
      </trkpt>
      <trkpt lat="45.28773" lon="5.6676">
        <ele>712.40002441406</ele>
        <time>2026-01-18T09:44:40.000Z</time>
      </trkpt>
      <trkpt lat="45.28773" lon="5.66761">
        <ele>712.79998779297</ele>
        <time>2026-01-18T09:44:42.000Z</time>
      </trkpt>
      <trkpt lat="45.28774" lon="5.66762">
        <ele>713.59997558594</ele>
        <time>2026-01-18T09:44:47.000Z</time>
      </trkpt>
      <trkpt lat="45.28774" lon="5.66763">
        <ele>714.59997558594</ele>
        <time>2026-01-18T09:44:53.000Z</time>
      </trkpt>
      <trkpt lat="45.28774" lon="5.66763">
        <ele>715</ele>
        <time>2026-01-18T09:44:56.000Z</time>
      </trkpt>
      <trkpt lat="45.28774" lon="5.66763">
        <ele>715</ele>
        <time>2026-01-18T09:44:57.000Z</time>
      </trkpt>
      <trkpt lat="45.28775" lon="5.66763">
        <ele>715.59997558594</ele>
        <time>2026-01-18T09:45:00.000Z</time>
      </trkpt>
      <trkpt lat="45.28777" lon="5.66767">
        <ele>716.59997558594</ele>
        <time>2026-01-18T09:45:08.000Z</time>
      </trkpt>
      <trkpt lat="45.28779" lon="5.66768">
        <ele>717.59997558594</ele>
        <time>2026-01-18T09:45:14.000Z</time>
      </trkpt>
      <trkpt lat="45.28779" lon="5.66768">
        <ele>718.20001220703</ele>
        <time>2026-01-18T09:45:17.000Z</time>
      </trkpt>
      <trkpt lat="45.2878" lon="5.66768">
        <ele>718.59997558594</ele>
        <time>2026-01-18T09:45:19.000Z</time>
      </trkpt>
      <trkpt lat="45.2878" lon="5.66768">
        <ele>718.79998779297</ele>
        <time>2026-01-18T09:45:20.000Z</time>
      </trkpt>
      <trkpt lat="45.28783" lon="5.6677">
        <ele>720</ele>
        <time>2026-01-18T09:45:26.000Z</time>
      </trkpt>
      <trkpt lat="45.28784" lon="5.66771">
        <ele>720.79998779297</ele>
        <time>2026-01-18T09:45:32.000Z</time>
      </trkpt>
      <trkpt lat="45.28784" lon="5.66771">
        <ele>721.20001220703</ele>
        <time>2026-01-18T09:45:33.000Z</time>
      </trkpt>
      <trkpt lat="45.28787" lon="5.66773">
        <ele>722</ele>
        <time>2026-01-18T09:45:39.000Z</time>
      </trkpt>
      <trkpt lat="45.28789" lon="5.66774">
        <ele>722.20001220703</ele>
        <time>2026-01-18T09:45:41.000Z</time>
      </trkpt>
      <trkpt lat="45.2879" lon="5.66776">
        <ele>722.40002441406</ele>
        <time>2026-01-18T09:45:43.000Z</time>
      </trkpt>
      <trkpt lat="45.28795" lon="5.66782">
        <ele>723</ele>
        <time>2026-01-18T09:45:48.000Z</time>
      </trkpt>
      <trkpt lat="45.28795" lon="5.66782">
        <ele>723.20001220703</ele>
        <time>2026-01-18T09:45:49.000Z</time>
      </trkpt>
      <trkpt lat="45.28796" lon="5.66784">
        <ele>723.59997558594</ele>
        <time>2026-01-18T09:45:51.000Z</time>
      </trkpt>
      <trkpt lat="45.28799" lon="5.66785">
        <ele>723.79998779297</ele>
        <time>2026-01-18T09:45:53.000Z</time>
      </trkpt>
      <trkpt lat="45.288" lon="5.66786">
        <ele>724.40002441406</ele>
        <time>2026-01-18T09:45:56.000Z</time>
      </trkpt>
      <trkpt lat="45.28801" lon="5.66785">
        <ele>724.79998779297</ele>
        <time>2026-01-18T09:45:59.000Z</time>
      </trkpt>
      <trkpt lat="45.28803" lon="5.66786">
        <ele>725.40002441406</ele>
        <time>2026-01-18T09:46:02.000Z</time>
      </trkpt>
      <trkpt lat="45.28803" lon="5.66787">
        <ele>725.40002441406</ele>
        <time>2026-01-18T09:46:03.000Z</time>
      </trkpt>
      <trkpt lat="45.28804" lon="5.66788">
        <ele>726.40002441406</ele>
        <time>2026-01-18T09:46:08.000Z</time>
      </trkpt>
      <trkpt lat="45.28804" lon="5.6679">
        <ele>726.40002441406</ele>
        <time>2026-01-18T09:46:09.000Z</time>
      </trkpt>
      <trkpt lat="45.28806" lon="5.66793">
        <ele>727.20001220703</ele>
        <time>2026-01-18T09:46:13.000Z</time>
      </trkpt>
      <trkpt lat="45.28807" lon="5.66793">
        <ele>727.59997558594</ele>
        <time>2026-01-18T09:46:14.000Z</time>
      </trkpt>
      <trkpt lat="45.28809" lon="5.66794">
        <ele>728.20001220703</ele>
        <time>2026-01-18T09:46:18.000Z</time>
      </trkpt>
      <trkpt lat="45.28812" lon="5.66796">
        <ele>728.59997558594</ele>
        <time>2026-01-18T09:46:21.000Z</time>
      </trkpt>
      <trkpt lat="45.28814" lon="5.66797">
        <ele>729.20001220703</ele>
        <time>2026-01-18T09:46:25.000Z</time>
      </trkpt>
      <trkpt lat="45.28815" lon="5.66796">
        <ele>729.59997558594</ele>
        <time>2026-01-18T09:46:27.000Z</time>
      </trkpt>
      <trkpt lat="45.28816" lon="5.66796">
        <ele>730.20001220703</ele>
        <time>2026-01-18T09:46:31.000Z</time>
      </trkpt>
      <trkpt lat="45.28817" lon="5.66796">
        <ele>730.79998779297</ele>
        <time>2026-01-18T09:46:34.000Z</time>
      </trkpt>
      <trkpt lat="45.28817" lon="5.66798">
        <ele>731</ele>
        <time>2026-01-18T09:46:36.000Z</time>
      </trkpt>
      <trkpt lat="45.28817" lon="5.66799">
        <ele>731.40002441406</ele>
        <time>2026-01-18T09:46:38.000Z</time>
      </trkpt>
      <trkpt lat="45.28817" lon="5.668">
        <ele>731.79998779297</ele>
        <time>2026-01-18T09:46:40.000Z</time>
      </trkpt>
      <trkpt lat="45.28817" lon="5.66799">
        <ele>732.20001220703</ele>
        <time>2026-01-18T09:46:44.000Z</time>
      </trkpt>
      <trkpt lat="45.28818" lon="5.66796">
        <ele>732.79998779297</ele>
        <time>2026-01-18T09:46:48.000Z</time>
      </trkpt>
      <trkpt lat="45.2882" lon="5.66793">
        <ele>733.40002441406</ele>
        <time>2026-01-18T09:46:52.000Z</time>
      </trkpt>
      <trkpt lat="45.28822" lon="5.66791">
        <ele>734</ele>
        <time>2026-01-18T09:46:57.000Z</time>
      </trkpt>
      <trkpt lat="45.28822" lon="5.66791">
        <ele>734.20001220703</ele>
        <time>2026-01-18T09:46:58.000Z</time>
      </trkpt>
      <trkpt lat="45.28825" lon="5.66787">
        <ele>735</ele>
        <time>2026-01-18T09:47:05.000Z</time>
      </trkpt>
      <trkpt lat="45.28825" lon="5.66786">
        <ele>735</ele>
        <time>2026-01-18T09:47:06.000Z</time>
      </trkpt>
      <trkpt lat="45.28826" lon="5.66783">
        <ele>735.79998779297</ele>
        <time>2026-01-18T09:47:12.000Z</time>
      </trkpt>
      <trkpt lat="45.28826" lon="5.66782">
        <ele>736.20001220703</ele>
        <time>2026-01-18T09:47:14.000Z</time>
      </trkpt>
      <trkpt lat="45.28826" lon="5.66781">
        <ele>736.40002441406</ele>
        <time>2026-01-18T09:47:17.000Z</time>
      </trkpt>
      <trkpt lat="45.28828" lon="5.6678">
        <ele>737</ele>
        <time>2026-01-18T09:47:22.000Z</time>
      </trkpt>
      <trkpt lat="45.28828" lon="5.66778">
        <ele>737.20001220703</ele>
        <time>2026-01-18T09:47:23.000Z</time>
      </trkpt>
      <trkpt lat="45.28829" lon="5.66778">
        <ele>737.20001220703</ele>
        <time>2026-01-18T09:47:24.000Z</time>
      </trkpt>
      <trkpt lat="45.28829" lon="5.66777">
        <ele>737.59997558594</ele>
        <time>2026-01-18T09:47:26.000Z</time>
      </trkpt>
      <trkpt lat="45.2883" lon="5.66772">
        <ele>738.20001220703</ele>
        <time>2026-01-18T09:47:32.000Z</time>
      </trkpt>
      <trkpt lat="45.28833" lon="5.66767">
        <ele>739.40002441406</ele>
        <time>2026-01-18T09:47:39.000Z</time>
      </trkpt>
      <trkpt lat="45.28833" lon="5.66766">
        <ele>739.40002441406</ele>
        <time>2026-01-18T09:47:40.000Z</time>
      </trkpt>
      <trkpt lat="45.28834" lon="5.66761">
        <ele>740.40002441406</ele>
        <time>2026-01-18T09:47:47.000Z</time>
      </trkpt>
      <trkpt lat="45.28835" lon="5.6676">
        <ele>740.59997558594</ele>
        <time>2026-01-18T09:47:49.000Z</time>
      </trkpt>
      <trkpt lat="45.28834" lon="5.66757">
        <ele>741.20001220703</ele>
        <time>2026-01-18T09:47:54.000Z</time>
      </trkpt>
      <trkpt lat="45.28834" lon="5.66755">
        <ele>741.59997558594</ele>
        <time>2026-01-18T09:47:57.000Z</time>
      </trkpt>
      <trkpt lat="45.28834" lon="5.66753">
        <ele>741.79998779297</ele>
        <time>2026-01-18T09:47:59.000Z</time>
      </trkpt>
      <trkpt lat="45.28833" lon="5.66747">
        <ele>742.40002441406</ele>
        <time>2026-01-18T09:48:06.000Z</time>
      </trkpt>
      <trkpt lat="45.28834" lon="5.66746">
        <ele>742.59997558594</ele>
        <time>2026-01-18T09:48:07.000Z</time>
      </trkpt>
      <trkpt lat="45.28833" lon="5.66744">
        <ele>743</ele>
        <time>2026-01-18T09:48:11.000Z</time>
      </trkpt>
      <trkpt lat="45.28833" lon="5.66742">
        <ele>743.59997558594</ele>
        <time>2026-01-18T09:48:15.000Z</time>
      </trkpt>
      <trkpt lat="45.28833" lon="5.66739">
        <ele>744.20001220703</ele>
        <time>2026-01-18T09:48:19.000Z</time>
      </trkpt>
      <trkpt lat="45.28834" lon="5.66736">
        <ele>744.59997558594</ele>
        <time>2026-01-18T09:48:22.000Z</time>
      </trkpt>
      <trkpt lat="45.28836" lon="5.66731">
        <ele>745</ele>
        <time>2026-01-18T09:48:26.000Z</time>
      </trkpt>
      <trkpt lat="45.28838" lon="5.66724">
        <ele>745.59997558594</ele>
        <time>2026-01-18T09:48:31.000Z</time>
      </trkpt>
      <trkpt lat="45.28838" lon="5.66722">
        <ele>746</ele>
        <time>2026-01-18T09:48:33.000Z</time>
      </trkpt>
      <trkpt lat="45.28839" lon="5.66716">
        <ele>746.59997558594</ele>
        <time>2026-01-18T09:48:38.000Z</time>
      </trkpt>
      <trkpt lat="45.28839" lon="5.66716">
        <ele>746.59997558594</ele>
        <time>2026-01-18T09:48:40.000Z</time>
      </trkpt>
      <trkpt lat="45.28841" lon="5.66713">
        <ele>747.20001220703</ele>
        <time>2026-01-18T09:48:44.000Z</time>
      </trkpt>
      <trkpt lat="45.28842" lon="5.66713">
        <ele>747.20001220703</ele>
        <time>2026-01-18T09:48:45.000Z</time>
      </trkpt>
      <trkpt lat="45.28842" lon="5.66711">
        <ele>747.59997558594</ele>
        <time>2026-01-18T09:48:47.000Z</time>
      </trkpt>
      <trkpt lat="45.28842" lon="5.66708">
        <ele>747.79998779297</ele>
        <time>2026-01-18T09:48:49.000Z</time>
      </trkpt>
      <trkpt lat="45.28844" lon="5.66705">
        <ele>748.40002441406</ele>
        <time>2026-01-18T09:48:53.000Z</time>
      </trkpt>
      <trkpt lat="45.28845" lon="5.66703">
        <ele>748.79998779297</ele>
        <time>2026-01-18T09:48:57.000Z</time>
      </trkpt>
      <trkpt lat="45.28845" lon="5.66701">
        <ele>749</ele>
        <time>2026-01-18T09:48:59.000Z</time>
      </trkpt>
      <trkpt lat="45.28847" lon="5.66695">
        <ele>750</ele>
        <time>2026-01-18T09:49:05.000Z</time>
      </trkpt>
      <trkpt lat="45.28847" lon="5.66694">
        <ele>750</ele>
        <time>2026-01-18T09:49:06.000Z</time>
      </trkpt>
      <trkpt lat="45.2885" lon="5.66687">
        <ele>751</ele>
        <time>2026-01-18T09:49:13.000Z</time>
      </trkpt>
      <trkpt lat="45.2885" lon="5.66684">
        <ele>751.40002441406</ele>
        <time>2026-01-18T09:49:16.000Z</time>
      </trkpt>
      <trkpt lat="45.28853" lon="5.66679">
        <ele>752.20001220703</ele>
        <time>2026-01-18T09:49:21.000Z</time>
      </trkpt>
      <trkpt lat="45.28853" lon="5.66677">
        <ele>752.40002441406</ele>
        <time>2026-01-18T09:49:22.000Z</time>
      </trkpt>
      <trkpt lat="45.28853" lon="5.66672">
        <ele>753.20001220703</ele>
        <time>2026-01-18T09:49:28.000Z</time>
      </trkpt>
      <trkpt lat="45.28854" lon="5.6667">
        <ele>753.40002441406</ele>
        <time>2026-01-18T09:49:30.000Z</time>
      </trkpt>
      <trkpt lat="45.28856" lon="5.66663">
        <ele>754</ele>
        <time>2026-01-18T09:49:34.000Z</time>
      </trkpt>
      <trkpt lat="45.28856" lon="5.66663">
        <ele>754.20001220703</ele>
        <time>2026-01-18T09:49:35.000Z</time>
      </trkpt>
      <trkpt lat="45.28856" lon="5.66661">
        <ele>754.59997558594</ele>
        <time>2026-01-18T09:49:37.000Z</time>
      </trkpt>
      <trkpt lat="45.28856" lon="5.66658">
        <ele>755.40002441406</ele>
        <time>2026-01-18T09:49:42.000Z</time>
      </trkpt>
      <trkpt lat="45.28859" lon="5.66657">
        <ele>756</ele>
        <time>2026-01-18T09:49:47.000Z</time>
      </trkpt>
      <trkpt lat="45.2886" lon="5.66657">
        <ele>756.40002441406</ele>
        <time>2026-01-18T09:49:49.000Z</time>
      </trkpt>
      <trkpt lat="45.28863" lon="5.66654">
        <ele>756.79998779297</ele>
        <time>2026-01-18T09:49:53.000Z</time>
      </trkpt>
      <trkpt lat="45.28865" lon="5.66652">
        <ele>757.40002441406</ele>
        <time>2026-01-18T09:49:57.000Z</time>
      </trkpt>
      <trkpt lat="45.28866" lon="5.6665">
        <ele>757.79998779297</ele>
        <time>2026-01-18T09:50:00.000Z</time>
      </trkpt>
      <trkpt lat="45.28868" lon="5.66648">
        <ele>758.40002441406</ele>
        <time>2026-01-18T09:50:06.000Z</time>
      </trkpt>
      <trkpt lat="45.2887" lon="5.66644">
        <ele>759.40002441406</ele>
        <time>2026-01-18T09:50:12.000Z</time>
      </trkpt>
      <trkpt lat="45.28871" lon="5.66642">
        <ele>759.59997558594</ele>
        <time>2026-01-18T09:50:13.000Z</time>
      </trkpt>
      <trkpt lat="45.28874" lon="5.6664">
        <ele>760.40002441406</ele>
        <time>2026-01-18T09:50:20.000Z</time>
      </trkpt>
      <trkpt lat="45.28874" lon="5.6664">
        <ele>760.59997558594</ele>
        <time>2026-01-18T09:50:22.000Z</time>
      </trkpt>
      <trkpt lat="45.28876" lon="5.66639">
        <ele>761.40002441406</ele>
        <time>2026-01-18T09:50:28.000Z</time>
      </trkpt>
      <trkpt lat="45.28877" lon="5.66638">
        <ele>761.79998779297</ele>
        <time>2026-01-18T09:50:30.000Z</time>
      </trkpt>
      <trkpt lat="45.28877" lon="5.66635">
        <ele>762.59997558594</ele>
        <time>2026-01-18T09:50:36.000Z</time>
      </trkpt>
      <trkpt lat="45.28877" lon="5.66634">
        <ele>762.79998779297</ele>
        <time>2026-01-18T09:50:38.000Z</time>
      </trkpt>
      <trkpt lat="45.28878" lon="5.66628">
        <ele>763.79998779297</ele>
        <time>2026-01-18T09:50:45.000Z</time>
      </trkpt>
      <trkpt lat="45.28878" lon="5.66628">
        <ele>764</ele>
        <time>2026-01-18T09:50:46.000Z</time>
      </trkpt>
      <trkpt lat="45.28879" lon="5.66622">
        <ele>765</ele>
        <time>2026-01-18T09:50:53.000Z</time>
      </trkpt>
      <trkpt lat="45.28879" lon="5.66619">
        <ele>765.79998779297</ele>
        <time>2026-01-18T09:50:58.000Z</time>
      </trkpt>
      <trkpt lat="45.2888" lon="5.66617">
        <ele>766.20001220703</ele>
        <time>2026-01-18T09:51:00.000Z</time>
      </trkpt>
      <trkpt lat="45.2888" lon="5.66613">
        <ele>766.79998779297</ele>
        <time>2026-01-18T09:51:04.000Z</time>
      </trkpt>
      <trkpt lat="45.2888" lon="5.66612">
        <ele>767.20001220703</ele>
        <time>2026-01-18T09:51:06.000Z</time>
      </trkpt>
      <trkpt lat="45.28885" lon="5.6661">
        <ele>768.20001220703</ele>
        <time>2026-01-18T09:51:13.000Z</time>
      </trkpt>
      <trkpt lat="45.28885" lon="5.6661">
        <ele>768.40002441406</ele>
        <time>2026-01-18T09:51:14.000Z</time>
      </trkpt>
      <trkpt lat="45.28887" lon="5.66603">
        <ele>769.20001220703</ele>
        <time>2026-01-18T09:51:20.000Z</time>
      </trkpt>
      <trkpt lat="45.28888" lon="5.66602">
        <ele>769.40002441406</ele>
        <time>2026-01-18T09:51:21.000Z</time>
      </trkpt>
      <trkpt lat="45.2889" lon="5.66597">
        <ele>770</ele>
        <time>2026-01-18T09:51:27.000Z</time>
      </trkpt>
      <trkpt lat="45.2889" lon="5.66596">
        <ele>770.20001220703</ele>
        <time>2026-01-18T09:51:28.000Z</time>
      </trkpt>
      <trkpt lat="45.28891" lon="5.66595">
        <ele>770.40002441406</ele>
        <time>2026-01-18T09:51:29.000Z</time>
      </trkpt>
      <trkpt lat="45.28892" lon="5.66592">
        <ele>771</ele>
        <time>2026-01-18T09:51:34.000Z</time>
      </trkpt>
      <trkpt lat="45.28893" lon="5.6659">
        <ele>771.40002441406</ele>
        <time>2026-01-18T09:51:37.000Z</time>
      </trkpt>
      <trkpt lat="45.28892" lon="5.66588">
        <ele>771.79998779297</ele>
        <time>2026-01-18T09:51:40.000Z</time>
      </trkpt>
      <trkpt lat="45.28893" lon="5.66583">
        <ele>772.59997558594</ele>
        <time>2026-01-18T09:51:45.000Z</time>
      </trkpt>
      <trkpt lat="45.28893" lon="5.66581">
        <ele>772.79998779297</ele>
        <time>2026-01-18T09:51:47.000Z</time>
      </trkpt>
      <trkpt lat="45.28894" lon="5.66578">
        <ele>773.59997558594</ele>
        <time>2026-01-18T09:51:52.000Z</time>
      </trkpt>
      <trkpt lat="45.28895" lon="5.66575">
        <ele>774.59997558594</ele>
        <time>2026-01-18T09:51:58.000Z</time>
      </trkpt>
      <trkpt lat="45.28895" lon="5.66575">
        <ele>774.79998779297</ele>
        <time>2026-01-18T09:51:59.000Z</time>
      </trkpt>
      <trkpt lat="45.28898" lon="5.6657">
        <ele>775.79998779297</ele>
        <time>2026-01-18T09:52:06.000Z</time>
      </trkpt>
      <trkpt lat="45.28903" lon="5.6656">
        <ele>776.40002441406</ele>
        <time>2026-01-18T09:52:14.000Z</time>
      </trkpt>
      <trkpt lat="45.28905" lon="5.66559">
        <ele>776.59997558594</ele>
        <time>2026-01-18T09:52:17.000Z</time>
      </trkpt>
      <trkpt lat="45.28907" lon="5.66557">
        <ele>777</ele>
        <time>2026-01-18T09:52:21.000Z</time>
      </trkpt>
      <trkpt lat="45.28908" lon="5.66556">
        <ele>777.40002441406</ele>
        <time>2026-01-18T09:52:23.000Z</time>
      </trkpt>
      <trkpt lat="45.2891" lon="5.66554">
        <ele>778</ele>
        <time>2026-01-18T09:52:27.000Z</time>
      </trkpt>
      <trkpt lat="45.28911" lon="5.66549">
        <ele>778.79998779297</ele>
        <time>2026-01-18T09:52:32.000Z</time>
      </trkpt>
      <trkpt lat="45.28912" lon="5.66546">
        <ele>779</ele>
        <time>2026-01-18T09:52:36.000Z</time>
      </trkpt>
      <trkpt lat="45.28913" lon="5.66543">
        <ele>779.59997558594</ele>
        <time>2026-01-18T09:52:39.000Z</time>
      </trkpt>
      <trkpt lat="45.28915" lon="5.66539">
        <ele>780</ele>
        <time>2026-01-18T09:52:44.000Z</time>
      </trkpt>
      <trkpt lat="45.28915" lon="5.66539">
        <ele>780.20001220703</ele>
        <time>2026-01-18T09:52:45.000Z</time>
      </trkpt>
      <trkpt lat="45.28917" lon="5.66535">
        <ele>781</ele>
        <time>2026-01-18T09:52:50.000Z</time>
      </trkpt>
      <trkpt lat="45.28917" lon="5.66534">
        <ele>781.20001220703</ele>
        <time>2026-01-18T09:52:51.000Z</time>
      </trkpt>
      <trkpt lat="45.28922" lon="5.66537">
        <ele>782.20001220703</ele>
        <time>2026-01-18T09:52:58.000Z</time>
      </trkpt>
      <trkpt lat="45.28922" lon="5.66539">
        <ele>782.79998779297</ele>
        <time>2026-01-18T09:53:01.000Z</time>
      </trkpt>
      <trkpt lat="45.28922" lon="5.6654">
        <ele>782.79998779297</ele>
        <time>2026-01-18T09:53:02.000Z</time>
      </trkpt>
      <trkpt lat="45.28922" lon="5.66541">
        <ele>783</ele>
        <time>2026-01-18T09:53:03.000Z</time>
      </trkpt>
      <trkpt lat="45.28922" lon="5.66542">
        <ele>783.20001220703</ele>
        <time>2026-01-18T09:53:04.000Z</time>
      </trkpt>
      <trkpt lat="45.28922" lon="5.66541">
        <ele>783.40002441406</ele>
        <time>2026-01-18T09:53:05.000Z</time>
      </trkpt>
      <trkpt lat="45.28922" lon="5.66548">
        <ele>784</ele>
        <time>2026-01-18T09:53:11.000Z</time>
      </trkpt>
      <trkpt lat="45.28923" lon="5.66551">
        <ele>784.40002441406</ele>
        <time>2026-01-18T09:53:13.000Z</time>
      </trkpt>
      <trkpt lat="45.28924" lon="5.66556">
        <ele>784.40002441406</ele>
        <time>2026-01-18T09:53:19.000Z</time>
      </trkpt>
      <trkpt lat="45.28924" lon="5.66564">
        <ele>784.79998779297</ele>
        <time>2026-01-18T09:53:25.000Z</time>
      </trkpt>
      <trkpt lat="45.28925" lon="5.66567">
        <ele>785.40002441406</ele>
        <time>2026-01-18T09:53:29.000Z</time>
      </trkpt>
      <trkpt lat="45.28925" lon="5.66569">
        <ele>785.79998779297</ele>
        <time>2026-01-18T09:53:32.000Z</time>
      </trkpt>
      <trkpt lat="45.28924" lon="5.66569">
        <ele>786</ele>
        <time>2026-01-18T09:53:33.000Z</time>
      </trkpt>
      <trkpt lat="45.28925" lon="5.6657">
        <ele>786.20001220703</ele>
        <time>2026-01-18T09:53:34.000Z</time>
      </trkpt>
      <trkpt lat="45.28925" lon="5.66571">
        <ele>786.20001220703</ele>
        <time>2026-01-18T09:53:35.000Z</time>
      </trkpt>
      <trkpt lat="45.28925" lon="5.66572">
        <ele>786.40002441406</ele>
        <time>2026-01-18T09:53:36.000Z</time>
      </trkpt>
      <trkpt lat="45.28926" lon="5.66572">
        <ele>786.59997558594</ele>
        <time>2026-01-18T09:53:37.000Z</time>
      </trkpt>
      <trkpt lat="45.28929" lon="5.66577">
        <ele>787.59997558594</ele>
        <time>2026-01-18T09:53:44.000Z</time>
      </trkpt>
      <trkpt lat="45.28929" lon="5.66578">
        <ele>787.59997558594</ele>
        <time>2026-01-18T09:53:45.000Z</time>
      </trkpt>
      <trkpt lat="45.28929" lon="5.66578">
        <ele>788</ele>
        <time>2026-01-18T09:53:47.000Z</time>
      </trkpt>
      <trkpt lat="45.28931" lon="5.66582">
        <ele>788.59997558594</ele>
        <time>2026-01-18T09:53:51.000Z</time>
      </trkpt>
      <trkpt lat="45.28932" lon="5.66586">
        <ele>789.40002441406</ele>
        <time>2026-01-18T09:53:56.000Z</time>
      </trkpt>
      <trkpt lat="45.28933" lon="5.66588">
        <ele>789.79998779297</ele>
        <time>2026-01-18T09:53:58.000Z</time>
      </trkpt>
      <trkpt lat="45.28933" lon="5.66593">
        <ele>790.59997558594</ele>
        <time>2026-01-18T09:54:04.000Z</time>
      </trkpt>
      <trkpt lat="45.28933" lon="5.66593">
        <ele>790.79998779297</ele>
        <time>2026-01-18T09:54:05.000Z</time>
      </trkpt>
      <trkpt lat="45.28933" lon="5.66598">
        <ele>791.40002441406</ele>
        <time>2026-01-18T09:54:10.000Z</time>
      </trkpt>
      <trkpt lat="45.28934" lon="5.66601">
        <ele>792</ele>
        <time>2026-01-18T09:54:14.000Z</time>
      </trkpt>
      <trkpt lat="45.28937" lon="5.66607">
        <ele>792.59997558594</ele>
        <time>2026-01-18T09:54:19.000Z</time>
      </trkpt>
      <trkpt lat="45.28937" lon="5.66608">
        <ele>792.79998779297</ele>
        <time>2026-01-18T09:54:20.000Z</time>
      </trkpt>
      <trkpt lat="45.28937" lon="5.66611">
        <ele>793</ele>
        <time>2026-01-18T09:54:22.000Z</time>
      </trkpt>
      <trkpt lat="45.28938" lon="5.66614">
        <ele>793.59997558594</ele>
        <time>2026-01-18T09:54:25.000Z</time>
      </trkpt>
      <trkpt lat="45.2894" lon="5.66615">
        <ele>794.20001220703</ele>
        <time>2026-01-18T09:54:29.000Z</time>
      </trkpt>
      <trkpt lat="45.2894" lon="5.66618">
        <ele>794.59997558594</ele>
        <time>2026-01-18T09:54:32.000Z</time>
      </trkpt>
      <trkpt lat="45.2894" lon="5.66622">
        <ele>795.20001220703</ele>
        <time>2026-01-18T09:54:36.000Z</time>
      </trkpt>
      <trkpt lat="45.2894" lon="5.66623">
        <ele>795.40002441406</ele>
        <time>2026-01-18T09:54:38.000Z</time>
      </trkpt>
      <trkpt lat="45.2894" lon="5.66632">
        <ele>796.20001220703</ele>
        <time>2026-01-18T09:54:44.000Z</time>
      </trkpt>
      <trkpt lat="45.2894" lon="5.66634">
        <ele>796.20001220703</ele>
        <time>2026-01-18T09:54:45.000Z</time>
      </trkpt>
      <trkpt lat="45.2894" lon="5.66638">
        <ele>797.20001220703</ele>
        <time>2026-01-18T09:54:51.000Z</time>
      </trkpt>
      <trkpt lat="45.28941" lon="5.6664">
        <ele>797.40002441406</ele>
        <time>2026-01-18T09:54:53.000Z</time>
      </trkpt>
      <trkpt lat="45.28942" lon="5.66643">
        <ele>798.20001220703</ele>
        <time>2026-01-18T09:54:58.000Z</time>
      </trkpt>
      <trkpt lat="45.28945" lon="5.66644">
        <ele>798.40002441406</ele>
        <time>2026-01-18T09:55:00.000Z</time>
      </trkpt>
      <trkpt lat="45.28946" lon="5.66646">
        <ele>798.79998779297</ele>
        <time>2026-01-18T09:55:03.000Z</time>
      </trkpt>
      <trkpt lat="45.28946" lon="5.66652">
        <ele>799.40002441406</ele>
        <time>2026-01-18T09:55:09.000Z</time>
      </trkpt>
      <trkpt lat="45.28947" lon="5.66653">
        <ele>799.59997558594</ele>
        <time>2026-01-18T09:55:10.000Z</time>
      </trkpt>
      <trkpt lat="45.28946" lon="5.66656">
        <ele>800.20001220703</ele>
        <time>2026-01-18T09:55:14.000Z</time>
      </trkpt>
      <trkpt lat="45.28948" lon="5.66659">
        <ele>800.59997558594</ele>
        <time>2026-01-18T09:55:18.000Z</time>
      </trkpt>
      <trkpt lat="45.28948" lon="5.66661">
        <ele>800.79998779297</ele>
        <time>2026-01-18T09:55:20.000Z</time>
      </trkpt>
      <trkpt lat="45.28948" lon="5.66667">
        <ele>801.59997558594</ele>
        <time>2026-01-18T09:55:27.000Z</time>
      </trkpt>
      <trkpt lat="45.28948" lon="5.66668">
        <ele>802</ele>
        <time>2026-01-18T09:55:29.000Z</time>
      </trkpt>
      <trkpt lat="45.28949" lon="5.66674">
        <ele>802.59997558594</ele>
        <time>2026-01-18T09:55:35.000Z</time>
      </trkpt>
      <trkpt lat="45.2895" lon="5.66674">
        <ele>802.79998779297</ele>
        <time>2026-01-18T09:55:36.000Z</time>
      </trkpt>
      <trkpt lat="45.2895" lon="5.66678">
        <ele>803.59997558594</ele>
        <time>2026-01-18T09:55:43.000Z</time>
      </trkpt>
      <trkpt lat="45.2895" lon="5.66679">
        <ele>803.79998779297</ele>
        <time>2026-01-18T09:55:44.000Z</time>
      </trkpt>
      <trkpt lat="45.28951" lon="5.66683">
        <ele>804.59997558594</ele>
        <time>2026-01-18T09:55:51.000Z</time>
      </trkpt>
      <trkpt lat="45.28951" lon="5.66683">
        <ele>804.79998779297</ele>
        <time>2026-01-18T09:55:52.000Z</time>
      </trkpt>
      <trkpt lat="45.28954" lon="5.66688">
        <ele>805.40002441406</ele>
        <time>2026-01-18T09:55:57.000Z</time>
      </trkpt>
      <trkpt lat="45.28955" lon="5.6669">
        <ele>806</ele>
        <time>2026-01-18T09:56:01.000Z</time>
      </trkpt>
      <trkpt lat="45.28956" lon="5.66696">
        <ele>806.59997558594</ele>
        <time>2026-01-18T09:56:06.000Z</time>
      </trkpt>
      <trkpt lat="45.28958" lon="5.667">
        <ele>807</ele>
        <time>2026-01-18T09:56:10.000Z</time>
      </trkpt>
      <trkpt lat="45.28958" lon="5.66701">
        <ele>807.20001220703</ele>
        <time>2026-01-18T09:56:11.000Z</time>
      </trkpt>
      <trkpt lat="45.28957" lon="5.66702">
        <ele>807.40002441406</ele>
        <time>2026-01-18T09:56:12.000Z</time>
      </trkpt>
      <trkpt lat="45.28957" lon="5.66703">
        <ele>807.59997558594</ele>
        <time>2026-01-18T09:56:13.000Z</time>
      </trkpt>
      <trkpt lat="45.28957" lon="5.66706">
        <ele>808</ele>
        <time>2026-01-18T09:56:17.000Z</time>
      </trkpt>
      <trkpt lat="45.28956" lon="5.66707">
        <ele>808.20001220703</ele>
        <time>2026-01-18T09:56:18.000Z</time>
      </trkpt>
      <trkpt lat="45.28957" lon="5.66712">
        <ele>808.59997558594</ele>
        <time>2026-01-18T09:56:22.000Z</time>
      </trkpt>
      <trkpt lat="45.28958" lon="5.66717">
        <ele>809.20001220703</ele>
        <time>2026-01-18T09:56:25.000Z</time>
      </trkpt>
      <trkpt lat="45.28959" lon="5.6672">
        <ele>809.40002441406</ele>
        <time>2026-01-18T09:56:28.000Z</time>
      </trkpt>
      <trkpt lat="45.28961" lon="5.66723">
        <ele>810</ele>
        <time>2026-01-18T09:56:33.000Z</time>
      </trkpt>
      <trkpt lat="45.28962" lon="5.66724">
        <ele>810.20001220703</ele>
        <time>2026-01-18T09:56:35.000Z</time>
      </trkpt>
      <trkpt lat="45.28963" lon="5.66727">
        <ele>810.40002441406</ele>
        <time>2026-01-18T09:56:37.000Z</time>
      </trkpt>
      <trkpt lat="45.28963" lon="5.6673">
        <ele>811</ele>
        <time>2026-01-18T09:56:42.000Z</time>
      </trkpt>
      <trkpt lat="45.28965" lon="5.66733">
        <ele>811.40002441406</ele>
        <time>2026-01-18T09:56:47.000Z</time>
      </trkpt>
      <trkpt lat="45.28966" lon="5.66733">
        <ele>811.40002441406</ele>
        <time>2026-01-18T09:56:48.000Z</time>
      </trkpt>
      <trkpt lat="45.28967" lon="5.66737">
        <ele>812</ele>
        <time>2026-01-18T09:56:53.000Z</time>
      </trkpt>
      <trkpt lat="45.28968" lon="5.66739">
        <ele>812.40002441406</ele>
        <time>2026-01-18T09:56:55.000Z</time>
      </trkpt>
      <trkpt lat="45.28969" lon="5.66741">
        <ele>812.79998779297</ele>
        <time>2026-01-18T09:56:59.000Z</time>
      </trkpt>
      <trkpt lat="45.28971" lon="5.66741">
        <ele>813.40002441406</ele>
        <time>2026-01-18T09:57:02.000Z</time>
      </trkpt>
      <trkpt lat="45.28974" lon="5.66744">
        <ele>813.79998779297</ele>
        <time>2026-01-18T09:57:06.000Z</time>
      </trkpt>
      <trkpt lat="45.28978" lon="5.66749">
        <ele>814.40002441406</ele>
        <time>2026-01-18T09:57:11.000Z</time>
      </trkpt>
      <trkpt lat="45.28978" lon="5.66751">
        <ele>814.59997558594</ele>
        <time>2026-01-18T09:57:12.000Z</time>
      </trkpt>
      <trkpt lat="45.2898" lon="5.66755">
        <ele>815.20001220703</ele>
        <time>2026-01-18T09:57:16.000Z</time>
      </trkpt>
      <trkpt lat="45.2898" lon="5.66757">
        <ele>815.40002441406</ele>
        <time>2026-01-18T09:57:18.000Z</time>
      </trkpt>
      <trkpt lat="45.2898" lon="5.66757">
        <ele>815.40002441406</ele>
        <time>2026-01-18T09:57:19.000Z</time>
      </trkpt>
      <trkpt lat="45.28981" lon="5.66762">
        <ele>816</ele>
        <time>2026-01-18T09:57:24.000Z</time>
      </trkpt>
      <trkpt lat="45.2898" lon="5.66763">
        <ele>816</ele>
        <time>2026-01-18T09:57:25.000Z</time>
      </trkpt>
      <trkpt lat="45.28981" lon="5.66766">
        <ele>816.59997558594</ele>
        <time>2026-01-18T09:57:30.000Z</time>
      </trkpt>
      <trkpt lat="45.2898" lon="5.66773">
        <ele>817.59997558594</ele>
        <time>2026-01-18T09:57:39.000Z</time>
      </trkpt>
      <trkpt lat="45.2898" lon="5.66777">
        <ele>818</ele>
        <time>2026-01-18T09:57:43.000Z</time>
      </trkpt>
      <trkpt lat="45.2898" lon="5.6678">
        <ele>818.20001220703</ele>
        <time>2026-01-18T09:57:45.000Z</time>
      </trkpt>
      <trkpt lat="45.28981" lon="5.66783">
        <ele>818.79998779297</ele>
        <time>2026-01-18T09:57:49.000Z</time>
      </trkpt>
      <trkpt lat="45.28982" lon="5.66785">
        <ele>819</ele>
        <time>2026-01-18T09:57:51.000Z</time>
      </trkpt>
      <trkpt lat="45.28984" lon="5.66789">
        <ele>819.79998779297</ele>
        <time>2026-01-18T09:57:57.000Z</time>
      </trkpt>
      <trkpt lat="45.28987" lon="5.66795">
        <ele>820.59997558594</ele>
        <time>2026-01-18T09:58:03.000Z</time>
      </trkpt>
      <trkpt lat="45.28987" lon="5.66796">
        <ele>821</ele>
        <time>2026-01-18T09:58:05.000Z</time>
      </trkpt>
      <trkpt lat="45.2899" lon="5.66795">
        <ele>821.40002441406</ele>
        <time>2026-01-18T09:58:10.000Z</time>
      </trkpt>
      <trkpt lat="45.2899" lon="5.66797">
        <ele>822</ele>
        <time>2026-01-18T09:58:13.000Z</time>
      </trkpt>
      <trkpt lat="45.28993" lon="5.66801">
        <ele>822.79998779297</ele>
        <time>2026-01-18T09:58:19.000Z</time>
      </trkpt>
      <trkpt lat="45.28993" lon="5.66801">
        <ele>823</ele>
        <time>2026-01-18T09:58:20.000Z</time>
      </trkpt>
      <trkpt lat="45.28996" lon="5.66806">
        <ele>823.79998779297</ele>
        <time>2026-01-18T09:58:26.000Z</time>
      </trkpt>
      <trkpt lat="45.28998" lon="5.66808">
        <ele>824.20001220703</ele>
        <time>2026-01-18T09:58:28.000Z</time>
      </trkpt>
      <trkpt lat="45.28998" lon="5.66814">
        <ele>824.79998779297</ele>
        <time>2026-01-18T09:58:32.000Z</time>
      </trkpt>
      <trkpt lat="45.28998" lon="5.6682">
        <ele>825.40002441406</ele>
        <time>2026-01-18T09:58:36.000Z</time>
      </trkpt>
      <trkpt lat="45.28999" lon="5.66821">
        <ele>825.59997558594</ele>
        <time>2026-01-18T09:58:38.000Z</time>
      </trkpt>
      <trkpt lat="45.29001" lon="5.66824">
        <ele>826.20001220703</ele>
        <time>2026-01-18T09:58:42.000Z</time>
      </trkpt>
      <trkpt lat="45.29002" lon="5.66824">
        <ele>826.40002441406</ele>
        <time>2026-01-18T09:58:43.000Z</time>
      </trkpt>
      <trkpt lat="45.29003" lon="5.66828">
        <ele>827.20001220703</ele>
        <time>2026-01-18T09:58:48.000Z</time>
      </trkpt>
      <trkpt lat="45.29003" lon="5.66832">
        <ele>827.59997558594</ele>
        <time>2026-01-18T09:58:51.000Z</time>
      </trkpt>
      <trkpt lat="45.29004" lon="5.66832">
        <ele>827.79998779297</ele>
        <time>2026-01-18T09:58:53.000Z</time>
      </trkpt>
      <trkpt lat="45.29004" lon="5.66837">
        <ele>828.40002441406</ele>
        <time>2026-01-18T09:58:59.000Z</time>
      </trkpt>
      <trkpt lat="45.29004" lon="5.6684">
        <ele>828.59997558594</ele>
        <time>2026-01-18T09:59:01.000Z</time>
      </trkpt>
      <trkpt lat="45.29005" lon="5.66842">
        <ele>828.79998779297</ele>
        <time>2026-01-18T09:59:03.000Z</time>
      </trkpt>
      <trkpt lat="45.29006" lon="5.66844">
        <ele>829.20001220703</ele>
        <time>2026-01-18T09:59:05.000Z</time>
      </trkpt>
      <trkpt lat="45.29007" lon="5.66852">
        <ele>829.79998779297</ele>
        <time>2026-01-18T09:59:10.000Z</time>
      </trkpt>
      <trkpt lat="45.29009" lon="5.66855">
        <ele>830.20001220703</ele>
        <time>2026-01-18T09:59:14.000Z</time>
      </trkpt>
      <trkpt lat="45.2901" lon="5.6686">
        <ele>831</ele>
        <time>2026-01-18T09:59:19.000Z</time>
      </trkpt>
      <trkpt lat="45.29011" lon="5.66861">
        <ele>831</ele>
        <time>2026-01-18T09:59:20.000Z</time>
      </trkpt>
      <trkpt lat="45.29012" lon="5.66867">
        <ele>832</ele>
        <time>2026-01-18T09:59:27.000Z</time>
      </trkpt>
      <trkpt lat="45.29016" lon="5.6687">
        <ele>832.79998779297</ele>
        <time>2026-01-18T09:59:34.000Z</time>
      </trkpt>
      <trkpt lat="45.29016" lon="5.66873">
        <ele>833.20001220703</ele>
        <time>2026-01-18T09:59:36.000Z</time>
      </trkpt>
      <trkpt lat="45.29016" lon="5.66877">
        <ele>833.79998779297</ele>
        <time>2026-01-18T09:59:41.000Z</time>
      </trkpt>
      <trkpt lat="45.29017" lon="5.66878">
        <ele>834.20001220703</ele>
        <time>2026-01-18T09:59:44.000Z</time>
      </trkpt>
      <trkpt lat="45.29017" lon="5.6688">
        <ele>834.59997558594</ele>
        <time>2026-01-18T09:59:47.000Z</time>
      </trkpt>
      <trkpt lat="45.29018" lon="5.66883">
        <ele>835.20001220703</ele>
        <time>2026-01-18T09:59:51.000Z</time>
      </trkpt>
      <trkpt lat="45.29019" lon="5.66885">
        <ele>835.40002441406</ele>
        <time>2026-01-18T09:59:53.000Z</time>
      </trkpt>
      <trkpt lat="45.2902" lon="5.66893">
        <ele>836.20001220703</ele>
        <time>2026-01-18T10:00:00.000Z</time>
      </trkpt>
      <trkpt lat="45.29021" lon="5.66894">
        <ele>836.40002441406</ele>
        <time>2026-01-18T10:00:02.000Z</time>
      </trkpt>
      <trkpt lat="45.29023" lon="5.66898">
        <ele>837</ele>
        <time>2026-01-18T10:00:06.000Z</time>
      </trkpt>
      <trkpt lat="45.29024" lon="5.66903">
        <ele>837.59997558594</ele>
        <time>2026-01-18T10:00:11.000Z</time>
      </trkpt>
      <trkpt lat="45.29026" lon="5.66908">
        <ele>838</ele>
        <time>2026-01-18T10:00:16.000Z</time>
      </trkpt>
      <trkpt lat="45.29026" lon="5.66914">
        <ele>838.40002441406</ele>
        <time>2026-01-18T10:00:21.000Z</time>
      </trkpt>
      <trkpt lat="45.29026" lon="5.66916">
        <ele>838.59997558594</ele>
        <time>2026-01-18T10:00:22.000Z</time>
      </trkpt>
      <trkpt lat="45.29026" lon="5.66917">
        <ele>838.59997558594</ele>
        <time>2026-01-18T10:00:23.000Z</time>
      </trkpt>
      <trkpt lat="45.29027" lon="5.66923">
        <ele>839.59997558594</ele>
        <time>2026-01-18T10:00:32.000Z</time>
      </trkpt>
      <trkpt lat="45.29027" lon="5.66924">
        <ele>839.59997558594</ele>
        <time>2026-01-18T10:00:33.000Z</time>
      </trkpt>
      <trkpt lat="45.29027" lon="5.66927">
        <ele>840</ele>
        <time>2026-01-18T10:00:36.000Z</time>
      </trkpt>
      <trkpt lat="45.29027" lon="5.66933">
        <ele>840.59997558594</ele>
        <time>2026-01-18T10:00:42.000Z</time>
      </trkpt>
      <trkpt lat="45.29027" lon="5.66934">
        <ele>840.79998779297</ele>
        <time>2026-01-18T10:00:43.000Z</time>
      </trkpt>
      <trkpt lat="45.29029" lon="5.66937">
        <ele>841.40002441406</ele>
        <time>2026-01-18T10:00:48.000Z</time>
      </trkpt>
      <trkpt lat="45.2903" lon="5.6694">
        <ele>841.79998779297</ele>
        <time>2026-01-18T10:00:52.000Z</time>
      </trkpt>
      <trkpt lat="45.2903" lon="5.6694">
        <ele>842</ele>
        <time>2026-01-18T10:00:53.000Z</time>
      </trkpt>
      <trkpt lat="45.29032" lon="5.66944">
        <ele>842.59997558594</ele>
        <time>2026-01-18T10:00:58.000Z</time>
      </trkpt>
      <trkpt lat="45.29033" lon="5.66948">
        <ele>843</ele>
        <time>2026-01-18T10:01:01.000Z</time>
      </trkpt>
      <trkpt lat="45.29034" lon="5.66949">
        <ele>843.20001220703</ele>
        <time>2026-01-18T10:01:03.000Z</time>
      </trkpt>
      <trkpt lat="45.29036" lon="5.66953">
        <ele>843.79998779297</ele>
        <time>2026-01-18T10:01:08.000Z</time>
      </trkpt>
      <trkpt lat="45.29037" lon="5.66954">
        <ele>844</ele>
        <time>2026-01-18T10:01:09.000Z</time>
      </trkpt>
      <trkpt lat="45.29039" lon="5.66957">
        <ele>844.79998779297</ele>
        <time>2026-01-18T10:01:15.000Z</time>
      </trkpt>
      <trkpt lat="45.29039" lon="5.66957">
        <ele>845</ele>
        <time>2026-01-18T10:01:16.000Z</time>
      </trkpt>
      <trkpt lat="45.29039" lon="5.6696">
        <ele>845.79998779297</ele>
        <time>2026-01-18T10:01:21.000Z</time>
      </trkpt>
      <trkpt lat="45.29039" lon="5.66962">
        <ele>846.20001220703</ele>
        <time>2026-01-18T10:01:24.000Z</time>
      </trkpt>
      <trkpt lat="45.29037" lon="5.66966">
        <ele>846.79998779297</ele>
        <time>2026-01-18T10:01:29.000Z</time>
      </trkpt>
      <trkpt lat="45.29036" lon="5.66968">
        <ele>847.20001220703</ele>
        <time>2026-01-18T10:01:32.000Z</time>
      </trkpt>
      <trkpt lat="45.29036" lon="5.66968">
        <ele>847.40002441406</ele>
        <time>2026-01-18T10:01:33.000Z</time>
      </trkpt>
      <trkpt lat="45.29036" lon="5.66969">
        <ele>847.40002441406</ele>
        <time>2026-01-18T10:01:35.000Z</time>
      </trkpt>
      <trkpt lat="45.29035" lon="5.66974">
        <ele>848.20001220703</ele>
        <time>2026-01-18T10:01:40.000Z</time>
      </trkpt>
      <trkpt lat="45.29034" lon="5.66977">
        <ele>848.40002441406</ele>
        <time>2026-01-18T10:01:42.000Z</time>
      </trkpt>
      <trkpt lat="45.29035" lon="5.66979">
        <ele>849</ele>
        <time>2026-01-18T10:01:45.000Z</time>
      </trkpt>
      <trkpt lat="45.29036" lon="5.66981">
        <ele>849.40002441406</ele>
        <time>2026-01-18T10:01:48.000Z</time>
      </trkpt>
      <trkpt lat="45.29037" lon="5.66986">
        <ele>850</ele>
        <time>2026-01-18T10:01:52.000Z</time>
      </trkpt>
      <trkpt lat="45.29037" lon="5.66987">
        <ele>850.59997558594</ele>
        <time>2026-01-18T10:01:56.000Z</time>
      </trkpt>
      <trkpt lat="45.29038" lon="5.66987">
        <ele>850.59997558594</ele>
        <time>2026-01-18T10:01:57.000Z</time>
      </trkpt>
      <trkpt lat="45.29039" lon="5.66991">
        <ele>851.40002441406</ele>
        <time>2026-01-18T10:02:03.000Z</time>
      </trkpt>
      <trkpt lat="45.2904" lon="5.66992">
        <ele>851.59997558594</ele>
        <time>2026-01-18T10:02:05.000Z</time>
      </trkpt>
      <trkpt lat="45.2904" lon="5.66997">
        <ele>852.40002441406</ele>
        <time>2026-01-18T10:02:09.000Z</time>
      </trkpt>
      <trkpt lat="45.29041" lon="5.66999">
        <ele>852.79998779297</ele>
        <time>2026-01-18T10:02:12.000Z</time>
      </trkpt>
      <trkpt lat="45.29041" lon="5.67002">
        <ele>853.20001220703</ele>
        <time>2026-01-18T10:02:15.000Z</time>
      </trkpt>
      <trkpt lat="45.29042" lon="5.67004">
        <ele>853.79998779297</ele>
        <time>2026-01-18T10:02:18.000Z</time>
      </trkpt>
      <trkpt lat="45.29042" lon="5.67005">
        <ele>853.79998779297</ele>
        <time>2026-01-18T10:02:19.000Z</time>
      </trkpt>
      <trkpt lat="45.29043" lon="5.67006">
        <ele>854.20001220703</ele>
        <time>2026-01-18T10:02:21.000Z</time>
      </trkpt>
      <trkpt lat="45.29044" lon="5.67011">
        <ele>854.79998779297</ele>
        <time>2026-01-18T10:02:27.000Z</time>
      </trkpt>
      <trkpt lat="45.29046" lon="5.67014">
        <ele>855.59997558594</ele>
        <time>2026-01-18T10:02:33.000Z</time>
      </trkpt>
      <trkpt lat="45.29047" lon="5.67016">
        <ele>856</ele>
        <time>2026-01-18T10:02:36.000Z</time>
      </trkpt>
      <trkpt lat="45.29051" lon="5.67021">
        <ele>856.59997558594</ele>
        <time>2026-01-18T10:02:42.000Z</time>
      </trkpt>
      <trkpt lat="45.29052" lon="5.67027">
        <ele>856.79998779297</ele>
        <time>2026-01-18T10:02:48.000Z</time>
      </trkpt>
      <trkpt lat="45.29051" lon="5.67028">
        <ele>857</ele>
        <time>2026-01-18T10:02:49.000Z</time>
      </trkpt>
      <trkpt lat="45.29053" lon="5.67032">
        <ele>857.40002441406</ele>
        <time>2026-01-18T10:02:54.000Z</time>
      </trkpt>
      <trkpt lat="45.29054" lon="5.67033">
        <ele>857.40002441406</ele>
        <time>2026-01-18T10:02:55.000Z</time>
      </trkpt>
      <trkpt lat="45.29057" lon="5.67038">
        <ele>858</ele>
        <time>2026-01-18T10:03:01.000Z</time>
      </trkpt>
      <trkpt lat="45.29057" lon="5.67039">
        <ele>858.20001220703</ele>
        <time>2026-01-18T10:03:02.000Z</time>
      </trkpt>
      <trkpt lat="45.29059" lon="5.67045">
        <ele>859</ele>
        <time>2026-01-18T10:03:10.000Z</time>
      </trkpt>
      <trkpt lat="45.2906" lon="5.67048">
        <ele>860</ele>
        <time>2026-01-18T10:03:16.000Z</time>
      </trkpt>
      <trkpt lat="45.29061" lon="5.67048">
        <ele>860.20001220703</ele>
        <time>2026-01-18T10:03:17.000Z</time>
      </trkpt>
      <trkpt lat="45.29062" lon="5.6705">
        <ele>860.40002441406</ele>
        <time>2026-01-18T10:03:20.000Z</time>
      </trkpt>
      <trkpt lat="45.29063" lon="5.67054">
        <ele>861.20001220703</ele>
        <time>2026-01-18T10:03:26.000Z</time>
      </trkpt>
      <trkpt lat="45.29064" lon="5.67053">
        <ele>861.40002441406</ele>
        <time>2026-01-18T10:03:27.000Z</time>
      </trkpt>
      <trkpt lat="45.29067" lon="5.6706">
        <ele>862.20001220703</ele>
        <time>2026-01-18T10:03:34.000Z</time>
      </trkpt>
      <trkpt lat="45.29067" lon="5.6706">
        <ele>862.40002441406</ele>
        <time>2026-01-18T10:03:35.000Z</time>
      </trkpt>
      <trkpt lat="45.2907" lon="5.67062">
        <ele>863</ele>
        <time>2026-01-18T10:03:40.000Z</time>
      </trkpt>
      <trkpt lat="45.29073" lon="5.67066">
        <ele>863.40002441406</ele>
        <time>2026-01-18T10:03:45.000Z</time>
      </trkpt>
      <trkpt lat="45.29074" lon="5.67066">
        <ele>863.59997558594</ele>
        <time>2026-01-18T10:03:46.000Z</time>
      </trkpt>
      <trkpt lat="45.29076" lon="5.67072">
        <ele>864.40002441406</ele>
        <time>2026-01-18T10:03:53.000Z</time>
      </trkpt>
      <trkpt lat="45.29077" lon="5.67073">
        <ele>864.40002441406</ele>
        <time>2026-01-18T10:03:54.000Z</time>
      </trkpt>
      <trkpt lat="45.29079" lon="5.67078">
        <ele>865</ele>
        <time>2026-01-18T10:04:00.000Z</time>
      </trkpt>
      <trkpt lat="45.29079" lon="5.67083">
        <ele>865.40002441406</ele>
        <time>2026-01-18T10:04:05.000Z</time>
      </trkpt>
      <trkpt lat="45.29084" lon="5.67089">
        <ele>866.20001220703</ele>
        <time>2026-01-18T10:04:11.000Z</time>
      </trkpt>
      <trkpt lat="45.29086" lon="5.67092">
        <ele>866.59997558594</ele>
        <time>2026-01-18T10:04:15.000Z</time>
      </trkpt>
      <trkpt lat="45.29087" lon="5.67093">
        <ele>866.79998779297</ele>
        <time>2026-01-18T10:04:17.000Z</time>
      </trkpt>
      <trkpt lat="45.29088" lon="5.67095">
        <ele>867</ele>
        <time>2026-01-18T10:04:19.000Z</time>
      </trkpt>
      <trkpt lat="45.29089" lon="5.67098">
        <ele>867.59997558594</ele>
        <time>2026-01-18T10:04:23.000Z</time>
      </trkpt>
      <trkpt lat="45.29089" lon="5.67099">
        <ele>867.59997558594</ele>
        <time>2026-01-18T10:04:24.000Z</time>
      </trkpt>
      <trkpt lat="45.29089" lon="5.671">
        <ele>867.79998779297</ele>
        <time>2026-01-18T10:04:25.000Z</time>
      </trkpt>
      <trkpt lat="45.29091" lon="5.67103">
        <ele>868.20001220703</ele>
        <time>2026-01-18T10:04:30.000Z</time>
      </trkpt>
      <trkpt lat="45.29092" lon="5.67104">
        <ele>868.59997558594</ele>
        <time>2026-01-18T10:04:32.000Z</time>
      </trkpt>
      <trkpt lat="45.29093" lon="5.67106">
        <ele>868.79998779297</ele>
        <time>2026-01-18T10:04:35.000Z</time>
      </trkpt>
      <trkpt lat="45.29094" lon="5.67107">
        <ele>869</ele>
        <time>2026-01-18T10:04:38.000Z</time>
      </trkpt>
      <trkpt lat="45.29095" lon="5.67108">
        <ele>869.20001220703</ele>
        <time>2026-01-18T10:04:40.000Z</time>
      </trkpt>
      <trkpt lat="45.29096" lon="5.6711">
        <ele>869.59997558594</ele>
        <time>2026-01-18T10:04:43.000Z</time>
      </trkpt>
      <trkpt lat="45.29096" lon="5.67113">
        <ele>870.20001220703</ele>
        <time>2026-01-18T10:04:48.000Z</time>
      </trkpt>
      <trkpt lat="45.29098" lon="5.67114">
        <ele>870.79998779297</ele>
        <time>2026-01-18T10:04:52.000Z</time>
      </trkpt>
      <trkpt lat="45.29098" lon="5.67116">
        <ele>871</ele>
        <time>2026-01-18T10:04:54.000Z</time>
      </trkpt>
      <trkpt lat="45.29098" lon="5.67118">
        <ele>871.20001220703</ele>
        <time>2026-01-18T10:04:56.000Z</time>
      </trkpt>
      <trkpt lat="45.29099" lon="5.67124">
        <ele>871.79998779297</ele>
        <time>2026-01-18T10:05:01.000Z</time>
      </trkpt>
      <trkpt lat="45.29098" lon="5.67127">
        <ele>872</ele>
        <time>2026-01-18T10:05:03.000Z</time>
      </trkpt>
      <trkpt lat="45.29096" lon="5.67131">
        <ele>872.40002441406</ele>
        <time>2026-01-18T10:05:07.000Z</time>
      </trkpt>
      <trkpt lat="45.29098" lon="5.67133">
        <ele>872.79998779297</ele>
        <time>2026-01-18T10:05:11.000Z</time>
      </trkpt>
      <trkpt lat="45.29098" lon="5.67137">
        <ele>873.40002441406</ele>
        <time>2026-01-18T10:05:16.000Z</time>
      </trkpt>
      <trkpt lat="45.29097" lon="5.67141">
        <ele>874</ele>
        <time>2026-01-18T10:05:21.000Z</time>
      </trkpt>
      <trkpt lat="45.29098" lon="5.67143">
        <ele>874.40002441406</ele>
        <time>2026-01-18T10:05:23.000Z</time>
      </trkpt>
      <trkpt lat="45.29098" lon="5.67146">
        <ele>875</ele>
        <time>2026-01-18T10:05:28.000Z</time>
      </trkpt>
      <trkpt lat="45.29098" lon="5.67148">
        <ele>875.59997558594</ele>
        <time>2026-01-18T10:05:32.000Z</time>
      </trkpt>
      <trkpt lat="45.29099" lon="5.67154">
        <ele>876</ele>
        <time>2026-01-18T10:05:35.000Z</time>
      </trkpt>
      <trkpt lat="45.29099" lon="5.67155">
        <ele>876.20001220703</ele>
        <time>2026-01-18T10:05:36.000Z</time>
      </trkpt>
      <trkpt lat="45.29101" lon="5.67159">
        <ele>876.40002441406</ele>
        <time>2026-01-18T10:05:39.000Z</time>
      </trkpt>
      <trkpt lat="45.29101" lon="5.67163">
        <ele>876.79998779297</ele>
        <time>2026-01-18T10:05:42.000Z</time>
      </trkpt>
      <trkpt lat="45.291" lon="5.67164">
        <ele>876.79998779297</ele>
        <time>2026-01-18T10:05:43.000Z</time>
      </trkpt>
      <trkpt lat="45.291" lon="5.67168">
        <ele>877.20001220703</ele>
        <time>2026-01-18T10:05:47.000Z</time>
      </trkpt>
      <trkpt lat="45.29099" lon="5.67171">
        <ele>877.40002441406</ele>
        <time>2026-01-18T10:05:49.000Z</time>
      </trkpt>
      <trkpt lat="45.29101" lon="5.67177">
        <ele>878</ele>
        <time>2026-01-18T10:05:55.000Z</time>
      </trkpt>
      <trkpt lat="45.29102" lon="5.67178">
        <ele>878.20001220703</ele>
        <time>2026-01-18T10:05:57.000Z</time>
      </trkpt>
      <trkpt lat="45.29104" lon="5.67183">
        <ele>879</ele>
        <time>2026-01-18T10:06:01.000Z</time>
      </trkpt>
      <trkpt lat="45.29105" lon="5.67186">
        <ele>879.40002441406</ele>
        <time>2026-01-18T10:06:04.000Z</time>
      </trkpt>
      <trkpt lat="45.29105" lon="5.6719">
        <ele>879.79998779297</ele>
        <time>2026-01-18T10:06:06.000Z</time>
      </trkpt>
      <trkpt lat="45.29105" lon="5.67192">
        <ele>880</ele>
        <time>2026-01-18T10:06:08.000Z</time>
      </trkpt>
      <trkpt lat="45.29106" lon="5.67194">
        <ele>880.40002441406</ele>
        <time>2026-01-18T10:06:10.000Z</time>
      </trkpt>
      <trkpt lat="45.29106" lon="5.67196">
        <ele>880.40002441406</ele>
        <time>2026-01-18T10:06:11.000Z</time>
      </trkpt>
      <trkpt lat="45.29106" lon="5.67197">
        <ele>880.40002441406</ele>
        <time>2026-01-18T10:06:12.000Z</time>
      </trkpt>
      <trkpt lat="45.29107" lon="5.67201">
        <ele>881.20001220703</ele>
        <time>2026-01-18T10:06:17.000Z</time>
      </trkpt>
      <trkpt lat="45.29107" lon="5.67204">
        <ele>881.59997558594</ele>
        <time>2026-01-18T10:06:20.000Z</time>
      </trkpt>
      <trkpt lat="45.29107" lon="5.67208">
        <ele>882</ele>
        <time>2026-01-18T10:06:23.000Z</time>
      </trkpt>
      <trkpt lat="45.29108" lon="5.67212">
        <ele>882.59997558594</ele>
        <time>2026-01-18T10:06:28.000Z</time>
      </trkpt>
      <trkpt lat="45.29108" lon="5.67213">
        <ele>882.79998779297</ele>
        <time>2026-01-18T10:06:29.000Z</time>
      </trkpt>
      <trkpt lat="45.29109" lon="5.67215">
        <ele>883.20001220703</ele>
        <time>2026-01-18T10:06:31.000Z</time>
      </trkpt>
      <trkpt lat="45.29109" lon="5.67217">
        <ele>883.79998779297</ele>
        <time>2026-01-18T10:06:35.000Z</time>
      </trkpt>
      <trkpt lat="45.2911" lon="5.67222">
        <ele>884.40002441406</ele>
        <time>2026-01-18T10:06:41.000Z</time>
      </trkpt>
      <trkpt lat="45.29111" lon="5.67224">
        <ele>884.79998779297</ele>
        <time>2026-01-18T10:06:43.000Z</time>
      </trkpt>
      <trkpt lat="45.29111" lon="5.67226">
        <ele>885.20001220703</ele>
        <time>2026-01-18T10:06:47.000Z</time>
      </trkpt>
      <trkpt lat="45.29111" lon="5.67228">
        <ele>885.59997558594</ele>
        <time>2026-01-18T10:06:49.000Z</time>
      </trkpt>
      <trkpt lat="45.29111" lon="5.6723">
        <ele>885.79998779297</ele>
        <time>2026-01-18T10:06:51.000Z</time>
      </trkpt>
      <trkpt lat="45.29112" lon="5.67231">
        <ele>886.20001220703</ele>
        <time>2026-01-18T10:06:54.000Z</time>
      </trkpt>
      <trkpt lat="45.29114" lon="5.67233">
        <ele>887</ele>
        <time>2026-01-18T10:06:58.000Z</time>
      </trkpt>
      <trkpt lat="45.29115" lon="5.6724">
        <ele>887.79998779297</ele>
        <time>2026-01-18T10:07:06.000Z</time>
      </trkpt>
      <trkpt lat="45.29115" lon="5.67243">
        <ele>888</ele>
        <time>2026-01-18T10:07:07.000Z</time>
      </trkpt>
      <trkpt lat="45.29116" lon="5.67246">
        <ele>888.59997558594</ele>
        <time>2026-01-18T10:07:12.000Z</time>
      </trkpt>
      <trkpt lat="45.29116" lon="5.67247">
        <ele>889</ele>
        <time>2026-01-18T10:07:15.000Z</time>
      </trkpt>
      <trkpt lat="45.29118" lon="5.6725">
        <ele>889.40002441406</ele>
        <time>2026-01-18T10:07:19.000Z</time>
      </trkpt>
      <trkpt lat="45.29119" lon="5.67251">
        <ele>890.20001220703</ele>
        <time>2026-01-18T10:07:24.000Z</time>
      </trkpt>
      <trkpt lat="45.29119" lon="5.67252">
        <ele>890.20001220703</ele>
        <time>2026-01-18T10:07:25.000Z</time>
      </trkpt>
      <trkpt lat="45.2912" lon="5.67253">
        <ele>890.59997558594</ele>
        <time>2026-01-18T10:07:28.000Z</time>
      </trkpt>
      <trkpt lat="45.29122" lon="5.67258">
        <ele>891.20001220703</ele>
        <time>2026-01-18T10:07:34.000Z</time>
      </trkpt>
      <trkpt lat="45.29122" lon="5.67262">
        <ele>892.20001220703</ele>
        <time>2026-01-18T10:07:42.000Z</time>
      </trkpt>
      <trkpt lat="45.29123" lon="5.67267">
        <ele>893.20001220703</ele>
        <time>2026-01-18T10:07:50.000Z</time>
      </trkpt>
      <trkpt lat="45.29123" lon="5.67268">
        <ele>893.40002441406</ele>
        <time>2026-01-18T10:07:51.000Z</time>
      </trkpt>
      <trkpt lat="45.29123" lon="5.67272">
        <ele>894.40002441406</ele>
        <time>2026-01-18T10:07:57.000Z</time>
      </trkpt>
      <trkpt lat="45.29124" lon="5.67276">
        <ele>894.79998779297</ele>
        <time>2026-01-18T10:08:00.000Z</time>
      </trkpt>
      <trkpt lat="45.29124" lon="5.67281">
        <ele>895.40002441406</ele>
        <time>2026-01-18T10:08:04.000Z</time>
      </trkpt>
      <trkpt lat="45.29125" lon="5.67284">
        <ele>896</ele>
        <time>2026-01-18T10:08:07.000Z</time>
      </trkpt>
      <trkpt lat="45.29126" lon="5.67288">
        <ele>896.59997558594</ele>
        <time>2026-01-18T10:08:11.000Z</time>
      </trkpt>
      <trkpt lat="45.29128" lon="5.67291">
        <ele>896.79998779297</ele>
        <time>2026-01-18T10:08:14.000Z</time>
      </trkpt>
      <trkpt lat="45.29129" lon="5.67299">
        <ele>897.59997558594</ele>
        <time>2026-01-18T10:08:19.000Z</time>
      </trkpt>
      <trkpt lat="45.2913" lon="5.67303">
        <ele>898.40002441406</ele>
        <time>2026-01-18T10:08:24.000Z</time>
      </trkpt>
      <trkpt lat="45.29131" lon="5.67306">
        <ele>898.59997558594</ele>
        <time>2026-01-18T10:08:26.000Z</time>
      </trkpt>
      <trkpt lat="45.29132" lon="5.6731">
        <ele>899.20001220703</ele>
        <time>2026-01-18T10:08:30.000Z</time>
      </trkpt>
      <trkpt lat="45.29133" lon="5.67311">
        <ele>899.79998779297</ele>
        <time>2026-01-18T10:08:34.000Z</time>
      </trkpt>
      <trkpt lat="45.29133" lon="5.67314">
        <ele>900.40002441406</ele>
        <time>2026-01-18T10:08:37.000Z</time>
      </trkpt>
      <trkpt lat="45.29133" lon="5.67317">
        <ele>900.79998779297</ele>
        <time>2026-01-18T10:08:41.000Z</time>
      </trkpt>
      <trkpt lat="45.29133" lon="5.67319">
        <ele>901.20001220703</ele>
        <time>2026-01-18T10:08:43.000Z</time>
      </trkpt>
      <trkpt lat="45.29134" lon="5.67322">
        <ele>901.79998779297</ele>
        <time>2026-01-18T10:08:49.000Z</time>
      </trkpt>
      <trkpt lat="45.29134" lon="5.67323">
        <ele>902</ele>
        <time>2026-01-18T10:08:50.000Z</time>
      </trkpt>
      <trkpt lat="45.29134" lon="5.67328">
        <ele>902.79998779297</ele>
        <time>2026-01-18T10:08:56.000Z</time>
      </trkpt>
      <trkpt lat="45.29135" lon="5.67328">
        <ele>903</ele>
        <time>2026-01-18T10:08:57.000Z</time>
      </trkpt>
      <trkpt lat="45.29136" lon="5.67334">
        <ele>903.59997558594</ele>
        <time>2026-01-18T10:09:02.000Z</time>
      </trkpt>
      <trkpt lat="45.29137" lon="5.67336">
        <ele>904</ele>
        <time>2026-01-18T10:09:04.000Z</time>
      </trkpt>
      <trkpt lat="45.29139" lon="5.67341">
        <ele>904.79998779297</ele>
        <time>2026-01-18T10:09:11.000Z</time>
      </trkpt>
      <trkpt lat="45.29139" lon="5.67343">
        <ele>904.79998779297</ele>
        <time>2026-01-18T10:09:13.000Z</time>
      </trkpt>
      <trkpt lat="45.29139" lon="5.67345">
        <ele>905</ele>
        <time>2026-01-18T10:09:14.000Z</time>
      </trkpt>
      <trkpt lat="45.29139" lon="5.67348">
        <ele>905.20001220703</ele>
        <time>2026-01-18T10:09:17.000Z</time>
      </trkpt>
      <trkpt lat="45.29139" lon="5.67349">
        <ele>905.40002441406</ele>
        <time>2026-01-18T10:09:19.000Z</time>
      </trkpt>
      <trkpt lat="45.29139" lon="5.67353">
        <ele>906.20001220703</ele>
        <time>2026-01-18T10:09:24.000Z</time>
      </trkpt>
      <trkpt lat="45.2914" lon="5.67356">
        <ele>906.59997558594</ele>
        <time>2026-01-18T10:09:28.000Z</time>
      </trkpt>
      <trkpt lat="45.29139" lon="5.6736">
        <ele>907.20001220703</ele>
        <time>2026-01-18T10:09:32.000Z</time>
      </trkpt>
      <trkpt lat="45.2914" lon="5.67364">
        <ele>907.40002441406</ele>
        <time>2026-01-18T10:09:35.000Z</time>
      </trkpt>
      <trkpt lat="45.2914" lon="5.67366">
        <ele>908</ele>
        <time>2026-01-18T10:09:38.000Z</time>
      </trkpt>
      <trkpt lat="45.29141" lon="5.67367">
        <ele>908.20001220703</ele>
        <time>2026-01-18T10:09:39.000Z</time>
      </trkpt>
      <trkpt lat="45.29141" lon="5.67367">
        <ele>908.20001220703</ele>
        <time>2026-01-18T10:09:40.000Z</time>
      </trkpt>
      <trkpt lat="45.29142" lon="5.67368">
        <ele>908.40002441406</ele>
        <time>2026-01-18T10:09:41.000Z</time>
      </trkpt>
      <trkpt lat="45.29143" lon="5.67369">
        <ele>908.59997558594</ele>
        <time>2026-01-18T10:09:43.000Z</time>
      </trkpt>
      <trkpt lat="45.29146" lon="5.67372">
        <ele>909</ele>
        <time>2026-01-18T10:09:47.000Z</time>
      </trkpt>
      <trkpt lat="45.29146" lon="5.67375">
        <ele>909.20001220703</ele>
        <time>2026-01-18T10:09:49.000Z</time>
      </trkpt>
      <trkpt lat="45.29149" lon="5.67378">
        <ele>909.79998779297</ele>
        <time>2026-01-18T10:09:53.000Z</time>
      </trkpt>
      <trkpt lat="45.29151" lon="5.67382">
        <ele>910.20001220703</ele>
        <time>2026-01-18T10:09:57.000Z</time>
      </trkpt>
      <trkpt lat="45.29154" lon="5.67385">
        <ele>911</ele>
        <time>2026-01-18T10:10:01.000Z</time>
      </trkpt>
      <trkpt lat="45.29155" lon="5.67387">
        <ele>911.40002441406</ele>
        <time>2026-01-18T10:10:04.000Z</time>
      </trkpt>
      <trkpt lat="45.29155" lon="5.6739">
        <ele>912</ele>
        <time>2026-01-18T10:10:08.000Z</time>
      </trkpt>
      <trkpt lat="45.29157" lon="5.67393">
        <ele>912.40002441406</ele>
        <time>2026-01-18T10:10:12.000Z</time>
      </trkpt>
      <trkpt lat="45.29158" lon="5.67395">
        <ele>913</ele>
        <time>2026-01-18T10:10:16.000Z</time>
      </trkpt>
      <trkpt lat="45.29158" lon="5.67397">
        <ele>913.59997558594</ele>
        <time>2026-01-18T10:10:19.000Z</time>
      </trkpt>
      <trkpt lat="45.29159" lon="5.67399">
        <ele>914</ele>
        <time>2026-01-18T10:10:22.000Z</time>
      </trkpt>
      <trkpt lat="45.2916" lon="5.67402">
        <ele>914.79998779297</ele>
        <time>2026-01-18T10:10:26.000Z</time>
      </trkpt>
      <trkpt lat="45.29161" lon="5.67404">
        <ele>915.59997558594</ele>
        <time>2026-01-18T10:10:30.000Z</time>
      </trkpt>
      <trkpt lat="45.29162" lon="5.67404">
        <ele>915.79998779297</ele>
        <time>2026-01-18T10:10:31.000Z</time>
      </trkpt>
      <trkpt lat="45.29163" lon="5.67407">
        <ele>916.59997558594</ele>
        <time>2026-01-18T10:10:36.000Z</time>
      </trkpt>
      <trkpt lat="45.29164" lon="5.67408">
        <ele>917</ele>
        <time>2026-01-18T10:10:39.000Z</time>
      </trkpt>
      <trkpt lat="45.29164" lon="5.67409">
        <ele>917.20001220703</ele>
        <time>2026-01-18T10:10:40.000Z</time>
      </trkpt>
      <trkpt lat="45.29164" lon="5.67413">
        <ele>918</ele>
        <time>2026-01-18T10:10:45.000Z</time>
      </trkpt>
      <trkpt lat="45.29165" lon="5.67415">
        <ele>918.20001220703</ele>
        <time>2026-01-18T10:10:47.000Z</time>
      </trkpt>
      <trkpt lat="45.29168" lon="5.67418">
        <ele>919.20001220703</ele>
        <time>2026-01-18T10:10:53.000Z</time>
      </trkpt>
      <trkpt lat="45.29169" lon="5.6742">
        <ele>919.40002441406</ele>
        <time>2026-01-18T10:10:55.000Z</time>
      </trkpt>
      <trkpt lat="45.29169" lon="5.67427">
        <ele>919.79998779297</ele>
        <time>2026-01-18T10:11:02.000Z</time>
      </trkpt>
      <trkpt lat="45.29168" lon="5.67429">
        <ele>920.40002441406</ele>
        <time>2026-01-18T10:11:05.000Z</time>
      </trkpt>
      <trkpt lat="45.29169" lon="5.67432">
        <ele>920.59997558594</ele>
        <time>2026-01-18T10:11:08.000Z</time>
      </trkpt>
      <trkpt lat="45.29169" lon="5.67433">
        <ele>920.59997558594</ele>
        <time>2026-01-18T10:11:09.000Z</time>
      </trkpt>
      <trkpt lat="45.29168" lon="5.67434">
        <ele>920.79998779297</ele>
        <time>2026-01-18T10:11:10.000Z</time>
      </trkpt>
      <trkpt lat="45.29168" lon="5.67439">
        <ele>921.20001220703</ele>
        <time>2026-01-18T10:11:14.000Z</time>
      </trkpt>
      <trkpt lat="45.29169" lon="5.6744">
        <ele>921.40002441406</ele>
        <time>2026-01-18T10:11:15.000Z</time>
      </trkpt>
      <trkpt lat="45.29169" lon="5.67441">
        <ele>921.40002441406</ele>
        <time>2026-01-18T10:11:16.000Z</time>
      </trkpt>
      <trkpt lat="45.29169" lon="5.67446">
        <ele>922.20001220703</ele>
        <time>2026-01-18T10:11:22.000Z</time>
      </trkpt>
      <trkpt lat="45.29169" lon="5.67449">
        <ele>922.59997558594</ele>
        <time>2026-01-18T10:11:26.000Z</time>
      </trkpt>
      <trkpt lat="45.29169" lon="5.67452">
        <ele>922.79998779297</ele>
        <time>2026-01-18T10:11:29.000Z</time>
      </trkpt>
      <trkpt lat="45.29169" lon="5.67457">
        <ele>923.79998779297</ele>
        <time>2026-01-18T10:11:35.000Z</time>
      </trkpt>
      <trkpt lat="45.29169" lon="5.67459">
        <ele>924</ele>
        <time>2026-01-18T10:11:37.000Z</time>
      </trkpt>
      <trkpt lat="45.29168" lon="5.6746">
        <ele>924.20001220703</ele>
        <time>2026-01-18T10:11:39.000Z</time>
      </trkpt>
      <trkpt lat="45.29169" lon="5.67462">
        <ele>924.79998779297</ele>
        <time>2026-01-18T10:11:43.000Z</time>
      </trkpt>
      <trkpt lat="45.29169" lon="5.67466">
        <ele>925</ele>
        <time>2026-01-18T10:11:46.000Z</time>
      </trkpt>
      <trkpt lat="45.2917" lon="5.67471">
        <ele>925.59997558594</ele>
        <time>2026-01-18T10:11:52.000Z</time>
      </trkpt>
      <trkpt lat="45.2917" lon="5.67475">
        <ele>926.20001220703</ele>
        <time>2026-01-18T10:11:55.000Z</time>
      </trkpt>
      <trkpt lat="45.29171" lon="5.67482">
        <ele>926.79998779297</ele>
        <time>2026-01-18T10:12:01.000Z</time>
      </trkpt>
      <trkpt lat="45.29173" lon="5.6749">
        <ele>927.79998779297</ele>
        <time>2026-01-18T10:12:09.000Z</time>
      </trkpt>
      <trkpt lat="45.29173" lon="5.67491">
        <ele>928</ele>
        <time>2026-01-18T10:12:10.000Z</time>
      </trkpt>
      <trkpt lat="45.29176" lon="5.67497">
        <ele>928.79998779297</ele>
        <time>2026-01-18T10:12:19.000Z</time>
      </trkpt>
      <trkpt lat="45.29178" lon="5.67505">
        <ele>930</ele>
        <time>2026-01-18T10:12:27.000Z</time>
      </trkpt>
      <trkpt lat="45.29178" lon="5.67506">
        <ele>930</ele>
        <time>2026-01-18T10:12:28.000Z</time>
      </trkpt>
      <trkpt lat="45.29179" lon="5.67512">
        <ele>930.79998779297</ele>
        <time>2026-01-18T10:12:34.000Z</time>
      </trkpt>
      <trkpt lat="45.29177" lon="5.67515">
        <ele>931.20001220703</ele>
        <time>2026-01-18T10:12:37.000Z</time>
      </trkpt>
      <trkpt lat="45.29176" lon="5.67518">
        <ele>931.40002441406</ele>
        <time>2026-01-18T10:12:41.000Z</time>
      </trkpt>
      <trkpt lat="45.29176" lon="5.67524">
        <ele>931.79998779297</ele>
        <time>2026-01-18T10:12:50.000Z</time>
      </trkpt>
      <trkpt lat="45.29176" lon="5.67528">
        <ele>932</ele>
        <time>2026-01-18T10:12:55.000Z</time>
      </trkpt>
      <trkpt lat="45.29176" lon="5.67532">
        <ele>932.59997558594</ele>
        <time>2026-01-18T10:12:58.000Z</time>
      </trkpt>
      <trkpt lat="45.29176" lon="5.67535">
        <ele>932.79998779297</ele>
        <time>2026-01-18T10:13:01.000Z</time>
      </trkpt>
      <trkpt lat="45.29175" lon="5.67536">
        <ele>933.20001220703</ele>
        <time>2026-01-18T10:13:03.000Z</time>
      </trkpt>
      <trkpt lat="45.29174" lon="5.67539">
        <ele>933.40002441406</ele>
        <time>2026-01-18T10:13:06.000Z</time>
      </trkpt>
      <trkpt lat="45.29174" lon="5.67544">
        <ele>934.40002441406</ele>
        <time>2026-01-18T10:13:13.000Z</time>
      </trkpt>
      <trkpt lat="45.29175" lon="5.67547">
        <ele>935.20001220703</ele>
        <time>2026-01-18T10:13:19.000Z</time>
      </trkpt>
      <trkpt lat="45.29177" lon="5.67547">
        <ele>935.59997558594</ele>
        <time>2026-01-18T10:13:22.000Z</time>
      </trkpt>
      <trkpt lat="45.29188" lon="5.67543">
        <ele>935.20001220703</ele>
        <time>2026-01-18T10:13:31.000Z</time>
      </trkpt>
      <trkpt lat="45.29202" lon="5.67537">
        <ele>935.59997558594</ele>
        <time>2026-01-18T10:13:43.000Z</time>
      </trkpt>
      <trkpt lat="45.29203" lon="5.67537">
        <ele>935.79998779297</ele>
        <time>2026-01-18T10:13:44.000Z</time>
      </trkpt>
      <trkpt lat="45.29215" lon="5.67531">
        <ele>936</ele>
        <time>2026-01-18T10:13:55.000Z</time>
      </trkpt>
      <trkpt lat="45.29221" lon="5.67528">
        <ele>936.40002441406</ele>
        <time>2026-01-18T10:14:00.000Z</time>
      </trkpt>
      <trkpt lat="45.29228" lon="5.67525">
        <ele>936.59997558594</ele>
        <time>2026-01-18T10:14:06.000Z</time>
      </trkpt>
      <trkpt lat="45.29238" lon="5.67521">
        <ele>936.79998779297</ele>
        <time>2026-01-18T10:14:15.000Z</time>
      </trkpt>
      <trkpt lat="45.29246" lon="5.67518">
        <ele>936.79998779297</ele>
        <time>2026-01-18T10:14:22.000Z</time>
      </trkpt>
      <trkpt lat="45.29258" lon="5.67514">
        <ele>937.40002441406</ele>
        <time>2026-01-18T10:14:33.000Z</time>
      </trkpt>
      <trkpt lat="45.29258" lon="5.67514">
        <ele>937.40002441406</ele>
        <time>2026-01-18T10:14:34.000Z</time>
      </trkpt>
      <trkpt lat="45.29265" lon="5.67512">
        <ele>938</ele>
        <time>2026-01-18T10:14:42.000Z</time>
      </trkpt>
      <trkpt lat="45.29269" lon="5.67515">
        <ele>938.59997558594</ele>
        <time>2026-01-18T10:14:49.000Z</time>
      </trkpt>
      <trkpt lat="45.2927" lon="5.67516">
        <ele>938.59997558594</ele>
        <time>2026-01-18T10:14:50.000Z</time>
      </trkpt>
      <trkpt lat="45.29274" lon="5.67522">
        <ele>939.40002441406</ele>
        <time>2026-01-18T10:14:57.000Z</time>
      </trkpt>
      <trkpt lat="45.29275" lon="5.67524">
        <ele>939.79998779297</ele>
        <time>2026-01-18T10:14:59.000Z</time>
      </trkpt>
      <trkpt lat="45.29275" lon="5.67525">
        <ele>939.79998779297</ele>
        <time>2026-01-18T10:15:00.000Z</time>
      </trkpt>
      <trkpt lat="45.29276" lon="5.67531">
        <ele>940</ele>
        <time>2026-01-18T10:15:04.000Z</time>
      </trkpt>
      <trkpt lat="45.29277" lon="5.67533">
        <ele>940.40002441406</ele>
        <time>2026-01-18T10:15:06.000Z</time>
      </trkpt>
      <trkpt lat="45.29277" lon="5.67537">
        <ele>940.59997558594</ele>
        <time>2026-01-18T10:15:09.000Z</time>
      </trkpt>
      <trkpt lat="45.29277" lon="5.67538">
        <ele>940.59997558594</ele>
        <time>2026-01-18T10:15:10.000Z</time>
      </trkpt>
      <trkpt lat="45.29276" lon="5.67539">
        <ele>940.79998779297</ele>
        <time>2026-01-18T10:15:11.000Z</time>
      </trkpt>
      <trkpt lat="45.29276" lon="5.67545">
        <ele>941.79998779297</ele>
        <time>2026-01-18T10:15:17.000Z</time>
      </trkpt>
      <trkpt lat="45.29273" lon="5.67544">
        <ele>942.79998779297</ele>
        <time>2026-01-18T10:15:23.000Z</time>
      </trkpt>
      <trkpt lat="45.29272" lon="5.67544">
        <ele>943</ele>
        <time>2026-01-18T10:15:25.000Z</time>
      </trkpt>
      <trkpt lat="45.29272" lon="5.67546">
        <ele>943.40002441406</ele>
        <time>2026-01-18T10:15:29.000Z</time>
      </trkpt>
      <trkpt lat="45.29272" lon="5.67547">
        <ele>943.59997558594</ele>
        <time>2026-01-18T10:15:30.000Z</time>
      </trkpt>
      <trkpt lat="45.29272" lon="5.67548">
        <ele>943.59997558594</ele>
        <time>2026-01-18T10:15:31.000Z</time>
      </trkpt>
      <trkpt lat="45.29271" lon="5.67549">
        <ele>944</ele>
        <time>2026-01-18T10:15:33.000Z</time>
      </trkpt>
      <trkpt lat="45.29271" lon="5.6755">
        <ele>944</ele>
        <time>2026-01-18T10:15:34.000Z</time>
      </trkpt>
      <trkpt lat="45.29271" lon="5.67554">
        <ele>944.59997558594</ele>
        <time>2026-01-18T10:15:37.000Z</time>
      </trkpt>
      <trkpt lat="45.29274" lon="5.67564">
        <ele>945</ele>
        <time>2026-01-18T10:15:46.000Z</time>
      </trkpt>
      <trkpt lat="45.29275" lon="5.67565">
        <ele>945</ele>
        <time>2026-01-18T10:15:52.000Z</time>
      </trkpt>
      <trkpt lat="45.29274" lon="5.67565">
        <ele>945</ele>
        <time>2026-01-18T10:15:57.000Z</time>
      </trkpt>
      <trkpt lat="45.29274" lon="5.67564">
        <ele>944.79998779297</ele>
        <time>2026-01-18T10:16:15.000Z</time>
      </trkpt>
      <trkpt lat="45.29283" lon="5.67544">
        <ele>944.59997558594</ele>
        <time>2026-01-18T10:16:23.000Z</time>
      </trkpt>
      <trkpt lat="45.29288" lon="5.67534">
        <ele>944.40002441406</ele>
        <time>2026-01-18T10:16:27.000Z</time>
      </trkpt>
      <trkpt lat="45.29289" lon="5.67541">
        <ele>944.20001220703</ele>
        <time>2026-01-18T10:16:32.000Z</time>
      </trkpt>
      <trkpt lat="45.29301" lon="5.6753">
        <ele>937.59997558594</ele>
        <time>2026-01-18T10:20:02.000Z</time>
      </trkpt>
      <trkpt lat="45.29302" lon="5.67528">
        <ele>937.59997558594</ele>
        <time>2026-01-18T10:20:03.000Z</time>
      </trkpt>
      <trkpt lat="45.29303" lon="5.67526">
        <ele>937.40002441406</ele>
        <time>2026-01-18T10:20:04.000Z</time>
      </trkpt>
      <trkpt lat="45.29306" lon="5.67519">
        <ele>936.59997558594</ele>
        <time>2026-01-18T10:20:09.000Z</time>
      </trkpt>
      <trkpt lat="45.29306" lon="5.67517">
        <ele>936.40002441406</ele>
        <time>2026-01-18T10:20:10.000Z</time>
      </trkpt>
      <trkpt lat="45.29306" lon="5.67514">
        <ele>936.40002441406</ele>
        <time>2026-01-18T10:20:11.000Z</time>
      </trkpt>
      <trkpt lat="45.29305" lon="5.67499">
        <ele>935.79998779297</ele>
        <time>2026-01-18T10:20:18.000Z</time>
      </trkpt>
      <trkpt lat="45.29305" lon="5.67496">
        <ele>935.59997558594</ele>
        <time>2026-01-18T10:20:19.000Z</time>
      </trkpt>
      <trkpt lat="45.29305" lon="5.67476">
        <ele>934.59997558594</ele>
        <time>2026-01-18T10:20:27.000Z</time>
      </trkpt>
      <trkpt lat="45.29306" lon="5.67475">
        <ele>934.59997558594</ele>
        <time>2026-01-18T10:20:28.000Z</time>
      </trkpt>
      <trkpt lat="45.29308" lon="5.6746">
        <ele>934</ele>
        <time>2026-01-18T10:20:36.000Z</time>
      </trkpt>
      <trkpt lat="45.2931" lon="5.67448">
        <ele>933.40002441406</ele>
        <time>2026-01-18T10:20:42.000Z</time>
      </trkpt>
      <trkpt lat="45.2931" lon="5.67443">
        <ele>933.20001220703</ele>
        <time>2026-01-18T10:20:44.000Z</time>
      </trkpt>
      <trkpt lat="45.2931" lon="5.67441">
        <ele>933.20001220703</ele>
        <time>2026-01-18T10:20:45.000Z</time>
      </trkpt>
      <trkpt lat="45.29313" lon="5.67426">
        <ele>932.59997558594</ele>
        <time>2026-01-18T10:20:51.000Z</time>
      </trkpt>
      <trkpt lat="45.29318" lon="5.67404">
        <ele>931.40002441406</ele>
        <time>2026-01-18T10:20:59.000Z</time>
      </trkpt>
      <trkpt lat="45.29321" lon="5.67378">
        <ele>931.20001220703</ele>
        <time>2026-01-18T10:21:10.000Z</time>
      </trkpt>
      <trkpt lat="45.29322" lon="5.67361">
        <ele>931.40002441406</ele>
        <time>2026-01-18T10:21:19.000Z</time>
      </trkpt>
      <trkpt lat="45.29321" lon="5.67345">
        <ele>931.40002441406</ele>
        <time>2026-01-18T10:21:27.000Z</time>
      </trkpt>
      <trkpt lat="45.29319" lon="5.67328">
        <ele>932</ele>
        <time>2026-01-18T10:21:36.000Z</time>
      </trkpt>
      <trkpt lat="45.29316" lon="5.67317">
        <ele>932.59997558594</ele>
        <time>2026-01-18T10:21:41.000Z</time>
      </trkpt>
      <trkpt lat="45.29316" lon="5.67311">
        <ele>932.59997558594</ele>
        <time>2026-01-18T10:21:44.000Z</time>
      </trkpt>
      <trkpt lat="45.29315" lon="5.67307">
        <ele>932.79998779297</ele>
        <time>2026-01-18T10:21:46.000Z</time>
      </trkpt>
      <trkpt lat="45.29314" lon="5.67299">
        <ele>933.20001220703</ele>
        <time>2026-01-18T10:21:50.000Z</time>
      </trkpt>
      <trkpt lat="45.29313" lon="5.67291">
        <ele>933.40002441406</ele>
        <time>2026-01-18T10:21:55.000Z</time>
      </trkpt>
      <trkpt lat="45.29313" lon="5.67287">
        <ele>933.79998779297</ele>
        <time>2026-01-18T10:21:57.000Z</time>
      </trkpt>
      <trkpt lat="45.29311" lon="5.67277">
        <ele>934</ele>
        <time>2026-01-18T10:22:03.000Z</time>
      </trkpt>
      <trkpt lat="45.29309" lon="5.67269">
        <ele>934.40002441406</ele>
        <time>2026-01-18T10:22:08.000Z</time>
      </trkpt>
      <trkpt lat="45.29307" lon="5.67262">
        <ele>934.59997558594</ele>
        <time>2026-01-18T10:22:12.000Z</time>
      </trkpt>
      <trkpt lat="45.29306" lon="5.67255">
        <ele>934.59997558594</ele>
        <time>2026-01-18T10:22:16.000Z</time>
      </trkpt>
      <trkpt lat="45.29304" lon="5.67249">
        <ele>934.79998779297</ele>
        <time>2026-01-18T10:22:20.000Z</time>
      </trkpt>
      <trkpt lat="45.29301" lon="5.67236">
        <ele>935.20001220703</ele>
        <time>2026-01-18T10:22:27.000Z</time>
      </trkpt>
      <trkpt lat="45.293" lon="5.67232">
        <ele>935.20001220703</ele>
        <time>2026-01-18T10:22:29.000Z</time>
      </trkpt>
      <trkpt lat="45.29299" lon="5.67231">
        <ele>935.20001220703</ele>
        <time>2026-01-18T10:22:30.000Z</time>
      </trkpt>
      <trkpt lat="45.29297" lon="5.67224">
        <ele>935.79998779297</ele>
        <time>2026-01-18T10:22:35.000Z</time>
      </trkpt>
      <trkpt lat="45.29295" lon="5.67222">
        <ele>935.79998779297</ele>
        <time>2026-01-18T10:22:38.000Z</time>
      </trkpt>
      <trkpt lat="45.29292" lon="5.67216">
        <ele>936</ele>
        <time>2026-01-18T10:22:44.000Z</time>
      </trkpt>
      <trkpt lat="45.29289" lon="5.67211">
        <ele>936</ele>
        <time>2026-01-18T10:22:48.000Z</time>
      </trkpt>
      <trkpt lat="45.29286" lon="5.67208">
        <ele>936.20001220703</ele>
        <time>2026-01-18T10:22:51.000Z</time>
      </trkpt>
      <trkpt lat="45.29281" lon="5.67202">
        <ele>936.59997558594</ele>
        <time>2026-01-18T10:22:56.000Z</time>
      </trkpt>
      <trkpt lat="45.29278" lon="5.672">
        <ele>936.79998779297</ele>
        <time>2026-01-18T10:22:59.000Z</time>
      </trkpt>
      <trkpt lat="45.29271" lon="5.67189">
        <ele>937.79998779297</ele>
        <time>2026-01-18T10:23:07.000Z</time>
      </trkpt>
      <trkpt lat="45.29267" lon="5.6718">
        <ele>938.59997558594</ele>
        <time>2026-01-18T10:23:14.000Z</time>
      </trkpt>
      <trkpt lat="45.29266" lon="5.67178">
        <ele>938.79998779297</ele>
        <time>2026-01-18T10:23:15.000Z</time>
      </trkpt>
      <trkpt lat="45.29263" lon="5.67172">
        <ele>939.40002441406</ele>
        <time>2026-01-18T10:23:21.000Z</time>
      </trkpt>
      <trkpt lat="45.29263" lon="5.67171">
        <ele>939.59997558594</ele>
        <time>2026-01-18T10:23:22.000Z</time>
      </trkpt>
      <trkpt lat="45.2926" lon="5.67169">
        <ele>939.79998779297</ele>
        <time>2026-01-18T10:23:25.000Z</time>
      </trkpt>
      <trkpt lat="45.29257" lon="5.67165">
        <ele>940.20001220703</ele>
        <time>2026-01-18T10:23:29.000Z</time>
      </trkpt>
      <trkpt lat="45.29257" lon="5.67164">
        <ele>940.40002441406</ele>
        <time>2026-01-18T10:23:30.000Z</time>
      </trkpt>
      <trkpt lat="45.29255" lon="5.67161">
        <ele>940.59997558594</ele>
        <time>2026-01-18T10:23:34.000Z</time>
      </trkpt>
      <trkpt lat="45.2925" lon="5.6715">
        <ele>940.79998779297</ele>
        <time>2026-01-18T10:23:42.000Z</time>
      </trkpt>
      <trkpt lat="45.29246" lon="5.67139">
        <ele>940.59997558594</ele>
        <time>2026-01-18T10:23:48.000Z</time>
      </trkpt>
      <trkpt lat="45.29242" lon="5.67124">
        <ele>940.20001220703</ele>
        <time>2026-01-18T10:23:56.000Z</time>
      </trkpt>
      <trkpt lat="45.29239" lon="5.67119">
        <ele>940</ele>
        <time>2026-01-18T10:23:59.000Z</time>
      </trkpt>
      <trkpt lat="45.29238" lon="5.67118">
        <ele>940</ele>
        <time>2026-01-18T10:24:00.000Z</time>
      </trkpt>
      <trkpt lat="45.29237" lon="5.67115">
        <ele>940</ele>
        <time>2026-01-18T10:24:02.000Z</time>
      </trkpt>
      <trkpt lat="45.29234" lon="5.67096">
        <ele>939.79998779297</ele>
        <time>2026-01-18T10:24:13.000Z</time>
      </trkpt>
      <trkpt lat="45.29231" lon="5.67086">
        <ele>939.59997558594</ele>
        <time>2026-01-18T10:24:21.000Z</time>
      </trkpt>
      <trkpt lat="45.29223" lon="5.67071">
        <ele>939.40002441406</ele>
        <time>2026-01-18T10:24:31.000Z</time>
      </trkpt>
      <trkpt lat="45.29218" lon="5.67055">
        <ele>939.40002441406</ele>
        <time>2026-01-18T10:24:42.000Z</time>
      </trkpt>
      <trkpt lat="45.29217" lon="5.67053">
        <ele>939.40002441406</ele>
        <time>2026-01-18T10:24:43.000Z</time>
      </trkpt>
      <trkpt lat="45.29213" lon="5.67044">
        <ele>939.59997558594</ele>
        <time>2026-01-18T10:24:49.000Z</time>
      </trkpt>
      <trkpt lat="45.2921" lon="5.67029">
        <ele>939.79998779297</ele>
        <time>2026-01-18T10:24:58.000Z</time>
      </trkpt>
      <trkpt lat="45.29208" lon="5.6702">
        <ele>940.20001220703</ele>
        <time>2026-01-18T10:25:04.000Z</time>
      </trkpt>
      <trkpt lat="45.29208" lon="5.67019">
        <ele>940.20001220703</ele>
        <time>2026-01-18T10:25:05.000Z</time>
      </trkpt>
      <trkpt lat="45.29206" lon="5.67008">
        <ele>940.79998779297</ele>
        <time>2026-01-18T10:25:13.000Z</time>
      </trkpt>
      <trkpt lat="45.29206" lon="5.67006">
        <ele>940.79998779297</ele>
        <time>2026-01-18T10:25:14.000Z</time>
      </trkpt>
      <trkpt lat="45.29207" lon="5.67002">
        <ele>941.40002441406</ele>
        <time>2026-01-18T10:25:18.000Z</time>
      </trkpt>
      <trkpt lat="45.29207" lon="5.66992">
        <ele>942</ele>
        <time>2026-01-18T10:25:23.000Z</time>
      </trkpt>
      <trkpt lat="45.29207" lon="5.6699">
        <ele>942.20001220703</ele>
        <time>2026-01-18T10:25:25.000Z</time>
      </trkpt>
      <trkpt lat="45.29207" lon="5.66982">
        <ele>943</ele>
        <time>2026-01-18T10:25:31.000Z</time>
      </trkpt>
      <trkpt lat="45.29207" lon="5.66981">
        <ele>943</ele>
        <time>2026-01-18T10:25:32.000Z</time>
      </trkpt>
      <trkpt lat="45.29207" lon="5.66975">
        <ele>943.79998779297</ele>
        <time>2026-01-18T10:25:38.000Z</time>
      </trkpt>
      <trkpt lat="45.29207" lon="5.6697">
        <ele>944.20001220703</ele>
        <time>2026-01-18T10:25:41.000Z</time>
      </trkpt>
      <trkpt lat="45.29206" lon="5.66967">
        <ele>944.59997558594</ele>
        <time>2026-01-18T10:25:44.000Z</time>
      </trkpt>
      <trkpt lat="45.29207" lon="5.66961">
        <ele>945.20001220703</ele>
        <time>2026-01-18T10:25:49.000Z</time>
      </trkpt>
      <trkpt lat="45.29207" lon="5.6696">
        <ele>945.40002441406</ele>
        <time>2026-01-18T10:25:50.000Z</time>
      </trkpt>
      <trkpt lat="45.29203" lon="5.6695">
        <ele>946.20001220703</ele>
        <time>2026-01-18T10:25:56.000Z</time>
      </trkpt>
      <trkpt lat="45.29204" lon="5.66948">
        <ele>946.40002441406</ele>
        <time>2026-01-18T10:25:58.000Z</time>
      </trkpt>
      <trkpt lat="45.29208" lon="5.66945">
        <ele>947.20001220703</ele>
        <time>2026-01-18T10:26:03.000Z</time>
      </trkpt>
      <trkpt lat="45.29208" lon="5.66944">
        <ele>947.40002441406</ele>
        <time>2026-01-18T10:26:04.000Z</time>
      </trkpt>
      <trkpt lat="45.29209" lon="5.66936">
        <ele>948.20001220703</ele>
        <time>2026-01-18T10:26:10.000Z</time>
      </trkpt>
      <trkpt lat="45.29209" lon="5.66935">
        <ele>948.40002441406</ele>
        <time>2026-01-18T10:26:11.000Z</time>
      </trkpt>
      <trkpt lat="45.29209" lon="5.66932">
        <ele>948.79998779297</ele>
        <time>2026-01-18T10:26:14.000Z</time>
      </trkpt>
      <trkpt lat="45.2921" lon="5.66929">
        <ele>949.20001220703</ele>
        <time>2026-01-18T10:26:17.000Z</time>
      </trkpt>
      <trkpt lat="45.2921" lon="5.66928">
        <ele>949.40002441406</ele>
        <time>2026-01-18T10:26:18.000Z</time>
      </trkpt>
      <trkpt lat="45.29208" lon="5.66923">
        <ele>950.20001220703</ele>
        <time>2026-01-18T10:26:24.000Z</time>
      </trkpt>
      <trkpt lat="45.29207" lon="5.66921">
        <ele>950.40002441406</ele>
        <time>2026-01-18T10:26:26.000Z</time>
      </trkpt>
      <trkpt lat="45.29209" lon="5.66917">
        <ele>951</ele>
        <time>2026-01-18T10:26:31.000Z</time>
      </trkpt>
      <trkpt lat="45.29209" lon="5.66916">
        <ele>951.20001220703</ele>
        <time>2026-01-18T10:26:32.000Z</time>
      </trkpt>
      <trkpt lat="45.29209" lon="5.66914">
        <ele>951.59997558594</ele>
        <time>2026-01-18T10:26:34.000Z</time>
      </trkpt>
      <trkpt lat="45.29209" lon="5.66908">
        <ele>952.40002441406</ele>
        <time>2026-01-18T10:26:40.000Z</time>
      </trkpt>
      <trkpt lat="45.29209" lon="5.66907">
        <ele>952.59997558594</ele>
        <time>2026-01-18T10:26:41.000Z</time>
      </trkpt>
      <trkpt lat="45.2921" lon="5.66905">
        <ele>953</ele>
        <time>2026-01-18T10:26:45.000Z</time>
      </trkpt>
      <trkpt lat="45.29211" lon="5.66899">
        <ele>953.59997558594</ele>
        <time>2026-01-18T10:26:51.000Z</time>
      </trkpt>
      <trkpt lat="45.29211" lon="5.66898">
        <ele>953.79998779297</ele>
        <time>2026-01-18T10:26:52.000Z</time>
      </trkpt>
      <trkpt lat="45.29211" lon="5.66894">
        <ele>954.59997558594</ele>
        <time>2026-01-18T10:26:56.000Z</time>
      </trkpt>
      <trkpt lat="45.29211" lon="5.66893">
        <ele>954.79998779297</ele>
        <time>2026-01-18T10:26:57.000Z</time>
      </trkpt>
      <trkpt lat="45.29212" lon="5.66892">
        <ele>954.79998779297</ele>
        <time>2026-01-18T10:26:59.000Z</time>
      </trkpt>
      <trkpt lat="45.29213" lon="5.66888">
        <ele>956</ele>
        <time>2026-01-18T10:27:05.000Z</time>
      </trkpt>
      <trkpt lat="45.29213" lon="5.66887">
        <ele>956</ele>
        <time>2026-01-18T10:27:06.000Z</time>
      </trkpt>
      <trkpt lat="45.29213" lon="5.66883">
        <ele>956.59997558594</ele>
        <time>2026-01-18T10:27:11.000Z</time>
      </trkpt>
      <trkpt lat="45.29214" lon="5.66881">
        <ele>957</ele>
        <time>2026-01-18T10:27:15.000Z</time>
      </trkpt>
      <trkpt lat="45.29215" lon="5.66878">
        <ele>957.40002441406</ele>
        <time>2026-01-18T10:27:19.000Z</time>
      </trkpt>
      <trkpt lat="45.29216" lon="5.66874">
        <ele>958</ele>
        <time>2026-01-18T10:27:24.000Z</time>
      </trkpt>
      <trkpt lat="45.29216" lon="5.66874">
        <ele>958</ele>
        <time>2026-01-18T10:27:25.000Z</time>
      </trkpt>
      <trkpt lat="45.29216" lon="5.66873">
        <ele>958.40002441406</ele>
        <time>2026-01-18T10:27:27.000Z</time>
      </trkpt>
      <trkpt lat="45.29216" lon="5.66872">
        <ele>958.40002441406</ele>
        <time>2026-01-18T10:27:28.000Z</time>
      </trkpt>
      <trkpt lat="45.29216" lon="5.66867">
        <ele>959</ele>
        <time>2026-01-18T10:27:34.000Z</time>
      </trkpt>
      <trkpt lat="45.29217" lon="5.66865">
        <ele>959.40002441406</ele>
        <time>2026-01-18T10:27:37.000Z</time>
      </trkpt>
      <trkpt lat="45.29217" lon="5.66861">
        <ele>960</ele>
        <time>2026-01-18T10:27:43.000Z</time>
      </trkpt>
      <trkpt lat="45.29217" lon="5.6686">
        <ele>960.20001220703</ele>
        <time>2026-01-18T10:27:44.000Z</time>
      </trkpt>
      <trkpt lat="45.29218" lon="5.66858">
        <ele>960.40002441406</ele>
        <time>2026-01-18T10:27:46.000Z</time>
      </trkpt>
      <trkpt lat="45.29218" lon="5.66857">
        <ele>960.59997558594</ele>
        <time>2026-01-18T10:27:48.000Z</time>
      </trkpt>
      <trkpt lat="45.29219" lon="5.66853">
        <ele>961</ele>
        <time>2026-01-18T10:27:51.000Z</time>
      </trkpt>
      <trkpt lat="45.2922" lon="5.66851">
        <ele>961.20001220703</ele>
        <time>2026-01-18T10:27:53.000Z</time>
      </trkpt>
      <trkpt lat="45.29219" lon="5.66846">
        <ele>961.79998779297</ele>
        <time>2026-01-18T10:27:58.000Z</time>
      </trkpt>
      <trkpt lat="45.29218" lon="5.66843">
        <ele>962.20001220703</ele>
        <time>2026-01-18T10:28:02.000Z</time>
      </trkpt>
      <trkpt lat="45.29219" lon="5.66843">
        <ele>962.40002441406</ele>
        <time>2026-01-18T10:28:03.000Z</time>
      </trkpt>
      <trkpt lat="45.2922" lon="5.66837">
        <ele>963</ele>
        <time>2026-01-18T10:28:09.000Z</time>
      </trkpt>
      <trkpt lat="45.29219" lon="5.66833">
        <ele>963.40002441406</ele>
        <time>2026-01-18T10:28:12.000Z</time>
      </trkpt>
      <trkpt lat="45.29219" lon="5.66829">
        <ele>963.79998779297</ele>
        <time>2026-01-18T10:28:16.000Z</time>
      </trkpt>
      <trkpt lat="45.29219" lon="5.66824">
        <ele>964.40002441406</ele>
        <time>2026-01-18T10:28:21.000Z</time>
      </trkpt>
      <trkpt lat="45.29218" lon="5.66822">
        <ele>964.79998779297</ele>
        <time>2026-01-18T10:28:24.000Z</time>
      </trkpt>
      <trkpt lat="45.2922" lon="5.66818">
        <ele>965.40002441406</ele>
        <time>2026-01-18T10:28:29.000Z</time>
      </trkpt>
      <trkpt lat="45.2922" lon="5.66813">
        <ele>966</ele>
        <time>2026-01-18T10:28:34.000Z</time>
      </trkpt>
      <trkpt lat="45.2922" lon="5.66808">
        <ele>966.40002441406</ele>
        <time>2026-01-18T10:28:39.000Z</time>
      </trkpt>
      <trkpt lat="45.2922" lon="5.66806">
        <ele>966.79998779297</ele>
        <time>2026-01-18T10:28:41.000Z</time>
      </trkpt>
      <trkpt lat="45.2922" lon="5.66805">
        <ele>966.79998779297</ele>
        <time>2026-01-18T10:28:43.000Z</time>
      </trkpt>
      <trkpt lat="45.29221" lon="5.66802">
        <ele>967.20001220703</ele>
        <time>2026-01-18T10:28:47.000Z</time>
      </trkpt>
      <trkpt lat="45.29221" lon="5.66801">
        <ele>967.59997558594</ele>
        <time>2026-01-18T10:28:49.000Z</time>
      </trkpt>
      <trkpt lat="45.29221" lon="5.668">
        <ele>967.59997558594</ele>
        <time>2026-01-18T10:28:50.000Z</time>
      </trkpt>
      <trkpt lat="45.2922" lon="5.66793">
        <ele>968.59997558594</ele>
        <time>2026-01-18T10:28:59.000Z</time>
      </trkpt>
      <trkpt lat="45.29217" lon="5.66786">
        <ele>969.20001220703</ele>
        <time>2026-01-18T10:29:05.000Z</time>
      </trkpt>
      <trkpt lat="45.29218" lon="5.66782">
        <ele>969.79998779297</ele>
        <time>2026-01-18T10:29:08.000Z</time>
      </trkpt>
      <trkpt lat="45.29218" lon="5.66782">
        <ele>969.79998779297</ele>
        <time>2026-01-18T10:29:09.000Z</time>
      </trkpt>
      <trkpt lat="45.29217" lon="5.66777">
        <ele>970.59997558594</ele>
        <time>2026-01-18T10:29:14.000Z</time>
      </trkpt>
      <trkpt lat="45.29217" lon="5.66776">
        <ele>970.79998779297</ele>
        <time>2026-01-18T10:29:16.000Z</time>
      </trkpt>
      <trkpt lat="45.29217" lon="5.66774">
        <ele>971.20001220703</ele>
        <time>2026-01-18T10:29:19.000Z</time>
      </trkpt>
      <trkpt lat="45.29217" lon="5.66768">
        <ele>972</ele>
        <time>2026-01-18T10:29:25.000Z</time>
      </trkpt>
      <trkpt lat="45.29216" lon="5.66767">
        <ele>972</ele>
        <time>2026-01-18T10:29:26.000Z</time>
      </trkpt>
      <trkpt lat="45.29217" lon="5.66762">
        <ele>972.79998779297</ele>
        <time>2026-01-18T10:29:31.000Z</time>
      </trkpt>
      <trkpt lat="45.29217" lon="5.6676">
        <ele>973.20001220703</ele>
        <time>2026-01-18T10:29:33.000Z</time>
      </trkpt>
      <trkpt lat="45.29216" lon="5.66754">
        <ele>974</ele>
        <time>2026-01-18T10:29:39.000Z</time>
      </trkpt>
      <trkpt lat="45.29216" lon="5.66754">
        <ele>974.20001220703</ele>
        <time>2026-01-18T10:29:40.000Z</time>
      </trkpt>
      <trkpt lat="45.29217" lon="5.66748">
        <ele>975.20001220703</ele>
        <time>2026-01-18T10:29:47.000Z</time>
      </trkpt>
      <trkpt lat="45.29215" lon="5.66743">
        <ele>975.79998779297</ele>
        <time>2026-01-18T10:29:51.000Z</time>
      </trkpt>
      <trkpt lat="45.29216" lon="5.66742">
        <ele>976.20001220703</ele>
        <time>2026-01-18T10:29:53.000Z</time>
      </trkpt>
      <trkpt lat="45.29217" lon="5.6674">
        <ele>976.79998779297</ele>
        <time>2026-01-18T10:29:57.000Z</time>
      </trkpt>
      <trkpt lat="45.29217" lon="5.66737">
        <ele>977.20001220703</ele>
        <time>2026-01-18T10:30:00.000Z</time>
      </trkpt>
      <trkpt lat="45.29217" lon="5.66735">
        <ele>977.79998779297</ele>
        <time>2026-01-18T10:30:03.000Z</time>
      </trkpt>
      <trkpt lat="45.29217" lon="5.66734">
        <ele>977.79998779297</ele>
        <time>2026-01-18T10:30:04.000Z</time>
      </trkpt>
      <trkpt lat="45.29217" lon="5.6673">
        <ele>978.20001220703</ele>
        <time>2026-01-18T10:30:07.000Z</time>
      </trkpt>
      <trkpt lat="45.29217" lon="5.66727">
        <ele>978.79998779297</ele>
        <time>2026-01-18T10:30:11.000Z</time>
      </trkpt>
      <trkpt lat="45.29218" lon="5.66724">
        <ele>979.20001220703</ele>
        <time>2026-01-18T10:30:14.000Z</time>
      </trkpt>
      <trkpt lat="45.29219" lon="5.6672">
        <ele>979.79998779297</ele>
        <time>2026-01-18T10:30:18.000Z</time>
      </trkpt>
      <trkpt lat="45.2922" lon="5.66716">
        <ele>980.40002441406</ele>
        <time>2026-01-18T10:30:22.000Z</time>
      </trkpt>
      <trkpt lat="45.29219" lon="5.66714">
        <ele>980.59997558594</ele>
        <time>2026-01-18T10:30:24.000Z</time>
      </trkpt>
      <trkpt lat="45.29219" lon="5.66709">
        <ele>981.40002441406</ele>
        <time>2026-01-18T10:30:29.000Z</time>
      </trkpt>
      <trkpt lat="45.29219" lon="5.66708">
        <ele>981.59997558594</ele>
        <time>2026-01-18T10:30:30.000Z</time>
      </trkpt>
      <trkpt lat="45.29219" lon="5.66705">
        <ele>982.20001220703</ele>
        <time>2026-01-18T10:30:34.000Z</time>
      </trkpt>
      <trkpt lat="45.2922" lon="5.66703">
        <ele>982.59997558594</ele>
        <time>2026-01-18T10:30:36.000Z</time>
      </trkpt>
      <trkpt lat="45.29219" lon="5.66701">
        <ele>983</ele>
        <time>2026-01-18T10:30:39.000Z</time>
      </trkpt>
      <trkpt lat="45.29216" lon="5.66693">
        <ele>983.59997558594</ele>
        <time>2026-01-18T10:30:46.000Z</time>
      </trkpt>
      <trkpt lat="45.29216" lon="5.66685">
        <ele>984.20001220703</ele>
        <time>2026-01-18T10:30:52.000Z</time>
      </trkpt>
      <trkpt lat="45.29217" lon="5.66681">
        <ele>984.59997558594</ele>
        <time>2026-01-18T10:30:55.000Z</time>
      </trkpt>
      <trkpt lat="45.29217" lon="5.66676">
        <ele>985.20001220703</ele>
        <time>2026-01-18T10:30:59.000Z</time>
      </trkpt>
      <trkpt lat="45.29218" lon="5.66673">
        <ele>985.59997558594</ele>
        <time>2026-01-18T10:31:02.000Z</time>
      </trkpt>
      <trkpt lat="45.29221" lon="5.6667">
        <ele>986</ele>
        <time>2026-01-18T10:31:06.000Z</time>
      </trkpt>
      <trkpt lat="45.29223" lon="5.66664">
        <ele>986.59997558594</ele>
        <time>2026-01-18T10:31:13.000Z</time>
      </trkpt>
      <trkpt lat="45.29223" lon="5.66663">
        <ele>986.59997558594</ele>
        <time>2026-01-18T10:31:14.000Z</time>
      </trkpt>
      <trkpt lat="45.29227" lon="5.66657">
        <ele>987</ele>
        <time>2026-01-18T10:31:20.000Z</time>
      </trkpt>
      <trkpt lat="45.29231" lon="5.6665">
        <ele>987.40002441406</ele>
        <time>2026-01-18T10:31:27.000Z</time>
      </trkpt>
      <trkpt lat="45.29233" lon="5.66645">
        <ele>987.79998779297</ele>
        <time>2026-01-18T10:31:31.000Z</time>
      </trkpt>
      <trkpt lat="45.29235" lon="5.66643">
        <ele>988</ele>
        <time>2026-01-18T10:31:34.000Z</time>
      </trkpt>
      <trkpt lat="45.29239" lon="5.66639">
        <ele>988.40002441406</ele>
        <time>2026-01-18T10:31:41.000Z</time>
      </trkpt>
      <trkpt lat="45.29243" lon="5.66635">
        <ele>988.40002441406</ele>
        <time>2026-01-18T10:31:47.000Z</time>
      </trkpt>
      <trkpt lat="45.2925" lon="5.66632">
        <ele>988.59997558594</ele>
        <time>2026-01-18T10:31:54.000Z</time>
      </trkpt>
      <trkpt lat="45.29252" lon="5.66625">
        <ele>988.79998779297</ele>
        <time>2026-01-18T10:32:01.000Z</time>
      </trkpt>
      <trkpt lat="45.29253" lon="5.66623">
        <ele>988.79998779297</ele>
        <time>2026-01-18T10:32:03.000Z</time>
      </trkpt>
      <trkpt lat="45.29255" lon="5.6662">
        <ele>988.79998779297</ele>
        <time>2026-01-18T10:32:08.000Z</time>
      </trkpt>
      <trkpt lat="45.29258" lon="5.66617">
        <ele>988.59997558594</ele>
        <time>2026-01-18T10:32:11.000Z</time>
      </trkpt>
      <trkpt lat="45.29261" lon="5.66614">
        <ele>988.40002441406</ele>
        <time>2026-01-18T10:32:14.000Z</time>
      </trkpt>
      <trkpt lat="45.29262" lon="5.66612">
        <ele>988.40002441406</ele>
        <time>2026-01-18T10:32:15.000Z</time>
      </trkpt>
      <trkpt lat="45.29265" lon="5.66605">
        <ele>988.59997558594</ele>
        <time>2026-01-18T10:32:20.000Z</time>
      </trkpt>
      <trkpt lat="45.29265" lon="5.66595">
        <ele>989</ele>
        <time>2026-01-18T10:32:27.000Z</time>
      </trkpt>
      <trkpt lat="45.29265" lon="5.66592">
        <ele>989.20001220703</ele>
        <time>2026-01-18T10:32:29.000Z</time>
      </trkpt>
      <trkpt lat="45.29266" lon="5.66588">
        <ele>989.40002441406</ele>
        <time>2026-01-18T10:32:32.000Z</time>
      </trkpt>
      <trkpt lat="45.29266" lon="5.66587">
        <ele>989.79998779297</ele>
        <time>2026-01-18T10:32:34.000Z</time>
      </trkpt>
      <trkpt lat="45.29267" lon="5.66586">
        <ele>990</ele>
        <time>2026-01-18T10:32:35.000Z</time>
      </trkpt>
      <trkpt lat="45.29267" lon="5.66585">
        <ele>990</ele>
        <time>2026-01-18T10:32:36.000Z</time>
      </trkpt>
      <trkpt lat="45.29268" lon="5.66581">
        <ele>990.40002441406</ele>
        <time>2026-01-18T10:32:40.000Z</time>
      </trkpt>
      <trkpt lat="45.2927" lon="5.66576">
        <ele>990.59997558594</ele>
        <time>2026-01-18T10:32:45.000Z</time>
      </trkpt>
      <trkpt lat="45.2927" lon="5.66572">
        <ele>990.79998779297</ele>
        <time>2026-01-18T10:32:48.000Z</time>
      </trkpt>
      <trkpt lat="45.29272" lon="5.66569">
        <ele>991</ele>
        <time>2026-01-18T10:32:51.000Z</time>
      </trkpt>
      <trkpt lat="45.29275" lon="5.66562">
        <ele>991</ele>
        <time>2026-01-18T10:32:59.000Z</time>
      </trkpt>
      <trkpt lat="45.29276" lon="5.66559">
        <ele>990.40002441406</ele>
        <time>2026-01-18T10:33:02.000Z</time>
      </trkpt>
      <trkpt lat="45.29277" lon="5.66552">
        <ele>989.79998779297</ele>
        <time>2026-01-18T10:33:08.000Z</time>
      </trkpt>
      <trkpt lat="45.29277" lon="5.66552">
        <ele>989.79998779297</ele>
        <time>2026-01-18T10:33:09.000Z</time>
      </trkpt>
      <trkpt lat="45.2928" lon="5.66544">
        <ele>989.59997558594</ele>
        <time>2026-01-18T10:33:17.000Z</time>
      </trkpt>
      <trkpt lat="45.29283" lon="5.66538">
        <ele>990.59997558594</ele>
        <time>2026-01-18T10:33:24.000Z</time>
      </trkpt>
      <trkpt lat="45.29284" lon="5.66538">
        <ele>990.79998779297</ele>
        <time>2026-01-18T10:33:25.000Z</time>
      </trkpt>
      <trkpt lat="45.29286" lon="5.66537">
        <ele>991.20001220703</ele>
        <time>2026-01-18T10:33:27.000Z</time>
      </trkpt>
      <trkpt lat="45.29288" lon="5.66533">
        <ele>991.79998779297</ele>
        <time>2026-01-18T10:33:32.000Z</time>
      </trkpt>
      <trkpt lat="45.29289" lon="5.6653">
        <ele>992.20001220703</ele>
        <time>2026-01-18T10:33:35.000Z</time>
      </trkpt>
      <trkpt lat="45.2929" lon="5.66527">
        <ele>992.59997558594</ele>
        <time>2026-01-18T10:33:38.000Z</time>
      </trkpt>
      <trkpt lat="45.29291" lon="5.6652">
        <ele>993.40002441406</ele>
        <time>2026-01-18T10:33:43.000Z</time>
      </trkpt>
      <trkpt lat="45.29291" lon="5.66517">
        <ele>993.79998779297</ele>
        <time>2026-01-18T10:33:45.000Z</time>
      </trkpt>
      <trkpt lat="45.29293" lon="5.66504">
        <ele>994</ele>
        <time>2026-01-18T10:33:53.000Z</time>
      </trkpt>
      <trkpt lat="45.29296" lon="5.66495">
        <ele>994</ele>
        <time>2026-01-18T10:34:00.000Z</time>
      </trkpt>
      <trkpt lat="45.29296" lon="5.66493">
        <ele>994.40002441406</ele>
        <time>2026-01-18T10:34:02.000Z</time>
      </trkpt>
      <trkpt lat="45.29299" lon="5.66488">
        <ele>995.59997558594</ele>
        <time>2026-01-18T10:34:08.000Z</time>
      </trkpt>
      <trkpt lat="45.29301" lon="5.66486">
        <ele>995.79998779297</ele>
        <time>2026-01-18T10:34:11.000Z</time>
      </trkpt>
      <trkpt lat="45.29303" lon="5.66482">
        <ele>996.59997558594</ele>
        <time>2026-01-18T10:34:16.000Z</time>
      </trkpt>
      <trkpt lat="45.29304" lon="5.6648">
        <ele>997.20001220703</ele>
        <time>2026-01-18T10:34:20.000Z</time>
      </trkpt>
      <trkpt lat="45.29305" lon="5.66477">
        <ele>997.59997558594</ele>
        <time>2026-01-18T10:34:23.000Z</time>
      </trkpt>
      <trkpt lat="45.29307" lon="5.66474">
        <ele>997.79998779297</ele>
        <time>2026-01-18T10:34:26.000Z</time>
      </trkpt>
      <trkpt lat="45.29309" lon="5.66471">
        <ele>998.20001220703</ele>
        <time>2026-01-18T10:34:30.000Z</time>
      </trkpt>
      <trkpt lat="45.29309" lon="5.66469">
        <ele>998.40002441406</ele>
        <time>2026-01-18T10:34:32.000Z</time>
      </trkpt>
      <trkpt lat="45.29311" lon="5.66467">
        <ele>998.59997558594</ele>
        <time>2026-01-18T10:34:34.000Z</time>
      </trkpt>
      <trkpt lat="45.29312" lon="5.6646">
        <ele>999.79998779297</ele>
        <time>2026-01-18T10:34:41.000Z</time>
      </trkpt>
      <trkpt lat="45.29312" lon="5.6646">
        <ele>1000.799987793</ele>
        <time>2026-01-18T10:34:47.000Z</time>
      </trkpt>
      <trkpt lat="45.29312" lon="5.66461">
        <ele>1001</ele>
        <time>2026-01-18T10:34:48.000Z</time>
      </trkpt>
      <trkpt lat="45.2931" lon="5.66457">
        <ele>1002</ele>
        <time>2026-01-18T10:34:56.000Z</time>
      </trkpt>
      <trkpt lat="45.29309" lon="5.66452">
        <ele>1002.799987793</ele>
        <time>2026-01-18T10:35:02.000Z</time>
      </trkpt>
      <trkpt lat="45.29309" lon="5.6645">
        <ele>1003.200012207</ele>
        <time>2026-01-18T10:35:05.000Z</time>
      </trkpt>
      <trkpt lat="45.2931" lon="5.66448">
        <ele>1003.5999755859</ele>
        <time>2026-01-18T10:35:09.000Z</time>
      </trkpt>
      <trkpt lat="45.29311" lon="5.66446">
        <ele>1004.200012207</ele>
        <time>2026-01-18T10:35:13.000Z</time>
      </trkpt>
      <trkpt lat="45.29311" lon="5.66445">
        <ele>1004.5999755859</ele>
        <time>2026-01-18T10:35:16.000Z</time>
      </trkpt>
      <trkpt lat="45.29311" lon="5.66444">
        <ele>1005</ele>
        <time>2026-01-18T10:35:18.000Z</time>
      </trkpt>
      <trkpt lat="45.29312" lon="5.66444">
        <ele>1005.200012207</ele>
        <time>2026-01-18T10:35:19.000Z</time>
      </trkpt>
      <trkpt lat="45.29314" lon="5.66442">
        <ele>1006.200012207</ele>
        <time>2026-01-18T10:35:26.000Z</time>
      </trkpt>
      <trkpt lat="45.29314" lon="5.66442">
        <ele>1006.4000244141</ele>
        <time>2026-01-18T10:35:27.000Z</time>
      </trkpt>
      <trkpt lat="45.29318" lon="5.66436">
        <ele>1007.200012207</ele>
        <time>2026-01-18T10:35:34.000Z</time>
      </trkpt>
      <trkpt lat="45.29319" lon="5.66431">
        <ele>1008.4000244141</ele>
        <time>2026-01-18T10:35:41.000Z</time>
      </trkpt>
      <trkpt lat="45.29322" lon="5.66427">
        <ele>1008.799987793</ele>
        <time>2026-01-18T10:35:47.000Z</time>
      </trkpt>
      <trkpt lat="45.29323" lon="5.66421">
        <ele>1008.799987793</ele>
        <time>2026-01-18T10:35:52.000Z</time>
      </trkpt>
      <trkpt lat="45.29323" lon="5.66417">
        <ele>1009.200012207</ele>
        <time>2026-01-18T10:35:58.000Z</time>
      </trkpt>
      <trkpt lat="45.29323" lon="5.66408">
        <ele>1009</ele>
        <time>2026-01-18T10:36:06.000Z</time>
      </trkpt>
      <trkpt lat="45.29325" lon="5.66399">
        <ele>1009.4000244141</ele>
        <time>2026-01-18T10:36:12.000Z</time>
      </trkpt>
      <trkpt lat="45.29326" lon="5.66397">
        <ele>1009.4000244141</ele>
        <time>2026-01-18T10:36:14.000Z</time>
      </trkpt>
      <trkpt lat="45.29327" lon="5.66393">
        <ele>1009.799987793</ele>
        <time>2026-01-18T10:36:17.000Z</time>
      </trkpt>
      <trkpt lat="45.29329" lon="5.6639">
        <ele>1010.5999755859</ele>
        <time>2026-01-18T10:36:21.000Z</time>
      </trkpt>
      <trkpt lat="45.29328" lon="5.66385">
        <ele>1011</ele>
        <time>2026-01-18T10:36:24.000Z</time>
      </trkpt>
      <trkpt lat="45.29328" lon="5.66375">
        <ele>1011.5999755859</ele>
        <time>2026-01-18T10:36:30.000Z</time>
      </trkpt>
      <trkpt lat="45.29329" lon="5.66368">
        <ele>1011.799987793</ele>
        <time>2026-01-18T10:36:36.000Z</time>
      </trkpt>
      <trkpt lat="45.29329" lon="5.66356">
        <ele>1012.200012207</ele>
        <time>2026-01-18T10:36:42.000Z</time>
      </trkpt>
      <trkpt lat="45.29329" lon="5.6635">
        <ele>1012.5999755859</ele>
        <time>2026-01-18T10:36:47.000Z</time>
      </trkpt>
      <trkpt lat="45.29329" lon="5.66348">
        <ele>1012.799987793</ele>
        <time>2026-01-18T10:36:48.000Z</time>
      </trkpt>
      <trkpt lat="45.29329" lon="5.66344">
        <ele>1013</ele>
        <time>2026-01-18T10:36:51.000Z</time>
      </trkpt>
      <trkpt lat="45.2933" lon="5.6634">
        <ele>1013.4000244141</ele>
        <time>2026-01-18T10:36:55.000Z</time>
      </trkpt>
      <trkpt lat="45.2933" lon="5.66336">
        <ele>1013.799987793</ele>
        <time>2026-01-18T10:36:58.000Z</time>
      </trkpt>
      <trkpt lat="45.2933" lon="5.66334">
        <ele>1014</ele>
        <time>2026-01-18T10:37:00.000Z</time>
      </trkpt>
      <trkpt lat="45.2933" lon="5.66328">
        <ele>1014.799987793</ele>
        <time>2026-01-18T10:37:05.000Z</time>
      </trkpt>
      <trkpt lat="45.29329" lon="5.66326">
        <ele>1014.799987793</ele>
        <time>2026-01-18T10:37:06.000Z</time>
      </trkpt>
      <trkpt lat="45.29329" lon="5.66318">
        <ele>1015.4000244141</ele>
        <time>2026-01-18T10:37:12.000Z</time>
      </trkpt>
      <trkpt lat="45.29327" lon="5.66315">
        <ele>1015.799987793</ele>
        <time>2026-01-18T10:37:14.000Z</time>
      </trkpt>
      <trkpt lat="45.29326" lon="5.66312">
        <ele>1016.4000244141</ele>
        <time>2026-01-18T10:37:18.000Z</time>
      </trkpt>
      <trkpt lat="45.29326" lon="5.66306">
        <ele>1017</ele>
        <time>2026-01-18T10:37:24.000Z</time>
      </trkpt>
      <trkpt lat="45.29326" lon="5.66305">
        <ele>1017</ele>
        <time>2026-01-18T10:37:25.000Z</time>
      </trkpt>
      <trkpt lat="45.29323" lon="5.66297">
        <ele>1018</ele>
        <time>2026-01-18T10:37:32.000Z</time>
      </trkpt>
      <trkpt lat="45.29319" lon="5.66289">
        <ele>1018.799987793</ele>
        <time>2026-01-18T10:37:38.000Z</time>
      </trkpt>
      <trkpt lat="45.29319" lon="5.66285">
        <ele>1019</ele>
        <time>2026-01-18T10:37:40.000Z</time>
      </trkpt>
      <trkpt lat="45.29319" lon="5.6628">
        <ele>1019.5999755859</ele>
        <time>2026-01-18T10:37:44.000Z</time>
      </trkpt>
      <trkpt lat="45.29319" lon="5.66278">
        <ele>1020</ele>
        <time>2026-01-18T10:37:48.000Z</time>
      </trkpt>
      <trkpt lat="45.29318" lon="5.66274">
        <ele>1020.5999755859</ele>
        <time>2026-01-18T10:37:51.000Z</time>
      </trkpt>
      <trkpt lat="45.29317" lon="5.66271">
        <ele>1021</ele>
        <time>2026-01-18T10:37:54.000Z</time>
      </trkpt>
      <trkpt lat="45.29317" lon="5.66269">
        <ele>1021.200012207</ele>
        <time>2026-01-18T10:37:55.000Z</time>
      </trkpt>
      <trkpt lat="45.29318" lon="5.66266">
        <ele>1021.4000244141</ele>
        <time>2026-01-18T10:37:58.000Z</time>
      </trkpt>
      <trkpt lat="45.29317" lon="5.6626">
        <ele>1022.200012207</ele>
        <time>2026-01-18T10:38:03.000Z</time>
      </trkpt>
      <trkpt lat="45.29316" lon="5.66258">
        <ele>1022.5999755859</ele>
        <time>2026-01-18T10:38:05.000Z</time>
      </trkpt>
      <trkpt lat="45.29316" lon="5.66256">
        <ele>1023</ele>
        <time>2026-01-18T10:38:09.000Z</time>
      </trkpt>
      <trkpt lat="45.29316" lon="5.66254">
        <ele>1023.200012207</ele>
        <time>2026-01-18T10:38:11.000Z</time>
      </trkpt>
      <trkpt lat="45.29315" lon="5.66252">
        <ele>1023.5999755859</ele>
        <time>2026-01-18T10:38:14.000Z</time>
      </trkpt>
      <trkpt lat="45.29313" lon="5.66246">
        <ele>1024.4000244141</ele>
        <time>2026-01-18T10:38:19.000Z</time>
      </trkpt>
      <trkpt lat="45.29313" lon="5.66243">
        <ele>1024.5999755859</ele>
        <time>2026-01-18T10:38:21.000Z</time>
      </trkpt>
      <trkpt lat="45.29311" lon="5.66238">
        <ele>1025.4000244141</ele>
        <time>2026-01-18T10:38:28.000Z</time>
      </trkpt>
      <trkpt lat="45.29311" lon="5.66234">
        <ele>1026.1999511719</ele>
        <time>2026-01-18T10:38:34.000Z</time>
      </trkpt>
      <trkpt lat="45.29311" lon="5.66232">
        <ele>1026.4000244141</ele>
        <time>2026-01-18T10:38:36.000Z</time>
      </trkpt>
      <trkpt lat="45.29309" lon="5.66226">
        <ele>1026.5999755859</ele>
        <time>2026-01-18T10:38:39.000Z</time>
      </trkpt>
      <trkpt lat="45.29308" lon="5.66223">
        <ele>1026.8000488281</ele>
        <time>2026-01-18T10:38:42.000Z</time>
      </trkpt>
      <trkpt lat="45.29308" lon="5.66222">
        <ele>1026.8000488281</ele>
        <time>2026-01-18T10:38:43.000Z</time>
      </trkpt>
      <trkpt lat="45.29309" lon="5.66219">
        <ele>1027.4000244141</ele>
        <time>2026-01-18T10:38:46.000Z</time>
      </trkpt>
      <trkpt lat="45.29308" lon="5.66217">
        <ele>1027.5999755859</ele>
        <time>2026-01-18T10:38:47.000Z</time>
      </trkpt>
      <trkpt lat="45.29308" lon="5.66212">
        <ele>1028.5999755859</ele>
        <time>2026-01-18T10:38:53.000Z</time>
      </trkpt>
      <trkpt lat="45.29309" lon="5.66208">
        <ele>1029.4000244141</ele>
        <time>2026-01-18T10:39:00.000Z</time>
      </trkpt>
      <trkpt lat="45.29309" lon="5.66205">
        <ele>1029.8000488281</ele>
        <time>2026-01-18T10:39:02.000Z</time>
      </trkpt>
      <trkpt lat="45.29308" lon="5.66202">
        <ele>1030.1999511719</ele>
        <time>2026-01-18T10:39:06.000Z</time>
      </trkpt>
      <trkpt lat="45.29306" lon="5.66195">
        <ele>1030.8000488281</ele>
        <time>2026-01-18T10:39:10.000Z</time>
      </trkpt>
      <trkpt lat="45.29306" lon="5.66194">
        <ele>1031</ele>
        <time>2026-01-18T10:39:11.000Z</time>
      </trkpt>
      <trkpt lat="45.29305" lon="5.66191">
        <ele>1031.1999511719</ele>
        <time>2026-01-18T10:39:13.000Z</time>
      </trkpt>
      <trkpt lat="45.29304" lon="5.66191">
        <ele>1031.4000244141</ele>
        <time>2026-01-18T10:39:14.000Z</time>
      </trkpt>
      <trkpt lat="45.29303" lon="5.66188">
        <ele>1031.8000488281</ele>
        <time>2026-01-18T10:39:18.000Z</time>
      </trkpt>
      <trkpt lat="45.29303" lon="5.66187">
        <ele>1032</ele>
        <time>2026-01-18T10:39:19.000Z</time>
      </trkpt>
      <trkpt lat="45.29303" lon="5.66184">
        <ele>1032.5999755859</ele>
        <time>2026-01-18T10:39:24.000Z</time>
      </trkpt>
      <trkpt lat="45.29302" lon="5.66183">
        <ele>1033</ele>
        <time>2026-01-18T10:39:26.000Z</time>
      </trkpt>
      <trkpt lat="45.29301" lon="5.6618">
        <ele>1033.4000244141</ele>
        <time>2026-01-18T10:39:30.000Z</time>
      </trkpt>
      <trkpt lat="45.29301" lon="5.66177">
        <ele>1034</ele>
        <time>2026-01-18T10:39:34.000Z</time>
      </trkpt>
      <trkpt lat="45.293" lon="5.66174">
        <ele>1034.5999755859</ele>
        <time>2026-01-18T10:39:37.000Z</time>
      </trkpt>
      <trkpt lat="45.29298" lon="5.66167">
        <ele>1035</ele>
        <time>2026-01-18T10:39:42.000Z</time>
      </trkpt>
      <trkpt lat="45.29297" lon="5.66163">
        <ele>1035.5999755859</ele>
        <time>2026-01-18T10:39:46.000Z</time>
      </trkpt>
      <trkpt lat="45.29296" lon="5.66159">
        <ele>1036.1999511719</ele>
        <time>2026-01-18T10:39:50.000Z</time>
      </trkpt>
      <trkpt lat="45.29297" lon="5.66155">
        <ele>1036.8000488281</ele>
        <time>2026-01-18T10:39:54.000Z</time>
      </trkpt>
      <trkpt lat="45.29297" lon="5.66154">
        <ele>1036.8000488281</ele>
        <time>2026-01-18T10:39:55.000Z</time>
      </trkpt>
      <trkpt lat="45.29296" lon="5.6615">
        <ele>1037.1999511719</ele>
        <time>2026-01-18T10:39:58.000Z</time>
      </trkpt>
      <trkpt lat="45.29294" lon="5.66146">
        <ele>1037.8000488281</ele>
        <time>2026-01-18T10:40:02.000Z</time>
      </trkpt>
      <trkpt lat="45.29294" lon="5.66143">
        <ele>1038.1999511719</ele>
        <time>2026-01-18T10:40:06.000Z</time>
      </trkpt>
      <trkpt lat="45.29294" lon="5.66142">
        <ele>1038.4000244141</ele>
        <time>2026-01-18T10:40:07.000Z</time>
      </trkpt>
      <trkpt lat="45.29295" lon="5.66136">
        <ele>1038.5999755859</ele>
        <time>2026-01-18T10:40:11.000Z</time>
      </trkpt>
      <trkpt lat="45.29296" lon="5.66134">
        <ele>1038.5999755859</ele>
        <time>2026-01-18T10:40:12.000Z</time>
      </trkpt>
      <trkpt lat="45.29295" lon="5.66132">
        <ele>1038.5999755859</ele>
        <time>2026-01-18T10:40:20.000Z</time>
      </trkpt>
      <trkpt lat="45.29295" lon="5.66133">
        <ele>1038.5999755859</ele>
        <time>2026-01-18T10:40:27.000Z</time>
      </trkpt>
      <trkpt lat="45.29295" lon="5.66133">
        <ele>1038.5999755859</ele>
        <time>2026-01-18T10:40:30.000Z</time>
      </trkpt>
      <trkpt lat="45.29295" lon="5.66133">
        <ele>1038.4000244141</ele>
        <time>2026-01-18T10:40:36.000Z</time>
      </trkpt>
      <trkpt lat="45.29295" lon="5.66133">
        <ele>1038.4000244141</ele>
        <time>2026-01-18T10:40:41.000Z</time>
      </trkpt>
      <trkpt lat="45.29295" lon="5.66133">
        <ele>1038.8000488281</ele>
        <time>2026-01-18T10:40:52.000Z</time>
      </trkpt>
      <trkpt lat="45.29296" lon="5.66125">
        <ele>1039.5999755859</ele>
        <time>2026-01-18T10:40:57.000Z</time>
      </trkpt>
      <trkpt lat="45.29299" lon="5.6612">
        <ele>1040.5999755859</ele>
        <time>2026-01-18T10:41:02.000Z</time>
      </trkpt>
      <trkpt lat="45.293" lon="5.6612">
        <ele>1040.8000488281</ele>
        <time>2026-01-18T10:41:03.000Z</time>
      </trkpt>
      <trkpt lat="45.29302" lon="5.66121">
        <ele>1041.5999755859</ele>
        <time>2026-01-18T10:41:07.000Z</time>
      </trkpt>
      <trkpt lat="45.29302" lon="5.66118">
        <ele>1042.1999511719</ele>
        <time>2026-01-18T10:41:10.000Z</time>
      </trkpt>
      <trkpt lat="45.29302" lon="5.66115">
        <ele>1042.8000488281</ele>
        <time>2026-01-18T10:41:14.000Z</time>
      </trkpt>
      <trkpt lat="45.29303" lon="5.66114">
        <ele>1043</ele>
        <time>2026-01-18T10:41:17.000Z</time>
      </trkpt>
      <trkpt lat="45.29305" lon="5.66116">
        <ele>1043.5999755859</ele>
        <time>2026-01-18T10:41:22.000Z</time>
      </trkpt>
      <trkpt lat="45.29305" lon="5.66116">
        <ele>1043.8000488281</ele>
        <time>2026-01-18T10:41:25.000Z</time>
      </trkpt>
      <trkpt lat="45.29309" lon="5.66119">
        <ele>1044.8000488281</ele>
        <time>2026-01-18T10:41:39.000Z</time>
      </trkpt>
      <trkpt lat="45.29313" lon="5.66125">
        <ele>1045.8000488281</ele>
        <time>2026-01-18T10:41:44.000Z</time>
      </trkpt>
      <trkpt lat="45.29313" lon="5.66127">
        <ele>1046</ele>
        <time>2026-01-18T10:41:45.000Z</time>
      </trkpt>
      <trkpt lat="45.29313" lon="5.66129">
        <ele>1046.8000488281</ele>
        <time>2026-01-18T10:41:51.000Z</time>
      </trkpt>
      <trkpt lat="45.29313" lon="5.66129">
        <ele>1046.8000488281</ele>
        <time>2026-01-18T10:41:56.000Z</time>
      </trkpt>
      <trkpt lat="45.29313" lon="5.66129">
        <ele>1046.8000488281</ele>
        <time>2026-01-18T10:41:57.000Z</time>
      </trkpt>
      <trkpt lat="45.29313" lon="5.66129">
        <ele>1046.8000488281</ele>
        <time>2026-01-18T10:41:58.000Z</time>
      </trkpt>
      <trkpt lat="45.29313" lon="5.66129">
        <ele>1046.8000488281</ele>
        <time>2026-01-18T10:41:59.000Z</time>
      </trkpt>
      <trkpt lat="45.29313" lon="5.66129">
        <ele>1046.8000488281</ele>
        <time>2026-01-18T10:42:04.000Z</time>
      </trkpt>
      <trkpt lat="45.29313" lon="5.66128">
        <ele>1046.5999755859</ele>
        <time>2026-01-18T10:42:08.000Z</time>
      </trkpt>
      <trkpt lat="45.29309" lon="5.66121">
        <ele>1045.8000488281</ele>
        <time>2026-01-18T10:42:12.000Z</time>
      </trkpt>
      <trkpt lat="45.29304" lon="5.66113">
        <ele>1044.8000488281</ele>
        <time>2026-01-18T10:42:18.000Z</time>
      </trkpt>
      <trkpt lat="45.29303" lon="5.66113">
        <ele>1044.5999755859</ele>
        <time>2026-01-18T10:42:19.000Z</time>
      </trkpt>
      <trkpt lat="45.29304" lon="5.66114">
        <ele>1044.1999511719</ele>
        <time>2026-01-18T10:42:22.000Z</time>
      </trkpt>
      <trkpt lat="45.29304" lon="5.66114">
        <ele>1044.1999511719</ele>
        <time>2026-01-18T10:42:25.000Z</time>
      </trkpt>
      <trkpt lat="45.29303" lon="5.66115">
        <ele>1044.1999511719</ele>
        <time>2026-01-18T10:42:31.000Z</time>
      </trkpt>
      <trkpt lat="45.29303" lon="5.66114">
        <ele>1044.1999511719</ele>
        <time>2026-01-18T10:42:39.000Z</time>
      </trkpt>
      <trkpt lat="45.29303" lon="5.66114">
        <ele>1043.5999755859</ele>
        <time>2026-01-18T10:42:49.000Z</time>
      </trkpt>
      <trkpt lat="45.29303" lon="5.66115">
        <ele>1043.5999755859</ele>
        <time>2026-01-18T10:42:53.000Z</time>
      </trkpt>
      <trkpt lat="45.29303" lon="5.66115">
        <ele>1043.5999755859</ele>
        <time>2026-01-18T10:42:55.000Z</time>
      </trkpt>
      <trkpt lat="45.29303" lon="5.66115">
        <ele>1043.8000488281</ele>
        <time>2026-01-18T10:42:57.000Z</time>
      </trkpt>
      <trkpt lat="45.29303" lon="5.66116">
        <ele>1043.8000488281</ele>
        <time>2026-01-18T10:43:13.000Z</time>
      </trkpt>
      <trkpt lat="45.29303" lon="5.66116">
        <ele>1044</ele>
        <time>2026-01-18T10:43:19.000Z</time>
      </trkpt>
      <trkpt lat="45.29303" lon="5.66116">
        <ele>1044</ele>
        <time>2026-01-18T10:43:21.000Z</time>
      </trkpt>
      <trkpt lat="45.29303" lon="5.66116">
        <ele>1044</ele>
        <time>2026-01-18T10:43:24.000Z</time>
      </trkpt>
      <trkpt lat="45.29303" lon="5.66117">
        <ele>1044.8000488281</ele>
        <time>2026-01-18T10:44:27.000Z</time>
      </trkpt>
    </trkseg>
  </trk>
</gpx>